     2              OBSERVATION DATA    GPS                 RINEX VERSION / TYPE
ASHTORIN 01 - APR - 99 13:52                                PGM / RUN BY / DATE
                                                            COMMENT
Original Marker Name: SIO4                                  COMMENT
Campaign Name: rose canyon fault                            COMMENT
4-Character Station Name: SIO4                              COMMENT
6-Character Antenna Code: DMRCHT                            COMMENT
Vertical Measurement Point: BPA                             COMMENT
Vertical Offset to Rinex Ref. Point: 0.0000                 COMMENT
Radial Measurement Point: RRP                               COMMENT
Radial Offset to Rinex Ref. Point: 0.0000                   COMMENT
Antenna Height from Field Measurement: 0.0000 m             COMMENT
Additional Antenna Identification Info.:                    COMMENT
Turborogue and Ashtech Choke Ring                           COMMENT
Original XYZ: 0.0000 0.0000 0.0000                          COMMENT
New XYZ position is based on association with SCEC monument COMMENT
E1C8P4W3+0501. Position of that monument is believed to be  COMMENT
valid to within 1 m horizontally; vertical accuracy         COMMENT
should be no worse than 3-times this value.                 COMMENT
                                                            COMMENT
Revised Rinex header created by UCSD GPS archive for        COMMENT
GSAC on 17-Mar-2000 (2000:077) 21:37:22 GMT                 COMMENT
For assistance contact dagnew@ucsd.edu or hjohnson@ucsd.edu COMMENT
                                                            COMMENT
SIO LIBRARY WALL                                            MARKER NAME
                                                            MARKER NUMBER
sjb SCRIPPS INSTITUTION OF OCEANOGRAPHY                     OBSERVER / AGENCY
386 ASHTECH Z-XII3 1E951D0                                  REC # / TYPE / VERS
408 DORNE-MARGOL. TYPE T                                    ANT # / TYPE
 -2455541.5910 -4767225.1571  3441625.7275                  APPROX POSITION XYZ
        0.0000        0.0000        0.0000                  ANTENNA: DELTA H/E/N
     1     1     0                                          WAVELENGTH FACT L1/2
     7    L1    L2    C1    P1    P2    D1    D2            # / TYPES OF OBSERV
    30                                                      INTERVAL
  1999     3    29     0     0   30.000000                  TIME OF FIRST OBS
  1999     3    29    23    59   30.000000                  TIME OF LAST OBS
                                                            END OF HEADER
 99  3 29  0  0 30.0000000  0  7  8 10  5 17 30 24  6                0.000000000
   8285828.814 8   8141882.09845  25240516.087    25240516.9134   25240535.5034
        -0.000          -0.000
 -14852333.580 9 -11195298.98248  21450402.164    21450401.3664   21450410.1964
        -0.000          -0.000
  -3534492.234 9  -2397643.41948  21959905.934    21959905.3534   21959914.9824
        -0.000          -0.000
 -10704805.457 9  -7933462.68547  23087362.491    23087361.7324   23087372.3774
        -0.000          -0.000
 -13568782.722 9 -10560041.06649  20626379.432    20626379.5444   20626387.0394
        -0.000          -0.000
  -3024544.607 9  -2110283.53546  22998676.646    22998676.5184   22998687.0804
        -0.000          -0.000
 -17526809.565 9 -13511591.13048  21227029.596    21227029.3944   21227036.8594
        -0.000          -0.000
 99  3 29  0  1  0.0000000  0  7  8 10  5 17 30 24  6                0.000031387
   8377444.696 8   8213270.79945  25257950.445    25257951.2324   25257969.8974
        -0.000          -0.000
 -14790488.307 9 -11147107.87748  21462170.956    21462170.1494   21462178.9364
        -0.000          -0.000
  -3433226.501 9  -2318735.13848  21979176.512    21979175.8734   21979185.3434
        -0.000          -0.000
 -10760455.799 9  -7976826.47447  23076772.470    23076771.7544   23076782.3504
        -0.000          -0.000
 -13527948.315 9 -10528222.05349  20634149.952    20634150.0654   20634157.6454
        -0.000          -0.000
  -2939122.343 9  -2043720.77946  23014931.994    23014931.8544   23014942.2684
        -0.000          -0.000
 -17567499.506 9 -13543297.54548  21219286.439    21219286.2944   21219293.8064
        -0.000          -0.000
 99  3 29  0  1 30.0000000  0  7  8 10  5 17 30 24  6                0.000038745
   8468881.075 8   8284519.64245  25275349.634    25275350.8404   25275370.2434
        -0.000          -0.000
 -14728110.570 9 -11098501.85948  21474041.096    21474040.3114   21474049.0534
        -0.000          -0.000
  -3331646.472 9  -2239581.94247  21998506.685    21998506.0614   21998515.3024
        -0.000          -0.000
 -10815911.099 9  -8020038.28347  23066219.338    23066218.6994   23066229.4824
        -0.000          -0.000
 -13486532.496 9 -10495949.99949  20642030.967    20642031.1194   20642038.8434
        -0.000          -0.000
  -2853673.743 9  -1977137.53846  23031192.213    23031192.1874   23031202.5194
        -0.000          -0.000
 -17608027.981 9 -13574878.12948  21211574.253    21211574.0034   21211581.5134
        -0.000          -0.000
 99  3 29  0  2  0.0000000  0  7  8 10  5 17 30 24  6                0.000046110
   8560103.502 8   8355601.82744  25292708.549    25292709.6824   25292729.2534
        -0.000          -0.000
 -14665242.562 9 -11049513.80248  21486004.515    21486003.6604   21486012.4754
        -0.000          -0.000
  -3229781.257 9  -2160206.51347  22017890.938    22017890.2424   22017899.4284
        -0.000          -0.000
 -10871186.177 9  -8063109.65947  23055700.822    23055699.9924   23055710.9344
        -0.000          -0.000
 -13444573.998 9 -10463255.08449  20650015.313    20650015.5024   20650023.2604
        -0.000          -0.000
  -2768225.592 9  -1910554.60346  23047452.349    23047452.2214   23047462.8984
        -0.000          -0.000
 -17648434.350 9 -13606363.57448  21203885.102    21203884.8864   21203892.4384
        -0.000          -0.000
 99  3 29  0  2 30.0000000  0  7  8 10  5 17 30 24  6                0.000053495
   8651127.322 8   8426529.22244  25310030.265    25310031.0794   25310050.1434
        -0.000          -0.000
 -14601887.009 9 -11000145.84648  21498060.493    21498059.6834   21498068.6964
        -0.000          -0.000
  -3127650.092 9  -2080623.86447  22037325.477    22037324.9584   22037334.2924
        -0.000          -0.000
 -10926269.305 9  -8106031.49247  23045218.626    23045217.9184   23045228.8644
        -0.000          -0.000
 -13402086.837 9 -10430148.21849  20658100.304    20658100.5244   20658108.1664
        -0.000          -0.000
  -2682773.248 9  -1843968.41246  23063713.386    23063713.3634   23063724.2274
        -0.000          -0.000
 -17688713.103 9 -13637749.59248  21196220.240    21196219.9934   21196227.6754
        -0.000          -0.000
 99  3 29  0  3  0.0000000  0  7  8 10  5 17 30 24  6                0.000060888
   8741974.118 8   8497318.63344  25327318.661    25327319.3604   25327337.7934
        -0.000          -0.000
 -14538009.780 9 -10950371.39148  21510215.905    21510215.1284   21510224.1864
        -0.000          -0.000
  -3025244.348 9  -2000827.25847  22056812.506    22056812.0464   22056821.4854
        -0.000          -0.000
 -10981133.015 9  -8148782.31747  23034778.449    23034777.6864   23034788.6564
        -0.000          -0.000
 -13359042.527 9 -10396607.21149  20666291.471    20666291.7144   20666299.2324
        -0.000          -0.000
  -2597325.786 9  -1777386.00446  23079973.798    23079973.7064   23079984.2434
        -0.000          -0.000
 -17728830.769 9 -13669010.08148  21188586.002    21188585.8474   21188593.6174
        -0.000          -0.000
 99  3 29  0  3 30.0000000  0  8  8 10  5 23 17 30 24  6             0.000068300
   8832659.291 8   8567982.14844  25344576.402    25344576.5244   25344595.0914
        -0.000          -0.000
 -14473572.769 9 -10900160.73848  21522478.049    21522477.2094   21522486.2404
        -0.000          -0.000
  -2922533.769 9  -1920793.10747  22076357.809    22076357.3364   22076366.7324
        -0.000          -0.000
   -300029.26418   -214487.27452         0.000           0.0005          0.0005
        -0.000          -0.000
 -11035738.596 9  -8191332.01547  23024386.926    23024386.1704   23024397.6124
        -0.000          -0.000
 -13315392.956 9 -10362594.57849  20674597.918    20674598.0644   20674605.4994
        -0.000          -0.000
  -2511848.644 9  -1710780.49246  23096239.888    23096239.7264   23096249.8354
        -0.000          -0.000
 -17768740.636 9 -13700108.63948  21180991.541    21180991.2554   21180998.9714
        -0.000          -0.000
 99  3 29  0  4  0.0000000  0  8  8 10  5 23 17 30 24  6             0.000075721
   8923119.006 7   8638470.02244  25361789.943    25361790.4204   25361810.0154
        -0.000          -0.000
 -14408625.364 9 -10849552.38248  21534837.256    21534836.3434   21534845.4524
        -0.000          -0.000
  -2819553.180 9  -1840548.56947  22095954.431    22095954.0094   22095963.5004
        -0.000          -0.000
   -395658.25718    -59061.86452         0.000           0.0005          0.0005
        -0.000          -0.000
 -11090125.212 9  -8233711.09847  23014036.927    23014036.4454   23014048.0924
        -0.000          -0.000
 -13271189.413 9 -10328150.28749  20683009.557    20683009.7304   20683017.1624
        -0.000          -0.000
  -2426373.047 9  -1644176.18846  23112505.377    23112505.2064   23112515.2034
        -0.000          -0.000
 -17808480.906 9 -13731075.05448  21173429.084    21173428.8304   21173436.5394
        -0.000          -0.000
 99  3 29  0  4 30.0000000  0  8  8 10  5 23 17 30 24  6             0.000083144
   9013335.484 8   8708768.33644  25378957.798    25378958.1104   25378977.4844
        -0.000          -0.000
 -14343175.218 9 -10798552.29048  21547291.870    21547290.9714   21547300.1394
        -0.000          -0.000
  -2716313.351 9  -1760102.02347  22115600.404    22115599.9694   22115609.5174
        -0.000          -0.000
   -491261.589 8   -133558.02352         0.000           0.0004          0.0005
        -0.000          -0.000
 -11144295.950 9  -8275921.94247  23003728.467    23003727.9214   23003739.5664
        -0.000          -0.000
 -13226428.704 9 -10293271.82949  20691527.078    20691527.2944   20691534.8524
        -0.000          -0.000
  -2340906.757 9  -1577579.14446  23128768.981    23128768.9074   23128778.7354
        -0.000          -0.000
 -17848052.409 9 -13761909.95548  21165898.777    21165898.5434   21165906.3644
        -0.000          -0.000
 99  3 29  0  5  0.0000000  0  8  8 10  5 23 17 30 24  6             0.000090588
   9103334.842 8   8778897.42144  25396085.318    25396085.2634   25396104.2494
        -0.000          -0.000
 -14277193.645 9 -10747138.09248  21559847.693    21559846.8194   21559855.9544
        -0.000          -0.000
  -2612754.688 9  -1679407.03747  22135306.936    22135306.4964   22135316.1864
        -0.000          -0.000
   -586792.971 8   -207997.25354         0.000           0.0004   25049252.7545
        -0.000          -0.000
 -11198218.679 9  -8317939.55247  22993467.257    22993466.7044   22993478.2244
        -0.000          -0.000
 -13181058.822 9 -10257918.69949  20700160.433    20700160.7674   20700168.5084
        -0.000          -0.000
  -2255410.220 9  -1510958.51146  23145038.392    23145038.3044   23145048.1654
        -0.000          -0.000
 -17887413.850 9 -13792581.17848  21158408.507    21158408.2594   21158416.1474
        -0.000          -0.000
 99  3 29  0  5 30.0000000  0  8  8 10  5 23 17 30 24  6             0.000098042
   9193067.497 8   8848818.63644  25413161.146    25413160.8954   25413180.2394
        -0.000          -0.000
 -14210740.558 9 -10695356.47748  21572493.162    21572492.3044   21572501.4964
        -0.000          -0.000
  -2508902.689 9  -1598483.48147  22155069.319    22155068.8854   22155078.7764
        -0.000          -0.000
   -682306.61218   -282422.94145  25031055.252    25031053.6125   25031075.2364
        -0.000          -0.000
 -11251939.526 9  -8359799.84247  22983244.431    22983243.9624   22983255.2814
        -0.000          -0.000
 -13135122.955 9 -10222124.53949  20708901.796    20708902.1154   20708909.8144
        -0.000          -0.000
  -2169904.423 9  -1444330.68446  23161309.713    23161309.5184   23161319.4404
        -0.000          -0.000
 -17926600.751 9 -13823116.39548  21150951.338    21150951.1814   21150959.0714
        -0.000          -0.000
 99  3 29  0  6  0.0000000  0  8  8 10  5 23 17 30 24  6             0.000105507
   9282545.78718   8918541.71144  25430187.846    25430188.0165   25430207.5934
        -0.000          -0.000
 -14143828.053 9 -10643216.88348  21585226.129    21585225.3104   21585234.4374
        -0.000          -0.000
  -2404762.088 9  -1517335.04647  22174886.738    22174886.2464   22174896.2544
        -0.000          -0.000
   -777817.118 8   -356846.22045  25012880.104    25012879.0244   25012898.5254
        -0.000          -0.000
 -11305461.510 9  -8401505.18347  22973059.768    22973059.0924   22973070.1624
        -0.000          -0.000
 -13088635.541 9 -10185900.60349  20717748.183    20717748.4714   20717756.1024
        -0.000          -0.000
  -2084402.475 9  -1377705.83346  23177580.336    23177580.0654   23177589.8404
        -0.000          -0.000
 -17965614.619 9 -13853516.78348  21143527.251    21143527.0714   21143534.9304
        -0.000          -0.000
 99  3 29  0  6 30.0000000  0  8  8 10  5 23 17 30 24  6             0.000112931
   9371747.211 8   8988049.09154  25447162.842    25447162.1874          0.0005
        -0.000          -0.000
 -14076478.276 9 -10590736.55648  21598042.300    21598041.4974   21598050.6094
        -0.000          -0.000
  -2300374.140 9  -1435993.87047  22194751.191    22194750.6744   22194760.6794
        -0.000          -0.000
   -873340.128 8   -431279.26645  24994702.608    24994701.8084   24994721.0454
        -0.000          -0.000
 -11358823.913 9  -8443086.18547  22962905.054    22962904.5024   22962915.3494
        -0.000          -0.000
 -13041607.990 9 -10149255.77549  20726697.130    20726697.4464   20726705.1564
        -0.000          -0.000
  -1998949.870 9  -1311119.43945  23193841.453    23193841.2774   23193850.7914
        -0.000          -0.000
 -18004484.321 9 -13883804.84048  21136130.509    21136130.3424   21136138.2084
        -0.000          -0.000
 99  3 29  0  7  0.0000000  0  8  8 10  5 23 17 30 24  6             0.000120332
   9460707.499 8   9057368.51354  25464092.772    25464090.9094   25464110.4755
        -0.000          -0.000
 -14008655.964 9 -10537888.02148  21610948.363    21610947.5724   21610956.7684
        -0.000          -0.000
  -2195705.767 9  -1354434.18647  22214668.955    22214668.4054   22214678.2764
        -0.000          -0.000
   -968843.895 8   -505697.29845  24976528.739    24976527.7304   24976546.7044
        -0.000          -0.000
 -11412001.624 9  -8484523.26347  22952785.643    22952785.1874   22952795.8524
        -0.000          -0.000
 -12994011.445 9 -10112167.57949  20735754.442    20735754.8254   20735762.5584
        -0.000          -0.000
  -1913516.693 8  -1244548.18845  23210099.058    23210098.7444   23210108.1674
        -0.000          -0.000
 -18043171.518 9 -13913950.67548  21128768.546    21128768.3984   21128776.2194
        -0.000          -0.000
 99  3 29  0  7 30.0000000  0  8  8 10  5 23 17 30 24  6             0.000127698
   9549421.772 8   9126496.19154  25480974.912    25480972.6684   25480992.9475
        -0.000          -0.000
 -13940355.145 9 -10484666.60748  21623945.441    21623944.7554   21623954.0244
        -0.000          -0.000
  -2090788.997 9  -1272680.93547  22234634.248    22234633.5744   22234643.2164
        -0.000          -0.000
  -1064335.510 8   -580105.87745  24958356.993    24958356.1804   24958375.0024
        -0.000          -0.000
 -11465005.007 9  -8525824.48247  22942699.525    22942698.9504   22942709.6184
        -0.000          -0.000
 -12945864.662 9 -10074650.63249  20744916.564    20744916.8734   20744924.5454
        -0.000          -0.000
  -1828116.440 8  -1178002.62145  23226350.132    23226349.8624   23226359.4704
        -0.000          -0.000
 -18081691.628 9 -13943966.31848  21121438.353    21121438.2034   21121446.1064
        -0.000          -0.000
 99  3 29  0  8  0.0000000  0  8  8 10  5 23 17 30 24  6             0.000135038
   9637926.037 8   9195460.19844  25497816.424    25497815.0884   25497835.5774
        -0.000          -0.000
 -13871534.391 9 -10431040.06148  21637041.674    21637040.9284   21637050.2564
        -0.000          -0.000
  -1985621.654 9  -1190732.43147  22254646.904    22254646.2694   22254655.7884
        -0.000          -0.000
  -1159780.102 9   -654477.81145  24940194.407    24940193.7034   24940212.0424
        -0.000          -0.000
 -11517802.316 9  -8566965.14347  22932652.151    22932651.6964   22932662.4104
        -0.000          -0.000
 -12897143.401 9 -10036686.03749  20754187.865    20754188.2154   20754195.9114
        -0.000          -0.000
  -1742727.619 8  -1111465.94745  23242599.026    23242598.8144   23242608.7514
        -0.000          -0.000
 -18120019.891 9 -13973832.48048  21114144.670    21114144.5824   21114152.5774
        -0.000          -0.000
 99  3 29  0  8 30.0000000  0  8  8 10  5 23 17 30 24  6             0.000142346
   9726197.194 7   9264242.62854  25514614.459    25514612.9224          0.0005
        -0.000          -0.000
 -13802205.103 9 -10377017.28148  21650234.623    21650233.8654   21650243.1944
        -0.000          -0.000
  -1880222.733 9  -1108603.47647  22274703.553    22274702.9344   22274712.4494
        -0.000          -0.000
  -1255201.812 9   -728831.91845  24922036.301    24922035.4144   24922053.1804
        -0.000          -0.000
 -11570407.604 9  -8607956.17647  22922641.708    22922641.2064   22922651.7084
        -0.000          -0.000
 -12847856.283 9  -9998280.51149  20763566.892    20763567.2124   20763574.9334
        -0.000          -0.000
  -1657359.049 8  -1044945.04945  23258844.126    23258843.7584   23258854.2344
        -0.000          -0.000
 -18158164.041 9 -14003555.16148  21106886.234    21106886.0674   21106894.0034
        -0.000          -0.000
 99  3 29  0  9  0.0000000  0  8  8 10  5 23 17 30 24  6             0.000149657
   9814270.579 8   9332870.87654  25531374.416    25531373.0164          0.0005
        -0.000          -0.000
 -13732338.455 9 -10322575.76648  21663529.781    21663529.0714   21663538.3294
        -0.000          -0.000
  -1774567.223 9  -1026274.59047  22294809.286    22294808.6644   22294818.1214
        -0.000          -0.000
  -1350571.080 9   -803145.14445  24903888.189    24903887.1384   24903904.6974
        -0.000          -0.000
 -11622775.651 9  -8648762.33647  22912676.466    22912675.8154   22912686.2024
        -0.000          -0.000
 -12797982.672 9  -9959417.97149  20773057.660    20773057.9314   20773065.6104
        -0.000          -0.000
  -1571970.709 9   -978408.75345  23275092.943    23275092.6994   23275103.3934
        -0.000          -0.000
 -18196085.228 9 -14033104.11148  21099670.174    21099669.9424   21099677.8774
        -0.000          -0.000
 99  3 29  0  9 30.0000000  0  8  8 10  5 23 17 30 24  6             0.000156962
   9902141.625 8   9401341.54954  25548096.311    25548095.1124   25548113.6755
        -0.000          -0.000
 -13661943.193 9 -10267722.33048  21676925.664    21676924.8774   21676933.9684
        -0.000          -0.000
  -1668670.918 9   -943758.06547  22314960.931    22314960.1454   22314969.7524
        -0.000          -0.000
  -1445884.258 9   -877414.65045  24885750.557    24885749.4054   24885766.8844
        -0.000          -0.000
 -11674918.202 9  -8689392.81347  22902753.628    22902753.1644   22902763.6354
        -0.000          -0.000
 -12747531.646 9  -9920105.51249  20782658.367    20782658.5654   20782666.2104
        -0.000          -0.000
  -1486567.768 9   -911861.05945  23291344.837    23291344.5074   23291355.1174
        -0.000          -0.000
 -18233784.712 9 -14062480.29848  21092496.208    21092495.9494   21092503.8454
        -0.000          -0.000
 99  3 29  0 10  0.0000000  0  8  8 10  5 23 17 30 24  6             0.000164259
   9989784.883 7   9469634.70054  25564775.236    25564773.8554          0.0005
        -0.000          -0.000
 -13591055.561 9 -10212485.23048  21690415.175    21690414.3694   21690423.3084
        -0.000          -0.000
  -1562547.310 9   -861064.42847  22335155.619    22335154.8244   22335164.6564
        -0.000          -0.000
  -1541174.904 8   -951666.59845  24867616.716    24867615.5994   24867633.4104
        -0.000          -0.000
 -11726856.061 9  -8729863.79447  22892870.366    22892869.8564   22892880.1724
        -0.000          -0.000
 -12696528.977 9  -9880363.19349  20792363.861    20792364.0564   20792371.6994
        -0.000          -0.000
  -1401171.250 9   -845318.33645  23307595.298    23307595.0384   23307605.4114
        -0.000          -0.000
 -18271285.287 9 -14091701.49248  21085360.109    21085359.8494   21085367.6314
        -0.000          -0.000
 99  3 29  0 10 30.0000000  0  8  8 10  5 23 17 30 24  6             0.000171552
  10077183.514 7   9537737.22354  25581406.237    25581404.8624          0.0005
        -0.000          -0.000
 -13519695.385 9 -10156879.91048  21703994.530    21703993.7484   21704002.6354
        -0.000          -0.000
  -1456186.906 9   -778186.27047  22355395.425    22355394.6424   22355404.6434
        -0.000          -0.000
  -1636442.917 8  -1025900.90145  24849486.946    24849486.1204   24849504.1234
        -0.000          -0.000
 -11778594.651 9  -8770179.49047  22883025.223    22883024.4824   22883034.5864
        -0.000          -0.000
 -12644986.270 9  -9840200.06449  20802172.060    20802172.2964   20802180.0634
        -0.000          -0.000
  -1315785.817 9   -778784.26445  23323843.437    23323843.3194   23323853.3794
        -0.000          -0.000
 -18308595.408 9 -14120774.28448  21078260.134    21078259.9644   21078267.6064
        -0.000          -0.000
 99  3 29  0 11  0.0000000  0  8  8 10  5 23 17 30 24  6             0.000178857
  10164332.50317   9605645.14354         0.000           0.0005          0.0005
        -0.000          -0.000
 -13447870.367 9 -10100912.37748  21717662.446    21717661.6964   21717670.4404
        -0.000          -0.000
  -1349577.223 9   -695113.88047  22375682.708    22375681.8584   22375692.0214
        -0.000          -0.000
  -1731670.164 8  -1100103.46245  24831365.107    24831364.6354   24831382.6384
        -0.000          -0.000
 -11830127.592 9  -8810334.92147  22873218.624    22873218.0214   22873228.1924
        -0.000          -0.000
 -12592913.185 9  -9799623.65349  20812081.137    20812081.3764   20812089.2644
        -0.000          -0.000
  -1230413.699 9   -712260.59245  23340089.401    23340089.2024   23340098.9374
        -0.000          -0.000
 -18345728.302 9 -14149708.96548  21071194.039    21071193.7964   21071201.4824
        -0.000          -0.000
 99  3 29  0 11 30.0000000  0  8  8 10  5 23 17 30 24  6             0.000186192
  10251253.80318     51413.03852         0.000           0.0005          0.0005
        -0.000          -0.000
 -13375559.523 9 -10044566.28148  21731422.927    21731422.1594   21731430.7534
        -0.000          -0.000
  -1242680.272 9   -611817.64447  22396024.448    22396023.6964   22396034.0454
        -0.000          -0.000
  -1826843.831 8  -1174264.29045  24813253.312    24813253.2644   24813271.4084
        -0.000          -0.000
 -11881430.375 9  -8850311.03547  22863455.819    22863455.2594   22863465.5944
        -0.000          -0.000
 -12540288.066 9  -9758617.09248  20822095.320    20822095.5734   20822103.5264
        -0.000          -0.000
  -1145039.981 9   -645735.64245  23356335.636    23356335.4554   23356344.9484
        -0.000          -0.000
 -18382667.076 9 -14178492.40248  21064164.712    21064164.4624   21064172.1844
        -0.000          -0.000
 99  3 29  0 12  0.0000000  0  8  8 10  5 23 17 30 24  6             0.000193582
  10337963.718 7    119065.36052         0.000           0.0004          0.0005
        -0.000          -0.000
 -13302765.355 9  -9987843.57648  21745275.268    21745274.5394   21745283.1354
        -0.000          -0.000
  -1135470.675 9   -528277.79147  22416425.463    22416424.7834   22416435.3864
        -0.000          -0.000
  -1921950.558 8  -1248372.94145  24795154.647    24795154.6534   24795172.5064
        -0.000          -0.000
 -11932464.897 9  -8890078.10247  22853744.250    22853743.6034   22853754.0334
        -0.000          -0.000
 -12487091.689 9  -9717165.39648  20832218.159    20832218.4554   20832226.4654
        -0.000          -0.000
  -1059656.455 9   -579203.09645  23372583.671    23372583.4274   23372592.9104
        -0.000          -0.000
 -18419391.692 9 -14207108.94848  21057176.214    21057175.9814   21057183.5834
        -0.000          -0.000
 99  3 29  0 12 30.0000000  0  7 10  5 23 17 30 24  6                0.000200984
 -13229548.203 9  -9930791.26948  21759208.210    21759207.4444   21759216.0054
        -0.000          -0.000
  -1028011.245 9   -444543.26547  22436874.124    22436873.5064   22436884.3264
        -0.000          -0.000
  -2017034.032 8  -1322463.50245  24777060.379    24777060.3904   24777078.2584
        -0.000          -0.000
 -11983287.899 9  -8929680.33347  22844072.771    22844072.0584   22844082.6984
        -0.000          -0.000
 -12433386.346 9  -9675317.10349  20842438.022    20842438.3504   20842446.1494
        -0.000          -0.000
   -974328.486 9   -512713.80945  23388821.287    23388820.9264   23388830.5524
        -0.000          -0.000
 -18455948.594 9 -14235594.81848  21050219.596    21050219.3964   21050226.9104
        -0.000          -0.000
 99  3 29  0 13  0.0000000  0  7 10  5 23 17 30 24  6                0.000208395
 -13155870.852 9  -9873380.36648  21773228.665    21773227.8384   21773236.4224
        -0.000          -0.000
   -920290.965 9   -360605.49147  22457372.606    22457371.9554   22457382.9144
        -0.000          -0.000
  -2112083.171 8  -1396527.28545  24758972.924    24758972.5814   24758990.2314
        -0.000          -0.000
 -12033888.487 9  -8969109.27347  22834443.308    22834442.8344   22834453.6374
        -0.000          -0.000
 -12379149.698 9  -9633054.80449  20852759.109    20852759.3754   20852766.9924
        -0.000          -0.000
   -889033.292 8   -446250.07845  23405052.631    23405052.2594   23405062.0754
        -0.000          -0.000
 -18492305.633 9 -14263924.94649  21043301.139    21043300.9364   21043308.3784
        -0.000          -0.000
 99  3 29  0 13 30.0000000  0  7 10  5 23 17 30 24  6                0.000215786
 -13081753.843 9  -9815626.87348  21787332.678    21787331.8344   21787340.5694
        -0.000          -0.000
   -812355.862 9   -276500.30947  22477912.060    22477911.3164   22477922.3074
        -0.000          -0.000
  -2207127.228 8  -1470587.12145  24740886.376    24740885.9834   24740903.2214
        -0.000          -0.000
 -12084305.930 9  -9008395.48347  22824849.234    22824848.8054   22824859.4284
        -0.000          -0.000
 -12324401.933 9  -9590394.22349  20863177.398    20863177.6134   20863185.1464
        -0.000          -0.000
   -803788.659 8   -379825.75345  23421274.013    23421273.6514   23421283.8104
        -0.000          -0.000
 -18528478.328 9 -14292111.43349  21036417.737    21036417.5014   21036424.9114
        -0.000          -0.000
 99  3 29  0 14  0.0000000  0  7 10  5 23 17 30 24  6                0.000223195
 -13007138.012 9  -9757484.67648  21801531.594    21801530.7444   21801539.4994
        -0.000          -0.000
   -704158.615 9   -192190.84547  22498501.205    22498500.4634   22498511.6374
        -0.000          -0.000
  -2302084.998 8  -1544579.74645  24722816.003    24722815.7224   24722832.6334
        -0.000          -0.000
 -12134489.700 9  -9047499.61547  22815300.043    22815299.3074   22815309.7014
        -0.000          -0.000
 -12269089.427 9  -9547293.59449  20873702.973    20873703.2164   20873710.8224
        -0.000          -0.000
   -718523.742 8   -313385.63645  23437499.074    23437498.7874   23437509.1484
        -0.000          -0.000
 -18564404.122 9 -14320105.54049  21029581.230    21029581.0244   21029588.4964
        -0.000          -0.000
 99  3 29  0 14 30.0000000  0  7 10  5 23 17 30 24  6                0.000230594
 -12932040.662 9  -9698967.27448  21815822.047    21815821.2214   21815830.1334
        -0.000          -0.000
   -595742.071 9   -107710.49647  22519132.025    22519131.4294   22519142.7144
        -0.000          -0.000
  -2396975.383 8  -1618519.87345  24704758.381    24704758.3724   24704774.9924
        -0.000          -0.000
 -12184493.292 9  -9086463.36547  22805784.685    22805783.9644   22805794.2774
        -0.000          -0.000
 -12213257.567 9  -9503788.27949  20884327.498    20884327.7214   20884335.3054
        -0.000          -0.000
   -633263.417 8   -246949.08345  23453723.833    23453723.3254   23453733.3784
        -0.000          -0.000
 -18600125.370 9 -14347940.24649  21022783.739    21022783.4504   21022790.9884
        -0.000          -0.000
 99  3 29  0 15  0.0000000  0  7 10  5 23 17 30 24  6                0.000237988
 -12856461.166 9  -9640074.18948  21830204.268    21830203.5054   21830212.4564
        -0.000          -0.000
   -487106.758 9    -23059.68447  22539804.958    22539804.2884   22539815.4154
        -0.000          -0.000
  -2491785.845 9  -1692397.71445  24686716.637    24686716.2434   24686732.8084
        -0.000          -0.000
 -12234309.933 9  -9125281.41947  22796305.024    22796304.1774   22796314.4004
        -0.000          -0.000
 -12156892.014 9  -9459867.09549  20895053.610    20895053.7464   20895061.3914
        -0.000          -0.000
   -547995.163 8   -180506.33445  23469949.815    23469949.7024   23469959.1224
        -0.000          -0.000
 -18635637.724 9 -14375612.18349  21016025.877    21016025.6084   21016033.1654
        -0.000          -0.000
 99  3 29  0 15 30.0000000  0  7 10  5 23 17 30 24  6                0.000245209
 -12780456.026 9  -9580849.43047  21844667.649    21844666.8724   21844675.6634
        -0.000          -0.000
   -378284.427 9     61736.84147  22560513.340    22560512.6914   22560523.8484
        -0.000          -0.000
  -2586525.624 8  -1766220.48245  24668688.452    24668687.7334   24668704.0824
        -0.000          -0.000
 -12283956.667 9  -9163967.08047  22786857.313    22786856.4384   22786866.8224
        -0.000          -0.000
 -12100003.047 9  -9415538.05749  20905879.144    20905879.2914   20905887.0584
        -0.000          -0.000
   -462750.231 8   -114081.77045  23486171.101    23486171.1434   23486180.8474
        -0.000          -0.000
 -18670976.240 9 -14403148.66749  21009301.107    21009300.8344   21009308.3694
        -0.000          -0.000
 99  3 29  0 16  0.0000000  0  7 10  5 23 17 30 24  6                0.000252561
 -12704039.221 9  -9521303.90047  21859209.360    21859208.5454   21859217.0614
        -0.000          -0.000
   -269288.514 9    146668.62247  22581254.757    22581254.1324   22581265.3904
        -0.000          -0.000
  -2681193.422 8  -1839987.16045  24650673.984    24650672.7154   24650689.0454
        -0.000          -0.000
 -12333428.694 9  -9202516.62847  22777442.703    22777442.0054   22777452.4894
        -0.000          -0.000
 -12042597.759 9  -9370806.69349  20916803.025    20916803.2084   20916810.9404
        -0.000          -0.000
   -377539.530 8    -47683.86345  23502385.550    23502385.7584   23502396.0094
        -0.000          -0.000
 -18706146.293 9 -14430553.88848  21002608.305    21002608.0574   21002615.7004
        -0.000          -0.000
 99  3 29  0 16 30.0000000  0  7 10  5 23 17 30 24  6                0.000259908
 -12627205.993 9  -9461433.89347  21873830.289    21873829.4334   21873837.8524
        -0.000          -0.000
   -160124.151 9    231731.66947  22602028.190    22602027.6114   22602038.8524
        -0.000          -0.000
  -2775797.180 8  -1913703.94245  24632671.213    24632670.0084   24632686.2694
        -0.000          -0.000
 -12382717.868 9  -9240923.67747  22768063.368    22768062.6184   22768072.9454
        -0.000          -0.000
 -11984657.318 9  -9325658.31649  20927828.848    20927828.9854   20927836.7034
        -0.000          -0.000
   -292356.958 8     18692.11745  23518595.231    23518595.4254   23518605.9424
        -0.000          -0.000
 -18741138.760 9 -14457820.72349  20995949.427    20995949.2164   20995956.8514
        -0.000          -0.000
 99  3 29  0 17  0.0000000  0  7 10  5 23 17 30 24  6                0.000267258
 -12549923.656 9  -9401213.91748  21888536.626    21888535.7724   21888544.2694
        -0.000          -0.000
    -50751.514 9    316957.00347  22622841.318    22622840.7134   22622851.9254
        -0.000          -0.000
  -2870306.754 8  -1987347.33545  24614686.157    24614684.9604   24614701.2064
        -0.000          -0.000
 -12431783.034 9  -9279156.17547  22758726.635    22758725.7524   22758736.0274
        -0.000          -0.000
 -11926126.230 9  -9280049.69849  20938966.984    20938967.1454   20938974.8714
        -0.000          -0.000
   -207172.732 8     85069.37345  23534805.554    23534805.5434   23534816.3044
        -0.000          -0.000
 -18775906.663 9 -14484912.56149  20989333.526    20989333.2974   20989340.6874
        -0.000          -0.000
 99  3 29  0 17 30.0000000  0  7 10  5 23 17 30 24  6                0.000274614
 -12472172.858 9  -9340628.90348  21903332.102    21903331.2894   21903339.9294
        -0.000          -0.000
     58835.853 9    402349.66247  22643695.186    22643694.6364   22643705.7984
        -0.000          -0.000
  -2964711.965 8  -2060909.42045  24596720.776    24596719.8064   24596736.0344
        -0.000          -0.000
 -12480614.876 9  -9317206.86747  22749433.673    22749433.2054   22749443.6894
        -0.000          -0.000
 -11867000.159 9  -9233977.45349  20950218.273    20950218.4164   20950226.1904
        -0.000          -0.000
   -121986.157 8    151448.39045  23551016.245    23551016.3994   23551026.9004
        -0.000          -0.000
 -18810433.396 9 -14511816.47749  20982763.433    20982763.1354   20982770.4244
        -0.000          -0.000
 99  3 29  0 18  0.0000000  0  7 10  5 23 17 30 24  6                0.000281959
 -12393958.500 9  -9279682.67348  21918215.876    21918215.0154   21918223.8054
        -0.000          -0.000
    168615.970 9    487892.53347  22664585.835    22664585.2644   22664596.1344
        -0.000          -0.000
  -3059045.857 8  -2134415.91745  24578768.866    24578768.2044   24578784.5964
        -0.000          -0.000
 -12529248.034 9  -9355102.73447  22740179.231    22740178.6324   22740189.1534
        -0.000          -0.000
 -11807342.057 9  -9187490.64948  20961570.724    20961570.9564   20961578.7394
        -0.000          -0.000
    -36834.035 8    217800.63445  23567220.647    23567220.4834   23567230.9524
        -0.000          -0.000
 -18844736.014 9 -14538545.77549  20976235.765    20976235.5544   20976242.8684
        -0.000          -0.000
 99  3 29  0 18 30.0000000  0  7 10  5 23 17 30 24  6                0.000289282
 -12315275.265 9  -9218371.07748  21933188.836    21933187.9904   21933196.8994
        -0.000          -0.000
    278611.262 9    573603.04547  22685517.150    22685516.7234   22685527.3524
        -0.000          -0.000
  -3153307.987 8  -2207866.51245  24560830.490    24560830.1134   24560846.6884
        -0.000          -0.000
 -12577681.989 9  -9392843.38347  22730962.620    22730961.8334   22730972.3524
        -0.000          -0.000
 -11747152.844 9  -9140589.99248  20973024.326    20973024.6074   20973032.4284
        -0.000          -0.000
     48272.315 8    284117.26045  23583416.187    23583415.8104   23583426.1334
        -0.000          -0.000
 -18878792.845 9 -14565083.54149  20969755.007    20969754.7714   20969762.0944
        -0.000          -0.000
 99  3 29  0 19  0.0000000  0  7 10  5 23 17 30 24  6                0.000296597
 -12236110.160 9  -9156684.00948  21948253.382    21948252.5914   21948261.5664
        -0.000          -0.000
    388851.368 9    659504.34147  22706495.128    22706494.7804   22706505.2094
        -0.000          -0.000
  -3247471.339 8  -2281240.17245  24542911.193    24542910.9484   24542927.7534
        -0.000          -0.000
 -12625891.630 9  -9430409.25047  22721788.518    22721787.7844   22721798.1774
        -0.000          -0.000
 -11686426.412 9  -9093270.71748  20984580.161    20984580.3774   20984588.3004
        -0.000          -0.000
    133344.625 8    350407.35545  23599604.996    23599604.2254   23599615.3604
        -0.000          -0.000
 -18912579.416 9 -14591410.71549  20963325.638    20963325.3624   20963332.7524
        -0.000          -0.000
 99  3 29  0 19 30.0000000  0  7 10  5 23 17 30 24  6                0.000303894
 -12156503.697 9  -9094653.02248  21963402.108    21963401.2934   21963410.1734
        -0.000          -0.000
    499292.274 9    745562.07647  22727511.429    22727511.0614   22727521.3414
        -0.000          -0.000
  -3341580.703 8  -2354571.73445  24525002.453    24525001.9564   24525018.7854
        -0.000          -0.000
 -12673901.233 9  -9467819.22647  22712652.523    22712651.6694   22712662.1714
        -0.000          -0.000
 -11625221.467 9  -9045578.56848  20996227.104    20996227.3244   20996235.2944
        -0.000          -0.000
    218356.641 8    416650.42344  23615782.359    23615781.3544   23615792.7694
        -0.000          -0.000
 -18946137.761 9 -14617560.04849  20956939.583    20956939.3434   20956946.8374
        -0.000          -0.000
 99  3 29  0 20  0.0000000  0  7 10  5 23 17 30 24  6                0.000311173
 -12076462.347 9  -9032283.15748  21978633.511    21978632.6394   21978641.4874
        -0.000          -0.000
    609943.033 9    831783.34947  22748567.933    22748567.4244   22748577.6534
        -0.000          -0.000
  -3435639.863 8  -2427864.18645  24507103.094    24507102.7464   24507119.4344
        -0.000          -0.000
 -12721708.730 9  -9505071.74447  22703554.750    22703554.0864   22703564.6594
        -0.000          -0.000
 -11563538.620 9  -8997514.03048  21007965.016    21007965.2184   21007973.1834
        -0.000          -0.000
    303322.633 8    482857.59144  23631950.901    23631949.5924   23631961.5654
        -0.000          -0.000
 -18979471.391 9 -14643534.28449  20950596.288    20950596.0644   20950603.7304
        -0.000          -0.000
 99  3 29  0 20 30.0000000  0  7 10  5 23 17 30 24  6                0.000318461
 -11995961.985 9  -8969555.62448  21993952.092    21993951.2944   21993960.1184
        -0.000          -0.000
    720823.908 9    918183.93147  22769668.126    22769667.5574   22769677.8244
        -0.000          -0.000
  -3529613.224 8  -2501089.80245  24489220.251    24489219.9864   24489236.3504
        -0.000          -0.000
 -12769272.735 9  -9542134.51347  22694503.660    22694502.9734   22694513.4814
        -0.000          -0.000
 -11501325.602 9  -8949036.38648  21019803.946    21019804.0924   21019811.8794
        -0.000          -0.000
    388289.040 8    549065.16654  23648119.005    23648118.0414   23648130.5085
        -0.000          -0.000
 -19012554.648 9 -14669313.42249  20944300.571    20944300.3934   20944308.2534
        -0.000          -0.000
 99  3 29  0 21  0.0000000  0  7 10  5 23 17 30 24  6                0.000325752
 -11915050.887 9  -8906508.04348  22009348.961    22009348.1954   22009356.8374
        -0.000          -0.000
    831882.943 9   1004723.34147  22790801.808    22790801.3574   22790811.8624
        -0.000          -0.000
  -3623536.513 8  -2574276.41945  24471347.090    24471346.8094   24471362.8704
        -0.000          -0.000
 -12816628.467 9  -9579035.00647  22685491.997    22685491.4114   22685501.7984
        -0.000          -0.000
 -11438628.175 9  -8900181.27248  21031734.965    21031735.0834   21031742.8234
        -0.000          -0.000
    473235.660 8    615257.35254  23664284.205    23664282.9354   23664295.0865
        -0.000          -0.000
 -19045451.913 9 -14694947.63649  20938040.408    20938040.2564   20938048.1574
        -0.000          -0.000
 99  3 29  0 21 30.0000000  0  7 10  5 23 17 30 24  6                0.000333052
 -11833720.875 9  -8843134.03448  22024825.686    22024824.8914   22024833.3074
        -0.000          -0.000
    943122.982 9   1091403.80347  22811970.038    22811969.5924   22811979.9634
        -0.000          -0.000
  -3717382.542 8  -2647402.84545  24453488.578    24453488.3234   24453504.2444
        -0.000          -0.000
 -12863771.714 9  -9615769.93647  22676520.979    22676520.4714   22676530.4424
        -0.000          -0.000
 -11375427.160 9  -8850933.75348  21043761.707    21043761.8074   21043769.6304
        -0.000          -0.000
    558173.260 8    681442.40244  23680447.765    23680446.8584   23680457.7484
        -0.000          -0.000
 -19078155.135 9 -14720430.63649  20931817.202    20931816.9754   20931824.8684
        -0.000          -0.000
 99  3 29  0 22  0.0000000  0  7 10  5 23 17 30 24  6                0.000340376
 -11751949.703 9  -8779416.26148  22040386.296    22040385.5284   22040393.9524
        -0.000          -0.000
   1054568.052 9   1178244.01647  22833177.313    22833176.9114   22833186.9994
        -0.000          -0.000
  -3811106.683 8  -2720434.29145  24435653.328    24435652.9604   24435668.7214
        -0.000          -0.000
 -12910689.352 9  -9652329.05547  22667593.033    22667592.4524   22667602.0584
        -0.000          -0.000
 -11311692.401 9  -8801270.32448  21055889.911    21055890.1104   21055897.9264
        -0.000          -0.000
    643116.228 8    747631.65754  23696611.966    23696611.2874          0.0005
        -0.000          -0.000
 -19110634.587 9 -14745739.27349  20925636.471    20925636.3034   20925644.0694
        -0.000          -0.000
 99  3 29  0 22 30.0000000  0  7 10  5 23 17 30 24  6                0.000347711
 -11669767.034 9  -8715377.85348  22056025.317    22056024.5714   22056032.9974
        -0.000          -0.000
   1166195.882 9   1265226.64947  22854419.585    22854419.2044   22854428.9624
        -0.000          -0.000
  -3904720.075 8  -2793379.43645  24417839.136    24417838.8124   24417854.4464
        -0.000          -0.000
 -12957399.645 9  -9688726.59647  22658704.567    22658703.9354   22658713.2304
        -0.000          -0.000
 -11247441.364 9  -8751204.61648  21068116.512    21068116.6564   21068124.4034
        -0.000          -0.000
    728045.37518    813810.09554  23712773.091    23712772.2015          0.0005
        -0.000          -0.000
 -19142905.051 9 -14770885.05749  20919495.687    20919495.4754   20919503.0884
        -0.000          -0.000
 99  3 29  0 23  0.0000000  0  7 10  5 23 17 30 24  6                0.000355048
 -11587196.748 9  -8651037.40148  22071738.102    22071737.3044   22071745.7844
        -0.000          -0.000
   1277997.823 9   1352344.93947  22875695.180    22875694.7054   22875704.2724
        -0.000          -0.000
  -3998228.237 9  -2866242.59545  24400044.817    24400044.4914   24400059.9294
        -0.000          -0.000
 -13003921.333 9  -9724977.19347  22649851.885    22649851.1254   22649860.2904
        -0.000          -0.000
 -11182686.803 9  -8700746.54448  21080438.779    21080439.0064   21080446.5634
        -0.000          -0.000
    812943.91217    879964.83853         0.000           0.0005          0.0005
        -0.000          -0.000
 -19174964.473 9 -14795866.40849  20913394.987    20913394.8084   20913402.4424
        -0.000          -0.000
 99  3 29  0 23 30.0000000  0  7 10  5 23 17 30 24  6                0.000362503
 -11504215.522 9  -8586376.73948  22087528.961    22087528.1424   22087536.7574
        -0.000          -0.000
   1389988.565 9   1439610.34347  22897006.566    22897006.0724   22897015.7364
        -0.000          -0.000
  -4091615.138 8  -2939011.28645  24382273.885    24382273.4944   24382288.3974
        -0.000          -0.000
 -13050252.284 9  -9761079.14647  22641035.108    22641034.3584   22641043.6024
        -0.000          -0.000
 -11117410.996 9  -8649882.29748  21092860.429    21092860.6164   21092867.9914
        -0.000          -0.000
    897818.17217    879964.838 1         0.000           0.0001          0.000
        -0.000          -0.000
 -19206775.990 9 -14820654.58349  20907341.604    20907341.3984   20907348.9394
        -0.000          -0.000
 99  3 29  0 24  0.0000000  0  7 10  5 23 17 30 24  6                0.000369703
 -11420840.403 9  -8521409.13747  22103394.779    22103393.9584   22103402.6474
        -0.000          -0.000
   1502149.437 9   1527008.32947  22918350.133    22918349.5664   22918359.4584
        -0.000          -0.000
  -4184904.905 8  -3011704.24945  24364521.429    24364520.7244   24364535.5914
        -0.000          -0.000
 -13096404.636 9  -9797041.94147  22632252.635    22632251.8084   22632261.0764
        -0.000          -0.000
 -11051650.163 9  -8598640.11248  21105374.468    21105374.6134   21105381.9344
        -0.000          -0.000
    982647.30717     63440.68252         0.000           0.0005          0.0005
        -0.000          -0.000
 -19238354.156 9 -14845260.91449  20901332.602    20901332.3094   20901339.6784
        -0.000          -0.000
 99  3 29  0 24 30.0000000  0  7 10  5 23 17 30 24  6                0.000377036
 -11337041.443 9  -8456111.27547  22119341.184    22119340.3694   22119348.9414
        -0.000          -0.000
   1614512.921 9   1614564.17746  22939732.110    22939731.4154   22939741.5324
        -0.000          -0.000
  -4278053.959 8  -3084287.55745  24346795.515    24346794.6954   24346809.5654
        -0.000          -0.000
 -13142340.177 9  -9832835.78147  22623511.474    22623510.5904   22623519.7704
        -0.000          -0.000
 -10985354.967 9  -8546981.54648  21117990.156    21117990.1904   21117997.6564
        -0.000          -0.000
   1067470.217 7    129615.10552         0.000           0.0004          0.0005
        -0.000          -0.000
 -19269658.238 9 -14869653.67949  20895375.497    20895375.2434   20895382.6084
        -0.000          -0.000
 99  3 29  0 25  0.0000000  0  7 10  5 23 17 30 24  6                0.000384358
 -11252833.624 9  -8390494.81947  22135365.307    22135364.4964   22135373.0664
        -0.000          -0.000
   1727048.369 9   1702254.02646  22961146.789    22961146.0604   22961156.1914
        -0.000          -0.000
  -4371089.626 8  -3156782.54245  24329091.226    24329090.4224   24329105.1194
        -0.000          -0.000
 -13188082.662 9  -9868479.21747  22614806.875    22614806.0564   22614815.0924
        -0.000          -0.000
 -10918555.112 9  -8494929.75248  21130701.732    21130701.7904   21130709.3884
        -0.000          -0.000
   1152255.00217    195759.93352         0.000           0.0005          0.0005
        -0.000          -0.000
 -19300712.736 9 -14893851.97649  20889465.928    20889465.7244   20889473.1534
        -0.000          -0.000
 99  3 29  0 25 30.0000000  0  7 10  5 23 17 30 24  6                0.000391673
 -11168211.689 9  -8324555.67647  22151468.189    22151467.3884   22151476.0544
        -0.000          -0.000
   1839749.239 9   1790072.77546  22982592.907    22982592.2134   22982602.4544
        -0.000          -0.000
  -4464015.055 8  -3229191.62145  24311408.182    24311407.0734   24311421.7114
        -0.000          -0.000
 -13233625.352 9  -9903966.95647  22606140.437    22606139.5854   22606148.3504
        -0.000          -0.000
 -10851252.182 9  -8442485.93848  21143508.921    21143509.0334   21143516.7414
        -0.000          -0.000
   1236998.52517     58943.49052         0.000           0.0005          0.0005
        -0.000          -0.000
 -19331520.295 9 -14917857.85049  20883603.518    20883603.2924   20883610.7204
        -0.000          -0.000
 99  3 29  0 26  0.0000000  0  7 10  5 23 17 30 24  6                0.000398991
 -11083169.718 9  -8258289.23547  22167651.169    22167650.3354   22167659.0604
        -0.000          -0.000
   1952622.807 9   1878026.10146  23004071.837    23004071.2534   23004081.7534
        -0.000          -0.000
  -4556810.977 8  -3301499.75345  24293749.676    24293748.3684   24293763.1464
        -0.000          -0.000
 -13278943.886 9  -9939280.02447  22597516.515    22597515.6064   22597524.4354
        -0.000          -0.000
 -10783427.738 9  -8389635.74748  21156415.467    21156415.6484   21156423.3534
        -0.000          -0.000
   1321716.93317    124960.49452         0.000           0.0005          0.0005
        -0.000          -0.000
 -19362066.495 9 -14941660.05849  20877790.841    20877790.5764   20877797.9384
        -0.000          -0.000
 99  3 29  0 26 30.0000000  0  7 10  5 23 17 30 24  6                0.000406259
 -10997774.830 9  -8191747.80847  22183901.135    22183900.3454   22183909.2154
        -0.000          -0.000
   2065604.261 9   1966063.49546  23025571.662    23025570.9594   23025581.5514
        -0.000          -0.000
  -4649552.163 8  -3373765.27145  24276101.354    24276100.1264   24276115.1194
        -0.000          -0.000
 -13324107.367 9  -9974472.28647  22588921.802    22588921.0954   22588930.2094
        -0.000          -0.000
 -10715134.224 9  -8336420.04748  21169411.352    21169411.4914   21169419.1824
        -0.000          -0.000
   1406351.66917    190912.25852         0.000           0.0005          0.0005
        -0.000          -0.000
 -19392408.541 9 -14965303.19649  20872016.846    20872016.5244   20872023.9694
        -0.000          -0.000
 99  3 29  0 27  0.0000000  0  8 10 26  5 23 17 30 24  6             0.000413505
 -10911972.949 9  -8124889.21947  22200228.659    22200227.8824   22200236.8244
        -0.000          -0.000
    -67554.39018    -37376.41052         0.000           0.0005          0.0005
        -0.000          -0.000
   2178731.239 9   2054214.27146  23047099.051    23047098.3264   23047109.0524
        -0.000          -0.000
  -4742193.596 8  -3445953.06945  24258471.652    24258470.4814   24258485.8504
        -0.000          -0.000
 -13369071.142 9 -10009508.92947  22580365.590    22580364.7894   22580373.9594
        -0.000          -0.000
 -10646342.989 9  -8282816.52648  21182502.005    21182502.1094   21182509.7434
        -0.000          -0.000
   1490941.99217     53341.46952         0.000           0.0005          0.0005
        -0.000          -0.000
 -19422487.907 9 -14988741.64749  20866292.737    20866292.4964   20866300.0864
        -0.000          -0.000
 99  3 29  0 27 30.0000000  0  8 10 26  5 23 17 30 24  6             0.000420756
 -10825733.609 9  -8057689.74947  22216639.559    22216638.7414   22216647.7384
        -0.000          -0.000
   -138427.185 8    -92603.97252         0.000           0.0004          0.0005
        -0.000          -0.000
   2292039.819 9   2142506.57846  23068661.085    23068660.3494   23068671.0874
        -0.000          -0.000
  -4834681.537 8  -3518021.26345  24240871.147    24240870.2664   24240885.7574
        -0.000          -0.000
 -13413808.218 9 -10044368.91247  22571852.493    22571851.5034   22571860.8374
        -0.000          -0.000
 -10577025.590 9  -8228802.99748  21195692.677    21195692.7774   21195700.4234
        -0.000          -0.000
   1575515.08917    119312.96052         0.000           0.0005          0.0005
        -0.000          -0.000
 -19452267.310 9 -15011946.35149  20860625.744    20860625.5204   20860633.3154
        -0.000          -0.000
 99  3 29  0 28  0.0000000  0  8 10 26  5 23 17 30 24  6             0.000428009
 -10739089.023 9  -7990174.50747  22233127.616    22233126.7564   22233135.7374
        -0.000          -0.000
   -209250.673 8   -147793.49252         0.000           0.0004          0.0005
        -0.000          -0.000
   2405511.843 9   2230926.23846  23090254.308    23090253.6594   23090264.2034
        -0.000          -0.000
  -4927030.803 8  -3589981.41045  24223297.656    24223296.6314   24223311.9624
        -0.000          -0.000
 -13458346.906 9 -10079074.31447  22563376.841    22563375.9304   22563385.6034
        -0.000          -0.000
 -10507217.542 9  -8174407.15648  21208976.778    21208976.8414   21208984.4834
        -0.000          -0.000
   1660058.61217    185263.75052         0.000           0.0005          0.0005
        -0.000          -0.000
 -19481773.609 9 -15034938.25549  20855010.677    20855010.5764   20855018.4604
        -0.000          -0.000
 99  3 29  0 28 30.0000000  0  8 10 26  5 23 17 30 24  6             0.000435274
 -10652042.425 9  -7922346.01647  22249692.260    22249691.3294   22249700.1934
        -0.000          -0.000
   -280046.28218    -33600.63752         0.000           0.0005          0.0005
        -0.000          -0.000
   2519142.893 9   2319469.79746  23111877.938    23111877.1604   23111887.7094
        -0.000          -0.000
  -5019248.387 9  -3661838.92745  24205749.035    24205747.9704   24205763.1364
        -0.000          -0.000
 -13502697.160 9 -10113632.88647  22554936.972    22554936.2134   22554946.1464
        -0.000          -0.000
 -10436931.982 9  -8119639.22048  21222351.653    21222351.7424   21222359.3024
        -0.000          -0.000
   1744572.42717     48893.58052         0.000           0.0005          0.0005
        -0.000          -0.000
 -19511024.442 9 -15057731.08849  20849444.598    20849444.4394   20849452.1844
        -0.000          -0.000
 99  3 29  0 29  0.0000000  0  9 10 26  5 23 25 17 30 24  6          0.000442544
 -10564578.942 9  -7854192.67847  22266336.144    22266335.1174   22266344.0114
        -0.000          -0.000
   -350802.394 8    -88740.11452         0.000           0.0004          0.0005
        -0.000          -0.000
   2632959.578 9   2408158.04646  23133536.661    23133535.8664   23133546.4024
        -0.000          -0.000
  -5111302.569 9  -3733569.14145  24188231.753    24188230.6364   24188245.3784
        -0.000          -0.000
    140041.37718    100025.23052         0.000           0.0005          0.0005
        -0.000          -0.000
 -13546834.373 9 -10148025.45347  22546537.752    22546537.0574   22546547.0344
        -0.000          -0.000
 -10366156.853 9  -8064489.79748  21235819.726    21235819.7984   21235827.3374
        -0.000          -0.000
   1829084.979 8    114747.59552         0.000           0.0004          0.0005
        -0.000          -0.000
 -19539995.299 9 -15080305.74349  20843931.794    20843931.5474   20843939.1984
        -0.000          -0.000
 99  3 29  0 29 30.0000000  0  9 10 26  5 23 25 17 30 24  6          0.000449832
 -10476731.102 9  -7785739.85047  22283053.046    22283052.0244   22283061.0394
        -0.000          -0.000
   -421537.320 8   -143864.57252         0.000           0.0004          0.0005
        -0.000          -0.000
   2746952.600 9   2496983.65946  23155228.690    23155228.0194   23155238.7734
        -0.000          -0.000
  -5203220.916 9  -3805193.50245  24170740.176    24170738.8664   24170753.4984
        -0.000          -0.000
    192287.73718     16658.88652         0.000           0.0005          0.0005
        -0.000          -0.000
 -13590768.314 9 -10182259.64247  22538177.255    22538176.6054   22538186.5614
        -0.000          -0.000
 -10294911.879 9  -8008974.26848  21249377.200    21249377.2924   21249384.8624
        -0.000          -0.000
   1913595.121 8    180599.56152         0.000           0.0004   23938383.3645
        -0.000          -0.000
 -19568721.397 9 -15102689.69649  20838465.291    20838465.0814   20838472.8174
        -0.000          -0.000
 99  3 29  0 30  0.0000000  0  9 10 26  5 23 25 17 30 24  6          0.000457123
 -10388517.644 9  -7717002.11147  22299839.445    22299838.4734   22299847.5454
        -0.000          -0.000
   -492258.03818    -29878.53952         0.000           0.0005          0.0005
        -0.000          -0.000
   2861095.601 9   2585926.15446  23176949.249    23176948.6924   23176959.5734
        -0.000          -0.000
  -5295032.699 9  -3876734.83645  24153268.672    24153267.3124   24153282.3044
        -0.000          -0.000
    244747.396 8     57535.06552         0.000           0.0004          0.0005
        -0.000          -0.000
 -13634506.302 9 -10216341.13247  22529854.142    22529853.5674   22529863.3334
        -0.000          -0.000
 -10223203.521 9  -7953097.65848  21263022.907    21263022.9364   21263030.6474
        -0.000          -0.000
   1998096.23517    246444.53044         0.000           0.0005   23954466.0944
        -0.000          -0.000
 -19597213.580 9 -15124891.37549  20833043.268    20833043.0954   20833050.8864
        -0.000          -0.000
 99  3 29  0 30 30.0000000  0  9 10 26  5 23 25 17 30 24  6          0.000464415
 -10299916.197 9  -7647962.04847  22316699.613    22316698.7414   22316707.7804
        -0.000          -0.000
   -562926.017 8    -84945.37552         0.000           0.0004          0.0005
        -0.000          -0.000
   2975392.240 9   2674988.34346  23198699.453    23198698.8144   23198709.5634
        -0.000          -0.000
  -5386711.850 9  -3948172.86045  24135822.108    24135820.9404   24135836.2044
        -0.000          -0.000
    297444.816 9     98595.43652         0.000           0.0004          0.0005
        -0.000          -0.000
 -13678035.433 9 -10250259.86247  22521570.871    22521570.2414   22521579.9024
        -0.000          -0.000
 -10151007.934 9  -7896841.38948  21276761.138    21276761.2554   21276769.0454
        -0.000          -0.000
   2082580.00815    312275.97653         0.000           0.0005          0.0005
        -0.000          -0.000
 -19625444.500 9 -15146889.47149  20827671.062    20827670.9134   20827678.6294
        -0.000          -0.000
 99  3 29  0 31  0.0000000  0  8 10 26  5 23 25 17 30  6             0.000471662
 -10210947.870 9  -7578636.10047  22333629.704    22333628.8014   22333637.9224
        -0.000          -0.000
   -633503.983 8   -139942.47352         0.000           0.0004          0.0005
        -0.000          -0.000
   3089828.830 9   2764159.56746  23220476.358    23220475.7384   23220486.2194
        -0.000          -0.000
  -5478256.548 8  -4019506.13845  24118401.204    24118400.0304   24118415.3994
        -0.000          -0.000
    350376.20318     13460.90352         0.000           0.0005          0.0005
        -0.000          -0.000
 -13721361.047 9 -10284020.02347  22513326.288    22513325.5994   22513335.2214
        -0.000          -0.000
 -10078330.796 9  -7840209.88748  21290591.066    21290591.2504   21290599.0374
        -0.000          -0.000
 -19653405.887 9 -15168677.53949  20822350.243    20822350.0274   20822357.8234
        -0.000          -0.000
 99  3 29  0 31 30.0000000  0  8 10 26  5 23 25 17 30  6             0.000478905
 -10121618.186 9  -7509028.58947  22350628.388    22350627.5824   22350636.7744
        -0.000          -0.000
   -703978.20018    -25223.07952         0.000           0.0005          0.0005
        -0.000          -0.000
   3204380.493 9   2853420.47246  23242275.049    23242274.3694   23242284.7394
        -0.000          -0.000
  -5569664.082 9  -4090732.50545  24101006.344    24101005.3324   24101020.7654
        -0.000          -0.000
    403525.923 8     54882.94952         0.000           0.0004          0.0005
        -0.000          -0.000
 -13764488.714 9 -10317625.93447  22505119.351    22505118.6114   22505128.2324
        -0.000          -0.000
 -10005176.329 9  -7783206.44848  21304511.976    21304512.1734   21304519.8904
        -0.000          -0.000
 -19681110.920 9 -15190265.86049  20817078.039    20817077.8474   20817085.7774
        -0.000          -0.000
 99  3 29  0 32  0.0000000  0  8 10 26  5 23 25 17 30  6             0.000486139
 -10031934.226 9  -7439145.00847  22367694.549    22367693.6984   22367702.9254
        -0.000          -0.000
   -774361.441 8    -80065.83952         0.000           0.0004          0.0005
        -0.000          -0.000
   3319020.019 9   2942749.84746  23264090.022    23264089.5264   23264100.0804
        -0.000          -0.000
  -5660954.099 9  -4161867.31945  24083633.885    24083633.1384   24083648.5404
        -0.000          -0.000
    456871.872 8     96464.95152         0.000           0.0004          0.0005
        -0.000          -0.000
 -13807439.661 9 -10351094.14347  22496946.151    22496945.3194   22496954.9194
        -0.000          -0.000
  -9931560.123 9  -7725843.20248  21318520.798    21318520.9454   21318528.6474
        -0.000          -0.000
 -19708574.904 9 -15211666.33849  20811851.765    20811851.5754   20811859.5114
        -0.000          -0.000
 99  3 29  0 32 30.0000000  0  8 10 26  5 23 25 17 30  6             0.000493377
  -9941891.311 9  -7368981.72147  22384829.095    22384828.2364   22384837.3664
        -0.000          -0.000
   -844637.225 8   -134824.46052         0.000           0.0004          0.0005
        -0.000          -0.000
   3433762.873 9   3032159.73346  23285924.736    23285924.3104   23285935.0624
        -0.000          -0.000
  -5752114.348 9  -4232901.00645  24066286.498    24066285.8674   24066300.7044
        -0.000          -0.000
    510418.63318     10137.12852         0.000           0.0005          0.0005
        -0.000          -0.000
 -13850200.286 9 -10384414.03347  22488809.171    22488808.2224   22488817.8374
        -0.000          -0.000
  -9857487.964 9  -7668124.66848  21332616.371    21332616.5174   21332624.1584
        -0.000          -0.000
 -19735791.336 9 -15232873.92849  20806672.606    20806672.4604   20806680.3174
        -0.000          -0.000
 99  3 29  0 33  0.0000000  0  8 10 26  5 23 25 17 30  6             0.000500630
  -9851486.976 9  -7298536.81247  22402032.378    22402031.5564   22402040.6234
        -0.000          -0.000
   -914805.13918    -20557.70052         0.000           0.0005          0.0005
        -0.000          -0.000
   3548628.402 9   3121665.23446  23307782.915    23307782.5374   23307793.2704
        -0.000          -0.000
  -5843140.822 9  -4303830.44845  24048964.671    24048964.2094   24048978.4214
        -0.000          -0.000
    564188.917 7     52035.99352         0.000           0.0004          0.0005
        -0.000          -0.000
 -13892746.842 9 -10417567.13147  22480712.723    22480711.8874   22480721.4784
        -0.000          -0.000
  -9782959.777 9  -7610050.78048  21346798.608    21346798.7794   21346806.4704
        -0.000          -0.000
 -19762756.388 9 -15253885.62949  20801541.426    20801541.2624   20801549.0094
        -0.000          -0.000
 99  3 29  0 33 30.0000000  0  7 10 26  5 23 17 30  6                0.000507904
  -9760702.324 9  -7227795.57047  22419308.203    22419307.3964   22419316.4584
        -0.000          -0.000
   -984899.703 8    -75177.01852         0.000           0.0004          0.0005
        -0.000          -0.000
   3663623.132 9   3211271.40346  23329665.823    23329665.4294   23329676.0524
        -0.000          -0.000
  -5934034.480 9  -4374656.41945  24031668.028    24031667.5444   24031681.3174
        -0.000          -0.000
 -13935068.305 9 -10450544.81647  22472659.192    22472658.3934   22472668.0214
        -0.000          -0.000
  -9707981.003 9  -7551625.79248  21361066.652    21361066.9014   21361074.6244
        -0.000          -0.000
 -19789467.453 9 -15274699.41449  20796458.532    20796458.3224   20796466.0564
        -0.000          -0.000
 99  3 29  0 34  0.0000000  0  7 10 26  5 23 17 30  6                0.000515198
  -9669524.990 9  -7156748.34947  22436658.777    22436657.9454   22436667.0574
        -0.000          -0.000
  -1054913.891 8   -129733.26152         0.000           0.0004          0.0005
        -0.000          -0.000
   3778782.103 9   3301005.56646  23351580.087    23351579.6784   23351590.0684
        -0.000          -0.000
  -6024781.300 9  -4445367.95845  24014399.234    24014398.6594   24014412.2024
        -0.000          -0.000
 -13977145.792 9 -10483332.38847  22464652.189    22464651.2664   22464660.9644
        -0.000          -0.000
  -9632537.148 9  -7492838.40548  21375423.242    21375423.4924   21375431.2994
        -0.000          -0.000
 -19815889.337 9 -15295287.87449  20791430.603    20791430.3624   20791438.1104
        -0.000          -0.000
 99  3 29  0 34 30.0000000  0  7 10 26  5 23 17 30  6                0.000522503
  -9577989.294 9  -7085421.87447  22454077.523    22454076.6864   22454085.8484
        -0.000          -0.000
  -1124848.56718   -184227.62855  23861218.952    23861217.2435   23861229.6065
        -0.000          -0.000
   3894095.775 9   3390860.29146  23373523.671    23373523.3364   23373533.6604
        -0.000          -0.000
  -6115371.559 9  -4515957.51545  23997160.029    23997159.6434   23997173.0874
        -0.000          -0.000
 -14018996.418 9 -10515943.19647  22456688.057    22456687.2694   22456696.8664
        -0.000          -0.000
  -9556644.784 9  -7433701.54148  21389865.146    21389865.3544   21389873.1944
        -0.000          -0.000
 -19842023.426 9 -15315652.07749  20786457.486    20786457.2954   20786464.9024
        -0.000          -0.000
 99  3 29  0 35  0.0000000  0  7 10 26  5 23 17 30  6                0.000529811
  -9486099.161 9  -7013819.20747  22471563.708    22471562.8314   22471572.1254
        -0.000          -0.000
  -1194703.763 8   -238660.08745  23847925.758    23847925.3754   23847935.8034
        -0.000          -0.000
   4009547.669 9   3480822.70346  23395493.677    23395493.2374   23395503.6234
        -0.000          -0.000
  -6205801.013 9  -4586421.78146  23979951.749    23979951.3264   23979964.6714
        -0.000          -0.000
 -14060632.249 9 -10548386.62147  22448765.027    22448764.2744   22448773.5524
        -0.000          -0.000
  -9480296.217 9  -7374209.18448  21404393.718    21404393.9374   21404401.8894
        -0.000          -0.000
 -19867864.234 9 -15335787.73949  20781540.202    20781539.9494   20781547.5114
        -0.000          -0.000
 99  3 29  0 35 30.0000000  0  7 10 26  5 23 17 30  6                0.000537123
  -9393833.982 9  -6941924.28947  22489121.294    22489120.4164   22489129.7084
        -0.000          -0.000
  -1264452.096 8   -293009.26045  23834652.492    23834650.2454   23834663.8574
        -0.000          -0.000
   4125160.300 9   3570910.34746  23417494.283    23417493.7574   23417504.2054
        -0.000          -0.000
  -6296040.206 9  -4656737.78146  23962779.616    23962779.2434   23962792.8654
        -0.000          -0.000
 -14102039.917 9 -10580652.26747  22440885.407    22440884.6394   22440893.7794
        -0.000          -0.000
  -9403459.273 9  -7314336.28648  21419015.362    21419015.5544   21419023.5204
        -0.000          -0.000
 -19893382.396 9 -15355672.00049  20776684.073    20776683.8514   20776691.5304
        -0.000          -0.000
 99  3 29  0 36  0.0000000  0  7 10 26  5 23 17 30  6                0.000544410
  -9301257.353 9  -6869786.68547  22506738.016    22506737.1704   22506746.4804
        -0.000          -0.000
  -1334110.620 8   -347288.50645  23821396.073    23821394.4524   23821408.2294
        -0.000          -0.000
   4240879.793 9   3661081.27746  23439514.959    23439514.3634   23439524.9954
        -0.000          -0.000
  -6386116.444 9  -4726926.78546  23945638.680    23945638.1604   23945651.9774
        -0.000          -0.000
 -14143277.339 9 -10612785.25347  22433038.015    22433037.3424   22433046.5044
        -0.000          -0.000
  -9326179.620 9  -7254118.40748  21433721.472    21433721.5534   21433729.3974
        -0.000          -0.000
 -19918629.990 9 -15375345.43649  20771879.425    20771879.2674   20771887.0374
        -0.000          -0.000
 99  3 29  0 36 30.0000000  0  7 10 26  5 23 17 30  6                0.000551677
  -9208366.365 9  -6797404.13047  22524414.455    22524413.6434   22524422.9824
        -0.000          -0.000
  -1403673.710 8   -401493.39845  23808158.083    23808157.0054   23808170.5984
        -0.000          -0.000
   4356673.745 9   3751310.23946  23461549.599    23461549.0384   23461559.9104
        -0.000          -0.000
  -6476024.366 9  -4796984.64846  23928529.913    23928529.2144   23928542.8654
        -0.000          -0.000
 -14184362.589 9 -10644799.65847  22425219.640    22425218.9944   22425228.1624
        -0.000          -0.000
  -9248462.632 9  -7193559.74448  21448510.675    21448510.7254   21448518.4254
        -0.000          -0.000
 -19943618.621 9 -15394817.07349  20767124.259    20767124.1094   20767131.7664
        -0.000          -0.000
 99  3 29  0 37  0.0000000  0  8 22 10 26  5 23 17 30  6             0.000558930
   -210315.82818   -150951.78852         0.000           0.0005   25098254.0915
        -0.000          -0.000
  -9115130.814 9  -6724753.08747  22542156.629    22542155.7714   22542165.0644
        -0.000          -0.000
  -1473139.414 8   -455622.36945  23794939.301    23794938.7854   23794951.4154
        -0.000          -0.000
   4472543.791 9   3841598.49346  23483598.943    23483598.3834   23483609.4214
        -0.000          -0.000
  -6565770.001 9  -4866916.03246  23911451.924    23911450.9984   23911464.6014
        -0.000          -0.000
 -14225284.718 9 -10676686.96047  22417432.297    22417431.6754   22417440.8554
        -0.000          -0.000
  -9170303.659 9  -7132656.66548  21463383.876    21463383.8894   21463391.5404
        -0.000          -0.000
 -19968331.005 9 -15414073.45149  20762421.658    20762421.5154   20762429.0104
        -0.000          -0.000
 99  3 29  0 37 30.0000000  0  8 22 10 26  5 23 17 30  6             0.000566186
   -282194.97218   -206961.48145         0.000           0.0005   25084578.3574
        -0.000          -0.000
  -9021524.570 9  -6651813.16947  22559969.296    22559968.4694   22559977.7084
        -0.000          -0.000
  -1542484.694 8   -509657.47545  23781743.030    23781742.7834   23781755.3984
        -0.000          -0.000
   4588515.823 9   3931966.20046  23505667.720    23505667.0564   23505678.5194
        -0.000          -0.000
  -6655335.660 9  -4936707.20046  23894407.556    23894406.8574   23894420.6634
        -0.000          -0.000
 -14266016.431 9 -10708425.88548  22409681.506    22409680.6714   22409689.9464
        -0.000          -0.000
  -9091690.542 9  -7071399.72548  21478343.416    21478343.3534   21478351.0424
        -0.000          -0.000
 -19992740.458 9 -15433093.77649  20757776.699    20757776.5704   20757784.0144
        -0.000          -0.000
 99  3 29  0 38  0.0000000  0  8 22 10 26  5 23 17 30  6             0.000573416
   -353819.42418   -262772.78045  25070934.871    25070936.0225   25070947.7514
        -0.000          -0.000
  -8927590.308 9  -6578617.67347  22577844.388    22577843.5844   22577852.7394
        -0.000          -0.000
  -1611744.163 9   -563625.78445  23768563.177    23768563.0564   23768575.6234
        -0.000          -0.000
   4704527.016 9   4022364.41646  23527743.936    23527743.2634   23527755.0454
        -0.000          -0.000
  -6744783.317 9  -5006406.42446  23877385.614    23877385.1714   23877399.1884
        -0.000          -0.000
 -14306604.170 9 -10740052.63148  22401957.805    22401956.9684   22401966.3704
        -0.000          -0.000
  -9012679.427 9  -7009832.67148  21493378.627    21493378.6044   21493386.2974
        -0.000          -0.000
 -20016888.062 9 -15451910.06549  20753181.595    20753181.4124   20753188.8964
        -0.000          -0.000
 99  3 29  0 38 30.0000000  0  8 22 10 26  5 23 17 30  6             0.000580632
   -425123.617 8   -318334.47045  25057366.689    25057365.8874   25057379.0254
        -0.000          -0.000
  -8833282.686 9  -6505131.25147  22595790.541    22595789.7504   22595798.6764
        -0.000          -0.000
  -1680889.436 9   -617505.10946  23755405.340    23755405.3454   23755417.8724
        -0.000          -0.000
   4820614.874 9   4112822.37146  23549834.449    23549833.9994   23549846.2854
        -0.000          -0.000
  -6834092.281 9  -5075997.58146  23860390.380    23860390.0164   23860403.9694
        -0.000          -0.000
 -14346998.896 9 -10771528.97848  22394270.830    22394270.0394   22394279.3384
        -0.000          -0.000
  -8933225.595 9  -6947920.63548  21508498.226    21508498.1864   21508505.8974
        -0.000          -0.000
 -20040720.159 9 -15470480.51449  20748646.421    20748646.2614   20748653.7874
        -0.000          -0.000
 99  3 29  0 39  0.0000000  0  8 22 10 26  5 23 17 30  6             0.000587855
   -496078.151 8   -373623.61645  25043864.384    25043863.4944   25043876.9454
        -0.000          -0.000
  -8738596.711 9  -6431350.00447  22613808.785    22613807.9964   22613816.6524
        -0.000          -0.000
  -1749898.047 9   -671277.92146  23742273.442    23742273.5364   23742286.0024
        -0.000          -0.000
   4936814.341 9   4203367.30846  23571946.263    23571946.0214   23571958.4674
        -0.000          -0.000
  -6923244.130 9  -5145466.29346  23843425.244    23843424.7914   23843438.6494
        -0.000          -0.000
 -14387163.494 9 -10802826.00847  22386627.653    22386626.8314   22386636.0904
        -0.000          -0.000
  -8853316.909 9  -6885654.16248  21523704.314    21523704.3104   21523712.1534
        -0.000          -0.000
 -20064221.128 9 -15488792.93049  20744174.292    20744174.1274   20744181.6874
        -0.000          -0.000
 99  3 29  0 39 30.0000000  0  8 22 10 26  5 23 17 30  6             0.000595059
   -566720.350 8   -428669.44645  25030421.603    25030420.8104   25030434.4994
        -0.000          -0.000
  -8643598.627 9  -6357325.56147  22631886.499    22631885.7114   22631894.1584
        -0.000          -0.000
  -1818797.785 9   -724965.89746  23729162.135    23729162.2934   23729174.6514
        -0.000          -0.000
   5053099.255 9   4293978.82346  23594074.528    23594074.3624   23594086.6324
        -0.000          -0.000
  -7012253.505 9  -5214824.00246  23826487.131    23826486.6374   23826500.3634
        -0.000          -0.000
 -14427132.098 9 -10833970.30647  22379021.604    22379020.8074   22379030.2544
        -0.000          -0.000
  -8772987.977 9  -6823060.22148  21538990.218    21538990.3084   21538998.4084
        -0.000          -0.000
 -20087436.713 9 -15506882.97149  20739756.467    20739756.2964   20739763.9104
        -0.000          -0.000
 99  3 29  0 40  0.0000000  0  8 22 10 26  5 23 17 30  6             0.000602281
   -636993.750 8   -483427.84445  25017049.300    25017048.5474   25017061.7644
        -0.000          -0.000
  -8548250.895 9  -6283028.65647  22650030.795    22650029.9104   22650038.2374
        -0.000          -0.000
  -1887536.199 9   -778528.15246  23716081.773    23716082.0384   23716093.9334
        -0.000          -0.000
   5169517.694 9   4384694.39646  23616227.887    23616227.9164   23616240.0504
        -0.000          -0.000
  -7101049.744 9  -5284015.65146  23809589.442    23809589.0054   23809602.5634
        -0.000          -0.000
 -14466852.331 9 -10864921.07847  22371462.568    22371461.9804   22371471.6534
        -0.000          -0.000
  -8692188.500 9  -6760099.62048  21554365.581    21554365.8134   21554374.0904
        -0.000          -0.000
 -20110317.090 9 -15524711.81449  20735402.457    20735402.2804   20735409.9604
        -0.000          -0.000
 99  3 29  0 40 30.0000000  0  8 22 10 26  5 23 17 30  6             0.000609509
   -706941.709 8   -537932.64445  25003738.683    25003738.0814   25003751.1804
        -0.000          -0.000
  -8452598.713 9  -6208494.51347  22668232.823    22668231.8704   22668240.1074
        -0.000          -0.000
  -1956157.694 8   -831999.33146  23703023.589    23703023.8184   23703035.7204
        -0.000          -0.000
   5286040.005 9   4475490.89646  23638401.156    23638401.2854   23638413.3594
        -0.000          -0.000
  -7189647.230 8  -5353052.40146  23792729.226    23792728.9584   23792742.6654
        -0.000          -0.000
 -14506360.950 9 -10895706.95347  22363943.998    22363943.5144   22363953.3454
        -0.000          -0.000
  -8610961.986 9  -6696806.26848  21569822.473    21569822.6824   21569830.9884
        -0.000          -0.000
 -20132908.694 9 -15542315.64249  20731103.417    20731103.2564   20731110.9304
        -0.000          -0.000
 99  3 29  0 41  0.0000000  0  8 22 10 26  5 23 17 30  6             0.000616743
   -776601.160 8   -592212.63445  24990483.166    24990482.7284   24990495.2924
        -0.000          -0.000
  -8356677.386 9  -6133750.65147  22686485.977    22686485.0534   22686493.2194
        -0.000          -0.000
  -2024677.315 8   -885391.18645  23689984.483    23689984.7054   23689996.5874
        -0.000          -0.000
   5402645.393 9   4566352.11646  23660590.603    23660590.6044   23660602.5174
        -0.000          -0.000
  -7278055.293 9  -5421941.57946  23775905.474    23775905.2334   23775918.8564
        -0.000          -0.000
 -14545684.770 9 -10926348.82948  22356461.026    22356460.4754   22356470.3724
        -0.000          -0.000
  -8529348.924 9  -6633211.72148  21585353.160    21585353.3204   21585361.6264
        -0.000          -0.000
 -20155242.762 9 -15559718.78649  20726853.456    20726853.2984   20726860.9574
        -0.000          -0.000
 99  3 29  0 41 30.0000000  0  8 22 10 26  5 23 17 30  6             0.000624003
   -845937.605 8   -646240.89445  24977289.116    24977288.4834   24977301.1214
        -0.000          -0.000
  -8260438.941 9  -6058759.67947  22704799.727    22704798.7654   22704806.7464
        -0.000          -0.000
  -2093052.870 9   -938670.71445  23676973.254    23676973.3524   23676984.9054
        -0.000          -0.000
   5519359.650 9   4657298.18546  23682800.882    23682800.7874   23682812.4304
        -0.000          -0.000
  -7366239.626 9  -5490656.40446  23759124.660    23759124.0714   23759137.3774
        -0.000          -0.000
 -14584792.217 9 -10956822.10748  22349019.164    22349018.5274   22349028.5484
        -0.000          -0.000
  -8447308.410 9  -6569284.09248  21600965.071    21600965.1934   21600973.5834
        -0.000          -0.000
 -20177276.740 9 -15576888.10249  20722660.647    20722660.4314   20722668.0774
        -0.000          -0.000
 99  3 29  0 42  0.0000000  0  8 22 10 26  5 23 17 30  6             0.000631259
   -914996.946 8   -700053.20845  24964148.060    24964147.0304   24964159.6274
        -0.000          -0.000
  -8163902.945 9  -5983536.85447  22723170.093    22723169.1374   22723177.0284
        -0.000          -0.000
  -2161330.578 9   -991873.99345  23663980.603    23663980.6374   23663991.8964
        -0.000          -0.000
   5636116.372 9   4748277.35146  23705019.310    23705019.0574   23705030.5834
        -0.000          -0.000
  -7454264.279 9  -5559246.81346  23742373.971    23742373.5674   23742386.3844
        -0.000          -0.000
 -14623739.130 9 -10987170.29948  22341607.644    22341607.1774   22341617.1254
        -0.000          -0.000
  -8364887.005 9  -6505059.65748  21616649.082    21616649.3454   21616657.8484
        -0.000          -0.000
 -20199056.091 9 -15593859.00249  20718516.194    20718516.0104   20718523.6874
        -0.000          -0.000
 99  3 29  0 42 30.0000000  0  8 22 10 26  5 23 17 30  6             0.000638522
   -983738.277 8   -753617.74145  24951067.353    24951065.8274   24951078.2644
        -0.000          -0.000
  -8067030.125 9  -5908051.58447  22741604.567    22741603.5454   22741611.5044
        -0.000          -0.000
  -2229472.284 9  -1044971.29246  23651013.584    23651013.6044   23651024.6524
        -0.000          -0.000
   5752946.393 9   4839313.62046  23727251.314    23727251.0754   23727262.7304
        -0.000          -0.000
  -7542106.941 9  -5627695.40646  23725658.155    23725657.6494   23725670.0874
        -0.000          -0.000
 -14662501.206 9 -11017374.44448  22334231.689    22334231.0234   22334240.8414
        -0.000          -0.000
  -8282046.758 9  -6440508.84548  21632412.967    21632413.2524   21632421.8514
        -0.000          -0.000
 -20220544.560 9 -15610603.23349  20714427.084    20714426.8514   20714434.5824
        -0.000          -0.000
 99  3 29  0 43  0.0000000  0  8 22 10 26  5 23 17 30  6             0.000645782
  -1052154.246 8   -806928.72045  24938048.225    24938046.6794   24938059.0854
        -0.000          -0.000
  -7969815.747 9  -5832300.15447  22760103.848    22760102.8494   22760110.8514
        -0.000          -0.000
  -2297460.804 9  -1097949.21646  23638075.688    23638075.7114   23638086.6444
        -0.000          -0.000
   5869853.491 8   4930409.94046  23749497.669    23749497.5164   23749509.5654
        -0.000          -0.000
  -7629763.787 9  -5695999.21146  23708977.705    23708976.9174   23708989.4414
        -0.000          -0.000
 -14701072.531 9 -11047429.94748  22326891.870    22326891.2054   22326900.9634
        -0.000          -0.000
  -8198776.866 9  -6375623.25248  21648258.661    21648258.9424   21648267.6294
        -0.000          -0.000
 -20241716.363 9 -15627100.71849  20710398.149    20710397.9404   20710405.6234
        -0.000          -0.000
 99  3 29  0 43 30.0000000  0  8 22 10 26  5 23 17 30  6             0.000653024
  -1120253.498 8   -859992.92045  24925089.098    24925088.0204   24925099.9304
        -0.000          -0.000
  -7872258.874 9  -5756281.83147  22778668.339    22778667.3564   22778675.2824
        -0.000          -0.000
  -2365295.197 9  -1150807.04546  23625167.339    23625167.3474   23625178.1864
        -0.000          -0.000
   5986821.605 8   5021553.84946  23771755.987    23771755.7764   23771768.0604
        -0.000          -0.000
  -7717246.105 9  -5764167.03246  23692330.119    23692329.2824   23692342.2074
        -0.000          -0.000
 -14739471.237 9 -11077350.95648  22319584.784    22319584.1144   22319593.8184
        -0.000          -0.000
  -8115071.458 9  -6310398.30148  21664187.307    21664187.5954   21664196.2874
        -0.000          -0.000
 -20262572.455 9 -15643352.19349  20706429.231    20706429.0574   20706436.6774
        -0.000          -0.000
 99  3 29  0 44  0.0000000  0  8 22 10 26  5 23 17 30  6             0.000660244
  -1188026.879 8   -912803.19645  24912191.820    24912191.0994   24912202.9054
        -0.000          -0.000
  -7774367.812 9  -5680003.11547  22797296.517    22797295.5214   22797303.3564
        -0.000          -0.000
  -2432972.848 9  -1203542.73146  23612288.897    23612288.8234   23612299.2454
        -0.000          -0.000
   6103861.588 9   5112753.72345  23794027.899    23794027.7384   23794040.1534
        -0.000          -0.000
  -7804537.960 9  -5832186.44446  23675718.419    23675717.8524   23675731.1374
        -0.000          -0.000
 -14777689.019 9 -11107130.98948  22312312.128    22312311.4984   22312321.0324
        -0.000          -0.000
  -8030923.626 9  -6244828.60548  21680200.210    21680200.5494   21680209.0954
        -0.000          -0.000
 -20283098.796 9 -15659346.71949  20702523.171    20702522.9924   20702530.5544
        -0.000          -0.000
 99  3 29  0 44 30.0000000  0  8 22 10 26  5 23 17 30  6             0.000667458
  -1255459.285 8   -965347.79445  24899359.727    24899359.1424   24899371.0074
        -0.000          -0.000
  -7676156.221 9  -5603474.63647  22815985.494    22815984.5734   22815992.5704
        -0.000          -0.000
  -2500475.625 9  -1256142.16846  23599443.536    23599443.5054   23599453.6284
        -0.000          -0.000
   6220992.555 9   5204024.49945  23816317.213    23816317.1764   23816329.4824
        -0.000          -0.000
  -7891606.284 9  -5900031.66846  23659149.788    23659149.2014   23659162.4254
        -0.000          -0.000
 -14815696.172 9 -11136746.90248  22305079.675    22305079.0354   22305088.3544
        -0.000          -0.000
  -7946328.226 9  -6178910.15148  21696298.540    21696298.7644   21696307.0474
        -0.000          -0.000
 -20303274.960 9 -15675068.39449  20698683.697    20698683.5694   20698690.9854
        -0.000          -0.000
 99  3 29  0 45  0.0000000  0  8 22 10 26  5 23 17 30  6             0.000674652
  -1322581.663 8  -1017650.79745  24886586.412    24886585.8754   24886597.9704
        -0.000          -0.000
  -7577664.305 9  -5526727.72147  22834727.786    22834726.8684   22834735.1004
        -0.000          -0.000
  -2567822.250 9  -1308619.93946  23586627.964    23586627.8474   23586637.7604
        -0.000          -0.000
   6338179.404 9   5295338.78146  23838617.552    23838617.4484   23838629.7894
        -0.000          -0.000
  -7978482.201 9  -5967726.96846  23642618.059    23642617.3764   23642630.3514
        -0.000          -0.000
 -14853514.866 9 -11166215.96148  22297883.061    22297882.4474   22297891.5534
        -0.000          -0.000
  -7861321.024 9  -6112670.80648  21712475.060    21712475.2064   21712483.4804
        -0.000          -0.000
 -20323138.946 9 -15690546.81549  20694903.728    20694903.6064   20694910.9224
        -0.000          -0.000
 99  3 29  0 45 30.0000000  0  8 22 10 26  5 23 17 30  6             0.000681839
  -1389391.859 8  -1069710.57245  24873872.750    24873871.9984   24873884.1974
        -0.000          -0.000
  -7478892.185 9  -5449762.46246  22853523.330    22853522.4364   22853530.8344
        -0.000          -0.000
  -2635021.318 9  -1360982.73846  23573840.329    23573840.2604   23573850.1544
        -0.000          -0.000
   6455401.534 8   5386680.57346  23860924.387    23860924.2754   23860936.4484
        -0.000          -0.000
  -8065163.373 9  -6035270.51346  23626122.924    23626122.4164   23626135.4014
        -0.000          -0.000
 -14891137.240 9 -11195532.02748  22290723.867    22290723.2234   22290732.1844
        -0.000          -0.000
  -7775909.615 9  -6046116.48748  21728728.332    21728728.4354   21728736.7104
        -0.000          -0.000
 -20342706.144 9 -15705793.97049  20691180.350    20691180.1844   20691187.4234
        -0.000          -0.000
 99  3 29  0 46  0.0000000  0  8 22 10 26  5 23 17 30  6             0.000689039
  -1455849.526 8  -1121495.59945  24861225.849    24861225.3724   24861237.6184
        -0.000          -0.000
  -7379826.655 9  -5372568.58646  22872374.881    22872373.9254   22872382.4164
        -0.000          -0.000
  -2702054.868 9  -1413216.56746  23561084.091    23561083.9914   23561093.7914
        -0.000          -0.000
   6572685.072 8   5478070.23746  23883242.662    23883242.6354   23883254.8314
        -0.000          -0.000
  -8151621.360 9  -6102640.17346  23609670.309    23609669.8964   23609682.7494
        -0.000          -0.000
 -14928523.643 9 -11224664.23248  22283609.490    22283608.8684   22283617.8244
        -0.000          -0.000
  -7690080.295 9  -5979236.54848  21745061.098    21745061.2274   21745069.3374
        -0.000          -0.000
 -20361943.841 9 -15720784.36749  20687519.694    20687519.4584   20687526.7064
        -0.000          -0.000
 99  3 29  0 46 30.0000000  0  8 22 10 26  5 23 17 30  6             0.000696251
  -1521959.462 8  -1173009.72745  24848645.581    24848645.1114   24848657.0384
        -0.000          -0.000
  -7280472.915 9  -5295150.10446  22891281.133    22891280.2674   22891288.9254
        -0.000          -0.000
  -2768920.598 9  -1465319.60046  23548359.839    23548359.6704   23548369.3394
        -0.000          -0.000
   6690008.465 9   5569490.95846  23905568.683    23905568.7094   23905580.7984
        -0.000          -0.000
  -8237874.305 9  -6169850.05446  23593257.031    23593256.3194   23593269.1354
        -0.000          -0.000
 -14965694.886 9 -11253628.78348  22276535.920    22276535.3264   22276544.4454
        -0.000          -0.000
  -7603860.940 9  -5912052.68248  21761468.246    21761468.3394   21761476.2524
        -0.000          -0.000
 -20380868.382 9 -15735530.75049  20683918.433    20683918.1824   20683925.5284
        -0.000          -0.000
 99  3 29  0 47  0.0000000  0  8 22 10 26  5 23 17 30  6             0.000703471
  -1587737.525 8  -1224265.26045  24836128.435    24836128.0774   24836139.6924
        -0.000          -0.000
  -7180826.353 9  -5217503.46346  22910243.166    22910242.2694   22910251.1714
        -0.000          -0.000
  -2835624.851 8  -1517296.81745  23535666.305    23535666.1284   23535675.9714
        -0.000          -0.000
   6807354.768 9   5660929.53046  23927899.275    23927899.1294   23927911.0494
        -0.000          -0.000
  -8323944.534 9  -6236917.56446  23576878.636    23576877.5684   23576890.2574
        -0.000          -0.000
 -15002666.979 9 -11282438.13548  22269500.293    22269499.7164   22269508.9134
        -0.000          -0.000
  -7517266.617 9  -5844576.61848  21777946.671    21777946.7214   21777954.6014
        -0.000          -0.000
 -20399490.772 9 -15750041.68649  20680374.611    20680374.3854   20680381.9114
        -0.000          -0.000
 99  3 29  0 47 30.0000000  0  8 22 10 26  5 23 17 30  6             0.000710701
  -1653162.735 8  -1275245.82245  24823678.007    24823677.6164   24823689.6254
        -0.000          -0.000
  -7080875.382 9  -5139619.62346  22929263.091    22929262.2634   22929271.3014
        -0.000          -0.000
  -2902160.960 9  -1569142.98945  23523004.760    23523004.6734   23523014.3524
        -0.000          -0.000
   6924747.765 9   5752404.49846  23950238.736    23950238.3854   23950250.3924
        -0.000          -0.000
  -8409815.398 9  -6303829.73846  23560537.494    23560536.7304   23560549.3534
        -0.000          -0.000
 -15039437.943 9 -11311090.77048  22262503.075    22262502.4004   22262511.5234
        -0.000          -0.000
  -7430295.831 9  -5776807.20248  21794496.587    21794496.6644   21794504.7204
        -0.000          -0.000
 -20417785.874 9 -15764297.59249  20676893.153    20676892.9554   20676900.4864
        -0.000          -0.000
 99  3 29  0 48  0.0000000  0  8 22 10 26  5 23 17 30  6             0.000717923
  -1718245.410 8  -1325959.47845  24811293.077    24811292.4204   24811304.5564
        -0.000          -0.000
  -6980654.315 9  -5061525.32746  22948334.563    22948333.6694   22948342.7594
        -0.000          -0.000
  -2968524.000 9  -1620854.28346  23510376.114    23510376.0464   23510385.5644
        -0.000          -0.000
   7042190.628 8   5843918.33246  23972587.388    23972587.0344   23972599.2954
        -0.000          -0.000
  -8495499.672 9  -6370596.52046  23544232.144    23544231.6384   23544243.8794
        -0.000          -0.000
 -15076041.964 9 -11339613.32448  22255537.475    22255536.8324   22255545.8954
        -0.000          -0.000
  -7342978.977 9  -5708768.13048  21811112.476    21811112.5414   21811120.6174
        -0.000          -0.000
 -20435766.383 9 -15778308.35549  20673471.569    20673471.3744   20673478.8784
        -0.000          -0.000
 99  3 29  0 48 30.0000000  0  8 22 10 26  5 23 17 30  6             0.000725160
  -1782966.451 8  -1376391.39345  24798977.077    24798976.4364   24798988.2854
        -0.000          -0.000
  -6880140.013 9  -4983202.53246  22967461.884    22967460.9574   22967470.0344
        -0.000          -0.000
  -3034675.999 9  -1672401.15046  23497787.471    23497787.5004   23497797.4274
        -0.000          -0.000
   7159705.890 9   5935488.60546  23994949.642    23994949.2534   23994961.9174
        -0.000          -0.000
  -8580966.211 9  -6437193.61646  23527968.618    23527967.8274   23527979.8714
        -0.000          -0.000
 -15112464.393 9 -11367994.36748  22248606.501    22248605.8414   22248614.8824
        -0.000          -0.000
  -7255297.058 9  -5640444.59648  21827797.858    21827797.8904   21827805.9994
        -0.000          -0.000
 -20453416.622 9 -15792061.77549  20670112.871    20670112.6784   20670120.1484
        -0.000          -0.000
 99  3 29  0 49  0.0000000  0  8 22 10 26  5 23 17 30  6             0.000732374
  -1847354.171 8  -1426563.58445  24786724.840    24786723.9584   24786735.3664
        -0.000          -0.000
  -6779380.716 9  -4904688.84246  22986635.972    22986635.0044   22986644.0234
        -0.000          -0.000
  -3100656.956 9  -1723814.72246  23485231.507    23485231.6324   23485241.5704
        -0.000          -0.000
   7277268.873 9   6027096.04346  24017321.079    24017320.7454   24017333.6504
        -0.000          -0.000
  -8666241.222 9  -6503641.49846  23511740.745    23511740.1724   23511752.2884
        -0.000          -0.000
 -15148738.104 9 -11396259.53548  22241703.761    22241703.1294   22241712.0404
        -0.000          -0.000
  -7167275.162 9  -5571856.15648  21844547.792    21844547.8644   21844556.1454
        -0.000          -0.000
 -20470757.117 9 -15805573.83049  20666813.177    20666812.9734   20666820.4154
        -0.000          -0.000
 99  3 29  0 49 30.0000000  0  8 22 10 26  5 23 17 30  6             0.000739580
  -1911350.666 8  -1476430.93145  24774546.747    24774546.0604   24774556.8614
        -0.000          -0.000
  -6678354.862 9  -4825967.42446  23005860.688    23005859.7054   23005868.6954
        -0.000          -0.000
  -3166426.703 9  -1775063.75046  23472715.778    23472715.9174   23472725.9234
        -0.000          -0.000
   7394924.169 9   6118775.38446  24039710.316    24039710.0144   24039722.7634
        -0.000          -0.000
  -8751272.865 9  -6569899.72546  23495559.335    23495558.8744   23495570.9804
        -0.000          -0.000
 -15184840.764 9 -11424391.40548  22234833.832    22234833.0064   22234841.8434
        -0.000          -0.000
  -7078876.091 9  -5502973.80448  21861369.613    21861369.6694   21861377.9284
        -0.000          -0.000
 -20487744.782 9 -15818810.95049  20663580.581    20663580.3414   20663587.7344
        -0.000          -0.000
 99  3 29  0 50  0.0000000  0  8 22 10 26  5 23 17 30  6             0.000746748
  -1975009.402 8  -1526035.04545  24762432.770    24762431.8874   24762442.6644
        -0.000          -0.000
  -6577115.620 9  -4747079.74246  23025125.916    23025124.9184   23025133.8124
        -0.000          -0.000
  -3232028.911 9  -1826182.22546  23460231.824    23460232.0894   23460242.3354
        -0.000          -0.000
   7512595.281 9   6210467.03745  24062103.059    24062102.5724   24062114.7424
        -0.000          -0.000
  -8836101.091 9  -6635999.43846  23479417.133    23479416.4884   23479428.4534
        -0.000          -0.000
 -15220808.264 9 -11452417.96648  22227989.368    22227988.5244   22227997.4024
        -0.000          -0.000
  -6990136.468 9  -5433826.09248  21878256.109    21878256.2384   21878264.4414
        -0.000          -0.000
 -20504431.907 9 -15831813.88449  20660405.042    20660404.8594   20660412.2004
        -0.000          -0.000
 99  3 29  0 50 30.0000000  0  8 22 10 26  5 23 17 30  6             0.000753898
  -2038297.819 8  -1575350.60345  24750389.246    24750388.6024   24750398.9064
        -0.000          -0.000
  -6475610.336 9  -4667984.74146  23044441.586    23044440.6064   23044449.4504
        -0.000          -0.000
  -3297442.012 9  -1877153.33746  23447784.000    23447784.3574   23447794.7034
        -0.000          -0.000
   7630299.241 9   6302184.27045  24084501.925    24084501.2854   24084512.6134
        -0.000          -0.000
  -8920698.485 9  -6701919.28946  23463318.821    23463318.1734   23463329.8494
        -0.000          -0.000
 -15256587.293 9 -11480297.66448  22221180.645    22221179.8784   22221188.8084
        -0.000          -0.000
  -6901004.529 9  -5364372.66348  21895217.368    21895217.4864   21895225.6214
        -0.000          -0.000
 -20520774.574 9 -15844548.40749  20657295.103    20657294.8824   20657302.2394
        -0.000          -0.000
 99  3 29  0 51  0.0000000  0  8 22 10 26  5 23 17 30  6             0.000761039
  -2101208.828 8  -1624372.03945  24738417.507    24738416.8414   24738427.2334
        -0.000          -0.000
  -6373831.581 9  -4588676.62746  23063809.349    23063808.4384   23063817.3784
        -0.000          -0.000
  -3362660.328 9  -1927972.69146  23435373.058    23435373.3894   23435383.6954
        -0.000          -0.000
   7748035.952 9   6393927.06745  24106907.011    24106906.1164   24106916.8424
        -0.000          -0.000
  -9005053.927 9  -6767650.61746  23447266.352    23447265.7264   23447277.4734
        -0.000          -0.000
 -15292161.380 9 -11508017.66648  22214411.059    22214410.3244   22214419.1324
        -0.000          -0.000
  -6811475.157 9  -5294609.54848  21912254.219    21912254.3424   21912262.4764
        -0.000          -0.000
 -20536759.830 9 -15857004.42449  20654253.197    20654252.9984   20654260.3134
        -0.000          -0.000
 99  3 29  0 51 30.0000000  0  8 22 10 26  5 23 17 30  6             0.000768276
  -2163749.834 8  -1673105.20845  24726516.674    24726515.8194   24726525.6334
        -0.000          -0.000
  -6271755.378 9  -4509136.76346  23083233.779    23083232.8114   23083242.0184
        -0.000          -0.000
  -3427669.438 9  -1978629.02546  23423002.041    23423002.4234   23423012.6294
        -0.000          -0.000
   7865799.617 9   6485690.88445  24129316.821    24129316.0014   24129326.4734
        -0.000          -0.000
  -9089148.904 9  -6833178.97546  23431263.456    23431262.8154   23431274.4834
        -0.000          -0.000
 -15327516.822 9 -11535567.29148  22207683.234    22207682.3814   22207691.0814
        -0.000          -0.000
  -6721540.595 9  -5224530.71048  21929368.083    21929368.1844   21929376.3994
        -0.000          -0.000
 -20552398.721 9 -15869190.53549  20651277.266    20651277.0294   20651284.2344
        -0.000          -0.000
 99  3 29  0 52  0.0000000  0  8 22 10 26  5 23 17 30  6             0.000775467
  -2225940.919 8  -1721565.72645  24714682.272    24714681.4724   24714691.0834
        -0.000          -0.000
  -6169364.454 9  -4429351.65446  23102718.156    23102717.1024   23102726.6254
        -0.000          -0.000
  -3492460.589 8  -2029115.52945  23410672.497    23410672.7904   23410683.0034
        -0.000          -0.000
   7983576.570 9   6577465.04845  24151729.132    24151728.3954   24151739.0074
        -0.000          -0.000
  -9172994.501 9  -6898513.02746  23415308.018    23415307.5704   23415318.8414
        -0.000          -0.000
 -15362641.846 9 -11562937.39048  22200999.215    22200998.3584   22201006.9394
        -0.000          -0.000
  -6631200.020 9  -5154135.49748  21946559.198    21946559.4434   21946567.6164
        -0.000          -0.000
 -20567689.272 9 -15881105.22049  20648367.544    20648367.3034   20648374.4854
        -0.000          -0.000
 99  3 29  0 52 30.0000000  0  8 22 10 26  5 23 17 30  6             0.000782648
  -2287798.236 8  -1769766.13145  24702911.446    24702910.3914   24702920.2364
        -0.000          -0.000
  -6066677.761 9  -4349336.07946  23122258.741    23122257.6844   23122267.2684
        -0.000          -0.000
  -3557052.078 9  -2079446.42745  23398381.034    23398381.3274   23398391.4074
        -0.000          -0.000
   8101370.821 9   6669252.68445  24174144.941    24174144.1284   24174154.7514
        -0.000          -0.000
  -9256625.558 9  -6963679.90346  23399393.436    23399393.0574   23399404.0674
        -0.000          -0.000
 -15397577.893 9 -11590160.20748  22194351.421    22194350.4414   22194358.7584
        -0.000          -0.000
  -6540492.377 9  -5083454.25348  21963820.571    21963820.7334   21963828.8134
        -0.000          -0.000
 -20582647.300 9 -15892760.80649  20645521.091    20645520.8934   20645528.0184
        -0.000          -0.000
 99  3 29  0 53  0.0000000  0  8 22 10 26  5 23 17 30  6             0.000789823
  -2349316.432 8  -1817702.31045  24691204.868    24691203.8164   24691214.2524
        -0.000          -0.000
  -5963710.673 9  -4269102.00746  23141852.683    23141851.6394   23141861.1014
        -0.000          -0.000
  -3621433.827 9  -2129613.86446  23386129.798    23386129.9794   23386139.8124
        -0.000          -0.000
   8219188.459 9   6761058.53745  24196565.311    24196564.4164   24196575.0004
        -0.000          -0.000
  -9340043.589 9  -7028680.77446  23383519.516    23383519.1264   23383529.9424
        -0.000          -0.000
 -15432352.645 9 -11617257.36348  22187734.183    22187733.0624   22187741.2744
        -0.000          -0.000
  -6449428.255 9  -5012495.24548  21981149.651    21981149.7474   21981157.8814
        -0.000          -0.000
 -20597285.257 9 -15904166.98149  20642735.670    20642735.3924   20642742.5394
        -0.000          -0.000
 99  3 29  0 53 30.0000000  0  8 22 10 26  5 23 17 30  6             0.000796994
  -2410493.476 8  -1865372.67045  24679563.152    24679562.0654   24679572.9294
        -0.000          -0.000
  -5860475.657 9  -4188659.18746  23161497.676    23161496.6194   23161506.0664
        -0.000          -0.000
  -3685597.486 9  -2179611.39646  23373920.034    23373920.2014   23373929.8694
        -0.000          -0.000
   8337026.623 9   6852880.36645  24218989.431    24218988.5724   24218998.9434
        -0.000          -0.000
  -9423260.493 9  -7093524.93046  23367683.833    23367683.3104   23367694.1984
        -0.000          -0.000
 -15466980.258 9 -11644239.85348  22181144.498    22181143.4844   22181151.8514
        -0.000          -0.000
  -6358009.616 9  -4941259.97148  21998546.026    21998546.0544   21998554.2894
        -0.000          -0.000
 -20611604.182 9 -15915324.55349  20640010.842    20640010.5484   20640017.7334
        -0.000          -0.000
 99  3 29  0 54  0.0000000  0  8 22 10 26  5 23 17 30  6             0.000804160
  -2471308.362 8  -1912760.79245  24667990.472    24667989.2174   24668000.4124
        -0.000          -0.000
  -5757007.811 9  -4108034.94546  23181187.034    23181186.0984   23181195.3574
        -0.000          -0.000
  -3749542.538 9  -2229438.58446  23361751.914    23361752.0564   23361761.5634
        -0.000          -0.000
   8454885.886 9   6944718.66045  24241417.467    24241416.6074   24241426.8834
        -0.000          -0.000
  -9506285.332 9  -7158219.45646  23351884.552    23351884.1574   23351895.1704
        -0.000          -0.000
 -15501459.606 9 -11671106.81048  22174582.985    22174582.1074   22174590.6844
        -0.000          -0.000
  -6266257.570 9  -4869764.89548  22016005.778    22016005.8964   22016014.1434
        -0.000          -0.000
 -20625591.863 9 -15926224.02349  20637348.990    20637348.7014   20637355.9354
        -0.000          -0.000
 99  3 29  0 54 30.0000000  0  8 22 10 26  5 23 17 30  6             0.000811348
  -2531703.771 8  -1959822.06045  24656497.444    24656496.3534   24656507.6344
        -0.000          -0.000
  -5653299.288 9  -4027223.17546  23200922.029    23200921.1864   23200930.5554
        -0.000          -0.000
  -3813235.321 9  -2279069.19046  23349631.491    23349631.5474   23349641.2104
        -0.000          -0.000
   8572792.242 9   7036593.63445  24263854.432    24263853.4844   24263863.9794
        -0.000          -0.000
  -9589064.945 9  -7222722.87446  23336132.050    23336131.6534   23336142.6364
        -0.000          -0.000
 -15535746.359 9 -11697823.69248  22168058.172    22168057.3644   22168066.1434
        -0.000          -0.000
  -6174138.173 9  -4797983.58848  22033535.627    22033535.7704   22033543.9444
        -0.000          -0.000
 -20639220.442 9 -15936843.68249  20634755.447    20634755.1874   20634762.4764
        -0.000          -0.000
 99  3 29  0 55  0.0000000  0  8 22 10 26  5 23 17 30  6             0.000818540
  -2591694.067 8  -2006567.67545  24645081.411    24645080.4864   24645091.6364
        -0.000          -0.000
  -5549367.009 9  -3946236.99146  23220699.850    23220699.0344   23220708.3874
        -0.000          -0.000
  -3876696.330 9  -2328519.23246  23337555.084    23337555.2174   23337565.1444
        -0.000          -0.000
   8690696.362 9   7128466.87545  24286290.895    24286289.9024   24286300.5354
        -0.000          -0.000
  -9671595.339 9  -7287032.07946  23320427.167    23320426.4954   23320437.3534
        -0.000          -0.000
 -15569830.392 9 -11724382.60948  22161572.120    22161571.3344   22161580.1734
        -0.000          -0.000
  -6081662.504 9  -4725924.67148  22051133.438    22051133.4974   22051141.5284
        -0.000          -0.000
 -20652502.488 9 -15947193.30849  20632227.852    20632227.6564   20632234.9844
        -0.000          -0.000
 99  3 29  0 55 30.0000000  0  8 22 10 26  5 23 17 30  6             0.000825713
  -2651303.090 8  -2053016.20045  24633738.306    24633737.2694   24633748.2994
        -0.000          -0.000
  -5445229.310 9  -3865090.77246  23240516.682    23240515.8574   23240525.2724
        -0.000          -0.000
  -3939959.643 9  -2377815.24246  23325516.637    23325516.7014   23325526.6484
        -0.000          -0.000
   8808561.745 9   7220309.92745  24308719.496    24308718.7154   24308729.5724
        -0.000          -0.000
  -9753896.688 9  -7351162.83447  23304765.432    23304764.9174   23304775.6234
        -0.000          -0.000
 -15603713.269 9 -11750784.78848  22155124.358    22155123.5974   22155132.4224
        -0.000          -0.000
  -5988860.476 9  -4653611.43648  22068793.172    22068793.2434   22068801.2764
        -0.000          -0.000
 -20665447.093 9 -15957279.98849  20629764.611    20629764.3914   20629771.6424
        -0.000          -0.000
 99  3 29  0 56  0.0000000  0  8 22 10 26  5 23 17 30  6             0.000832868
  -2710521.797 9  -2099160.59645  24622469.565    24622468.3704   24622478.7624
        -0.000          -0.000
  -5340865.630 9  -3783768.45846  23260376.406    23260375.6274   23260385.0754
        -0.000          -0.000
  -4003038.263 9  -2426967.31746  23313513.073    23313513.0014   23313523.1304
        -0.000          -0.000
   8926395.776 9   7312128.55045  24331142.141    24331141.6714   24331152.6904
        -0.000          -0.000
  -9835960.942 9  -7415108.83947  23289148.756    23289148.5184   23289159.0764
        -0.000          -0.000
 -15637380.919 9 -11777019.25248  22148717.641    22148716.8434   22148725.5224
        -0.000          -0.000
  -5895721.508 9  -4581035.65748  22086516.752    22086516.9024   22086525.0684
        -0.000          -0.000
 -20678034.960 9 -15967088.69149  20627369.327    20627369.0304   20627376.1114
        -0.000          -0.000
 99  3 29  0 56 30.0000000  0  8 22 10 26  5 23 17 30  6             0.000840024
  -2769330.953 8  -2144985.84645  24611278.565    24611277.2284   24611287.1634
        -0.000          -0.000
  -5236222.564 9  -3702228.43845  23280289.583    23280288.6724   23280297.8144
        -0.000          -0.000
  -4065899.346 9  -2475949.85846  23301550.876    23301550.7924   23301560.8914
        -0.000          -0.000
   9044237.786 9   7403953.40645  24353566.810    24353566.4574   24353577.5204
        -0.000          -0.000
  -9917753.411 9  -7478843.06547  23273584.286    23273583.8344   23273594.4654
        -0.000          -0.000
 -15670811.950 9 -11803069.34348  22142355.984    22142355.0874   22142363.6284
        -0.000          -0.000
  -5802191.249 9  -4508154.97548  22104314.952    22104315.1314   22104323.2484
        -0.000          -0.000
 -20690230.291 9 -15976591.51749  20625048.525    20625048.2374   20625055.3154
        -0.000          -0.000
 99  3 29  0 57  0.0000000  0  8 22 10 26  5 23 17 30  6             0.000847192
  -2827728.823 8  -2190490.60945  24600165.285    24600164.3514   24600173.9314
        -0.000          -0.000
  -5131277.613 9  -3620453.17546  23300260.116    23300259.2964   23300268.2164
        -0.000          -0.000
  -4128516.354 9  -2524742.19746  23289635.435    23289635.2704   23289644.9814
        -0.000          -0.000
   9162127.262 9   7495815.22945  24376000.733    24376000.3154   24376011.3894
        -0.000          -0.000
  -9999256.125 9  -7542351.49547  23258074.705    23258074.1804   23258084.9684
        -0.000          -0.000
 -15703997.945 9 -11828928.50348  22136040.729    22136039.9094   22136048.4674
        -0.000          -0.000
  -5708253.402 9  -4434956.69048  22122190.805    22122191.0254   22122198.9724
        -0.000          -0.000
 -20702012.600 9 -15985772.52849  20622806.267    20622806.0394   20622813.2234
        -0.000          -0.000
 99  3 29  0 57 30.0000000  0  8 22 10 26  5 23 17 30  6             0.000854358
  -2885749.408 8  -2235701.33945  24589123.172    24589122.8664   24589132.4664
        -0.000          -0.000
  -5026085.030 9  -3538484.95846  23320277.676    23320276.7984   23320285.8324
        -0.000          -0.000
  -4190910.691 9  -2573361.06746  23277762.011    23277761.8914   23277771.5974
        -0.000          -0.000
   9280046.377 9   7587700.12445  24398440.410    24398439.7924   24398451.0484
        -0.000          -0.000
 -10080506.054 9  -7605662.97847  23242613.023    23242612.6454   23242623.5444
        -0.000          -0.000
 -15737001.941 9 -11854645.83448  22129760.138    22129759.3864   22129767.8604
        -0.000          -0.000
  -5613951.106 9  -4361474.41048  22140136.106    22140136.2834   22140144.2354
        -0.000          -0.000
 -20713434.715 9 -15994672.85649  20620632.742    20620632.5334   20620639.6064
        -0.000          -0.000
 99  3 29  0 58  0.0000000  0  8 22 10 26  5 23 17 30  6             0.000861526
  -2943398.375 7  -2280622.53645  24578151.931    24578151.9614   24578161.7624
        -0.000          -0.000
  -4920675.843 8  -3456347.99946  23340336.320    23340335.4224   23340344.7274
        -0.000          -0.000
  -4253067.032 9  -2621794.49546  23265933.838    23265933.7004   23265943.5014
        -0.000          -0.000
   9397982.982 9   7679598.65445  24420883.079    24420882.3454   24420893.9454
        -0.000          -0.000
 -10161499.425 9  -7668774.54247  23227200.225    23227200.0144   23227210.8274
        -0.000          -0.000
 -15769849.487 9 -11880241.26948  22123509.339    22123508.5944   22123517.1524
        -0.000          -0.000
  -5519306.270 9  -4287725.23248  22158146.361    22158146.5544   22158154.6474
        -0.000          -0.000
 -20724526.321 9 -16003315.63749  20618522.070    20618521.8444   20618528.9434
        -0.000          -0.000
 99  3 29  0 58 30.0000000  0  8 22 10 26  5 23 17 30  6             0.000868695
  -3000678.990 8  -2325256.72545  24567251.105    24567251.1274   24567261.5094
        -0.000          -0.000
  -4815083.298 8  -3374068.13345  23360429.666    23360428.7924   23360438.3154
        -0.000          -0.000
  -4314965.382 9  -2670026.88846  23254154.716    23254154.7444   23254164.6214
        -0.000          -0.000
   9515908.318 8   7771488.43445  24443323.191    24443322.4314   24443334.6074
        -0.000          -0.000
 -10242234.605 9  -7731684.90747  23211836.909    23211836.5204   23211847.1374
        -0.000          -0.000
 -15802559.306 9 -11905729.38248  22117284.855    22117284.0934   22117292.6874
        -0.000          -0.000
  -5424349.669 9  -4213733.10748  22176215.865    22176216.1354   22176224.3174
        -0.000          -0.000
 -20735316.661 9 -16011723.67849  20616468.678    20616468.4664   20616475.6534
        -0.000          -0.000
 99  3 29  0 59  0.0000000  0  8 22 10 26  5 23 17 30  6             0.000875867
  -3057573.319 8  -2369589.91645  24556423.996    24556424.2014   24556435.2814
        -0.000          -0.000
  -4709306.714 8  -3291644.84545  23380557.882    23380557.1574   23380566.7744
        -0.000          -0.000
  -4376593.229 9  -2718048.47546  23242427.161    23242427.2024   23242437.0854
        -0.000          -0.000
   9633806.788 8   7863357.29645  24465757.610    24465757.1804   24465770.1104
        -0.000          -0.000
 -10322713.197 9  -7794395.33947  23196522.047    23196521.7034   23196532.2654
        -0.000          -0.000
 -15835118.564 9 -11931100.17448  22111089.116    22111088.3224   22111096.9164
        -0.000          -0.000
  -5329102.628 9  -4139514.68048  22194340.761    22194340.9084   22194349.1214
        -0.000          -0.000
 -20745792.023 9 -16019886.27649  20614475.321    20614475.1264   20614482.3144
        -0.000          -0.000
 99  3 29  0 59 30.0000000  0  8 22 10 26  5 23 17 30  6             0.000883041
  -3114064.203 8  -2413608.70445  24545674.416    24545674.3234   24545686.3304
        -0.000          -0.000
  -4603333.258 8  -3209068.13545  23400723.794    23400723.2064   23400732.6944
        -0.000          -0.000
  -4437955.532 9  -2765863.11846  23230750.259    23230750.1974   23230760.0964
        -0.000          -0.000
   9751656.436 8   7955188.09645  24488182.806    24488182.9244   24488195.9904
        -0.000          -0.000
 -10402941.696 9  -7856910.91447  23181254.955    23181254.5914   23181265.0124
        -0.000          -0.000
 -15867522.025 9 -11956349.57548  22104922.974    22104922.1114   22104930.7664
        -0.000          -0.000
  -5233575.071 9  -4065077.66348  22212518.906    22212519.1434   22212527.3954
        -0.000          -0.000
 -20755931.623 9 -16027787.24349  20612545.850    20612545.6024   20612552.7934
        -0.000          -0.000
 99  3 29  1  0  0.0000000  0  8 22 10 26  5 23 17 30  6             0.000890206
  -3170158.458 8  -2457318.41745  24535001.038    24535000.4324   24535012.4934
        -0.000          -0.000
  -4497151.325 9  -3126328.96445  23420929.850    23420929.0384   23420938.2834
        -0.000          -0.000
  -4499055.166 9  -2813473.13246  23219123.090    23219123.0164   23219133.2024
        -0.000          -0.000
   9869458.298 8   8046981.63745  24510600.060    24510600.1544   24510612.9414
        -0.000          -0.000
 -10482924.992 9  -7919235.39447  23166034.786    23166034.2284   23166044.5084
        -0.000          -0.000
 -15899744.971 9 -11981458.30748  22098791.043    22098790.2464   22098798.8454
        -0.000          -0.000
  -5137760.838 9  -3990417.25148  22230751.656    22230751.8814   22230760.2914
        -0.000          -0.000
 -20765698.444 9 -16035397.72949  20610687.274    20610687.0384   20610694.1874
        -0.000          -0.000
 99  3 29  1  0 30.0000000  0  8 22 10 26  5 23 17 30  6             0.000897349
  -3225863.977 8  -2500725.24645  24524401.147    24524400.4904   24524412.4504
        -0.000          -0.000
  -4390746.997 9  -3043416.49245  23441178.178    23441177.3204   23441186.2054
        -0.000          -0.000
  -4559906.306 9  -2860889.51646  23207543.340    23207543.2324   23207553.5534
        -0.000          -0.000
   9987211.318 8   8138737.11445  24533008.443    24533008.3514   24533020.5934
        -0.000          -0.000
 -10562679.832 9  -7981381.85747  23150858.050    23150857.3664   23150867.4804
        -0.000          -0.000
 -15931774.955 9 -12006416.67648  22092695.819    22092695.0764   22092703.6354
        -0.000          -0.000
  -5041648.034 9  -3915524.19248  22249041.259    22249041.5094   22249050.0724
        -0.000          -0.000
 -20775072.553 9 -16042702.20549  20608903.461    20608903.2034   20608910.3324
        -0.000          -0.000
 99  3 29  1  1  0.0000000  0  8 22 10 26  5 23 17 30  6             0.000904475
  -3281174.037 8  -2543823.90745  24513876.065    24513875.5974   24513887.3924
        -0.000          -0.000
  -4284096.376 8  -2960312.13345  23461473.196    23461472.3604   23461481.0494
        -0.000          -0.000
  -4620509.309 9  -2908112.51846  23196010.854    23196010.8164   23196021.2074
        -0.000          -0.000
  10104937.250 9   8230471.50145  24555411.746    24555411.3914   24555423.0644
        -0.000          -0.000
 -10642194.570 9  -8043341.24947  23135726.276    23135725.8424   23135736.1354
        -0.000          -0.000
 -15963595.895 9 -12031212.16048  22086640.350    22086639.6084   22086648.2084
        -0.000          -0.000
  -4945223.209 9  -3840387.99848  22267390.442    22267390.6264   22267399.1434
        -0.000          -0.000
 -20784028.447 9 -16049680.81649  20607199.130    20607198.8734   20607206.0874
        -0.000          -0.000
 99  3 29  1  1 30.0000000  0  8 22 10 26  5 23 17 30  6             0.000911597
  -3336075.476 8  -2586604.16545  24503428.715    24503428.2104   24503440.0244
        -0.000          -0.000
  -4177198.172 8  -2877014.84745  23481815.253    23481814.3584   23481822.9454
        -0.000          -0.000
  -4680855.685 9  -2955135.55346  23184527.231    23184527.2764   23184537.3924
        -0.000          -0.000
  10222662.914 8   8322205.68645  24577814.643    24577814.2334   24577825.6094
        -0.000          -0.000
 -10721444.183 9  -8105094.04047  23120645.175    23120644.8714   23120655.2104
        -0.000          -0.000
 -15995204.193 9 -12055841.94648  22080625.284    22080624.6024   22080633.2234
        -0.000          -0.000
  -4848464.998 9  -3764992.01848  22285803.108    22285803.2494   22285811.6674
        -0.000          -0.000
 -20792562.543 9 -16056330.73249  20605575.059    20605574.8574   20605582.1064
        -0.000          -0.000
 99  3 29  1  2  0.0000000  0  8 22 10 26  5 23 17 30  6             0.000918694
  -3390611.639 8  -2629099.77145  24493050.452    24493049.9764   24493061.8624
        -0.000          -0.000
  -4070101.683 8  -2793563.04445  23502194.982    23502194.1304   23502202.6054
        -0.000          -0.000
  -4740963.492 9  -3001972.71246  23173088.807    23173088.9144   23173099.0834
        -0.000          -0.000
  10340359.270 8   8413917.03245  24600211.200    24600211.0284   24600222.6874
        -0.000          -0.000
 -10800469.311 9  -8166671.91247  23105607.506    23105606.9314   23105617.0724
        -0.000          -0.000
 -16026651.528 9 -12080346.30548  22074640.850    22074640.2154   22074649.0254
        -0.000          -0.000
  -4751413.213 9  -3689367.28548  22304271.532    22304271.6244   22304279.9714
        -0.000          -0.000
 -20800729.655 9 -16062694.68149  20604020.850    20604020.6644   20604027.8994
        -0.000          -0.000
 99  3 29  1  2 30.0000000  0  8 22 10 26  5 23 17 30  6             0.000925789
  -3444750.556 8  -2671285.81745  24482747.814    24482747.2784   24482759.2734
        -0.000          -0.000
  -3962798.519 8  -2709950.22645  23522614.249    23522613.3234   23522621.7394
        -0.000          -0.000
  -4800797.501 9  -3048596.50146  23161702.741    23161702.7674   23161712.9604
        -0.000          -0.000
  10458022.828 8   8505602.83245  24622601.720    24622601.5284   24622613.4394
        -0.000          -0.000
 -10879239.279 9  -8228050.95247  23090618.296    23090617.7084   23090627.6214
        -0.000          -0.000
 -16057939.640 9 -12104726.59848  22068686.734    22068686.1174   22068695.1984
        -0.000          -0.000
  -4654063.944 9  -3613510.75148  22322796.693    22322796.7494   22322805.0014
        -0.000          -0.000
 -20808531.310 9 -16068773.87449  20602536.102    20602535.8824   20602543.1784
        -0.000          -0.000
 99  3 29  1  3  0.0000000  0  8 22 10 26  5 23 17 30  6             0.000932902
  -3498461.115 9  -2713138.13045  24472526.995    24472526.5224   24472538.1394
        -0.000          -0.000
  -3855279.124 8  -2626168.88845  23543074.927    23543073.7894   23543082.0064
        -0.000          -0.000
  -4860323.475 9  -3094980.28946  23150375.350    23150375.3784   23150385.3344
        -0.000          -0.000
  10575680.223 9   8597283.83645  24644991.374    24644990.9584   24645003.0674
        -0.000          -0.000
 -10957714.511 9  -8289200.33347  23075685.186    23075684.3064   23075694.2984
        -0.000          -0.000
 -16089055.207 9 -12128972.44248  22062765.291    22062764.8164   22062774.0404
        -0.000          -0.000
  -4556405.854 9  -3537413.56148  22341380.462    22341380.5044   22341388.7284
        -0.000          -0.000
 -20815948.836 9 -16074553.73749  20601124.456    20601124.3284   20601131.6414
        -0.000          -0.000
 99  3 29  1  3 30.0000000  0  8 22 10 26  5 23 17 30  6             0.000940025
  -3551754.115 9  -2754665.06145  24462386.273    24462385.5124   24462396.3924
        -0.000          -0.000
  -3747562.771 8  -2542234.11245  23563572.734    23563571.5484   23563579.7784
        -0.000          -0.000
  -4919532.643 9  -3141117.20546  23139108.255    23139108.2484   23139117.9824
        -0.000          -0.000
  10693316.593 8   8688948.41045  24667377.266    24667376.4314   24667388.6074
        -0.000          -0.000
 -11035910.893 9  -8350132.43247  23060804.622    23060803.7394   23060813.9064
        -0.000          -0.000
 -16120004.418 9 -12153088.64648  22056875.760    22056875.3634   22056884.5224
        -0.000          -0.000
  -4458448.767 9  -3461083.38648  22360020.823    22360021.0604   22360029.3864
        -0.000          -0.000
 -20822995.062 9 -16080044.29149  20599783.622    20599783.4474   20599790.8034
        -0.000          -0.000
 99  3 29  1  4  0.0000000  0  8 22 10 26  5 23 17 30  6             0.000947142
  -3604653.204 8  -2795885.05645  24452320.362    24452319.3814   24452329.7834
        -0.000          -0.000
  -3639669.673 8  -2458161.59645  23584104.057    23584103.1454   23584111.1204
        -0.000          -0.000
  -4978424.072 8  -3187006.53546  23127901.567    23127901.4984   23127911.2574
        -0.000          -0.000
  10810894.962 9   8780567.81245  24689751.873    24689750.8414   24689763.0344
        -0.000          -0.000
 -11113839.236 9  -8410855.67847  23045974.628    23045974.1854   23045984.3554
        -0.000          -0.000
 -16150798.137 9 -12177083.69248  22051015.891    22051015.4704   22051024.6674
        -0.000          -0.000
  -4360217.560 9  -3384539.64647  22378713.325    22378713.6194   22378722.2244
        -0.000          -0.000
 -20829686.870 9 -16085258.65249  20598510.098    20598509.9194   20598517.3504
        -0.000          -0.000
 99  3 29  1  4 30.0000000  0  8 22 10 26  5 23 17 30  6             0.000954258
  -3657132.053 8  -2836777.55245  24442333.801    24442332.8764   24442343.0064
        -0.000          -0.000
  -3531585.380 8  -2373940.10545  23604671.917    23604671.1144   23604678.9224
        -0.000          -0.000
  -5036992.747 9  -3232644.35146  23116755.998    23116756.0434   23116765.9984
        -0.000          -0.000
  10928425.321 9   8872149.81945  24712117.203    24712116.2184   24712128.5764
        -0.000          -0.000
 -11191465.241 9  -8471343.30847  23031202.673    23031202.2214   23031212.3654
        -0.000          -0.000
 -16181400.420 9 -12200929.56648  22045192.525    22045192.1214   22045201.1414
        -0.000          -0.000
  -4261690.444 9  -3307765.30647  22397462.238    22397462.5994   22397471.3434
        -0.000          -0.000
 -20835997.704 9 -16090176.15949  20597309.090    20597308.9804   20597316.3264
        -0.000          -0.000
 99  3 29  1  5  0.0000000  0  8 22 10 26  5 23 17 30  6             0.000961382
  -3709187.781 8  -2877340.37245  24432427.995    24432426.8234   24432436.7164
        -0.000          -0.000
  -3423299.794 8  -2289561.73745  23625278.145    23625277.3414   23625284.9324
        -0.000          -0.000
  -5095253.088 9  -3278041.90846  23105669.558    23105669.6074   23105679.4264
        -0.000          -0.000
  11045929.923 8   8963711.73445  24734477.560    24734476.6384   24734489.2144
        -0.000          -0.000
 -11268800.122 9  -8531604.09047  23016486.489    23016485.8994   23016495.9234
        -0.000          -0.000
 -16211800.259 9 -12224617.69848  22039407.852    22039407.3164   22039416.1214
        -0.000          -0.000
  -4162856.862 9  -3230752.16947  22416269.907    22416270.0494   22416278.7804
        -0.000          -0.000
 -20841927.773 9 -16094796.96749  20596180.747    20596180.5714   20596187.8274
        -0.000          -0.000
 99  3 29  1  5 30.0000000  0  8 22 10 26  5 23 17 30  6             0.000968496
  -3760837.718 8  -2917586.95045  24422599.092    24422597.8494   24422608.0164
        -0.000          -0.000
  -3314833.508 8  -2205042.59245  23645918.871    23645918.0714   23645925.4814
        -0.000          -0.000
  -5153243.806 9  -3323229.38546  23094634.552    23094634.5774   23094644.0664
        -0.000          -0.000
  11163378.170 8   9055229.77145  24756827.445    24756826.4754   24756838.9744
        -0.000          -0.000
 -11345880.193 9  -8591666.33647  23001818.717    23001818.1334   23001827.9124
        -0.000          -0.000
 -16242022.893 9 -12248167.74248  22033656.727    22033656.1574   22033664.8884
        -0.000          -0.000
  -4063743.437 9  -3153520.96247  22435130.337    22435130.5924   22435139.5084
        -0.000          -0.000
 -20847499.431 9 -16099138.49349  20595120.478    20595120.2654   20595127.5704
        -0.000          -0.000
 99  3 29  1  6  0.0000000  0  8 22 10 26  5 23 17 30  6             0.000975622
  -3812039.007 8  -2957483.91645  24412855.213    24412854.3334   24412865.3214
        -0.000          -0.000
  -3206158.332 8  -2120360.65745  23666599.035    23666597.5854   23666606.1984
        -0.000          -0.000
  -5210945.700 9  -3368191.81946  23083654.245    23083654.1994   23083663.7574
        -0.000          -0.000
  11280800.842 9   9146727.83445  24779172.631    24779171.5074   24779183.9834
        -0.000          -0.000
 -11422675.213 9  -8651506.45547  22987205.500    22987204.6494   22987214.2204
        -0.000          -0.000
 -16272049.671 9 -12271565.16748  22027942.888    22027942.2334   22027950.9024
        -0.000          -0.000
  -3964318.394 9  -3076046.93947  22454050.203    22454050.5844   22454059.5064
        -0.000          -0.000
 -20852676.795 9 -16103172.78249  20594135.138    20594134.9374   20594142.2974
        -0.000          -0.000
 99  3 29  1  6 30.0000000  0  8 22 10 26  5 23 17 30  6             0.000982736
  -3862824.574 8  -2997056.94345  24403190.608    24403190.0534   24403201.5244
        -0.000          -0.000
  -3097314.617 8  -2035547.45244  23687311.205    23687309.9254   23687318.8744
        -0.000          -0.000
  -5268422.517 9  -3412978.81146  23072716.649    23072716.6204   23072726.3684
        -0.000          -0.000
  11398161.503 9   9238177.63645  24801505.971    24801504.6954   24801517.2604
        -0.000          -0.000
 -11499232.350 9  -8711161.23947  22972637.021    22972636.1954   22972645.8334
        -0.000          -0.000
 -16301931.360 9 -12294849.53448  22022256.706    22022255.9704   22022264.7514
        -0.000          -0.000
  -3864631.745 9  -2998369.07647  22473020.162    22473020.5014   22473029.2834
        -0.000          -0.000
 -20857497.505 9 -16106929.14949  20593217.707    20593217.4924   20593224.9424
        -0.000          -0.000
 99  3 29  1  7  0.0000000  0  8 22 10 26  5 23 17 30  6             0.000989851
  -3913175.010 8  -3036290.92545  24393609.237    24393608.6654   24393620.9154
        -0.000          -0.000
  -2988279.012 8  -1950584.70744  23708060.009    23708058.5424   23708067.5894
        -0.000          -0.000
  -5325648.012 9  -3457569.99646  23061827.008    23061826.9104   23061836.5954
        -0.000          -0.000
  11515481.745 8   9329595.88945  24823831.546    24823830.1604   24823842.6354
        -0.000          -0.000
 -11575530.482 9  -8770614.20447  22958117.428    22958116.7974   22958126.7084
        -0.000          -0.000
 -16331661.569 9 -12318015.87548  22016599.277    22016598.4764   22016607.3014
        -0.000          -0.000
  -3764674.014 9  -2920479.96547  22492041.742    22492042.0334   22492050.5844
        -0.000          -0.000
 -20861924.777 9 -16110378.95149  20592375.259    20592375.0754   20592382.5634
        -0.000          -0.000
 99  3 29  1  7 30.0000000  0  8 22 10 26  5 23 17 30  6             0.000996946
  -3963117.229 8  -3075206.83845  24384105.775    24384105.1754   24384117.7654
        -0.000          -0.000
  -2879079.962 7  -1865494.54544  23728840.104    23728838.7974   23728847.3694
        -0.000          -0.000
  -5382613.952 9  -3501958.96146  23050986.151    23050986.2254   23050995.8584
        -0.000          -0.000
  11632734.436 8   9420961.51245  24846143.857    24846142.5144   24846155.0054
        -0.000          -0.000
 -11651561.569 9  -8829859.06747  22943648.876    22943648.3544   22943658.3554
        -0.000          -0.000
 -16361250.257 9 -12341071.93948  22010968.508    22010967.8144   22010976.3984
        -0.000          -0.000
  -3664467.592 9  -2842397.08147  22511110.550    22511110.7924   22511119.3224
        -0.000          -0.000
 -20865956.966 9 -16113520.90049  20591608.090    20591607.8274   20591615.2634
        -0.000          -0.000
 99  3 29  1  8  0.0000000  0  8 22 10 26  5 23 17 30  6             0.001004009
  -4012677.288 8  -3113824.97945  24374675.101    24374674.4624   24374686.5614
        -0.000          -0.000
  -2769740.174 7  -1780294.79254  23749646.814    23749645.7724   23749655.5775
        -0.000          -0.000
  -5439319.077 9  -3546144.67746  23040195.465    23040195.6344   23040204.8004
        -0.000          -0.000
  11749899.050 8   9512258.50145  24868438.961    24868437.8894   24868450.5584
        -0.000          -0.000
 -11727315.623 9  -8888888.05947  22929233.175    22929232.6334   22929242.4904
        -0.000          -0.000
 -16390707.158 9 -12364025.31648  22005363.043    22005362.3554   22005370.8144
        -0.000          -0.000
  -3564025.527 9  -2764130.57047  22530224.080    22530224.2804   22530232.8474
        -0.000          -0.000
 -20869608.100 9 -16116365.91349  20590913.182    20590912.9284   20590920.3974
        -0.000          -0.000
 99  3 29  1  8 30.0010000  0  8 22 10 26  5 23 17 30  6             0.001011072
  -4061806.558 8  -3152107.45645  24365326.451    24365325.9154   24365336.9454
        -0.000          -0.000
  -2660208.919 7  -1694945.82954  23770489.264    23770488.3054          0.0005
        -0.000          -0.000
  -5495703.794 9  -3590080.70646  23029465.944    23029465.9634   23029475.2944
        -0.000          -0.000
  11867032.730 8   9603531.41245  24890728.408    24890727.6884   24890740.1764
        -0.000          -0.000
 -11802726.256 9  -8947649.46147  22914882.632    22914882.2784   22914892.0054
        -0.000          -0.000
 -16419972.195 9 -12386829.19548  21999794.061    21999793.3704   21999801.8374
        -0.000          -0.000
  -3463300.542 9  -2685643.60647  22549391.434    22549391.6414   22549400.3024
        -0.000          -0.000
 -20872825.556 9 -16118872.98849  20590300.940    20590300.7014   20590308.1574
        -0.000          -0.000
 99  3 29  1  9  0.0010000  0  8 22 10 26  5 23 17 30  6             0.001018133
  -4110519.283 8  -3190065.32245  24356057.719    24356056.6444   24356066.6724
        -0.000          -0.000
  -2550505.560 7  -1609462.66454  23791364.273    23791363.8824          0.0005
        -0.000          -0.000
  -5551743.598 9  -3633747.95846  23018801.893    23018801.9054   23018811.4044
        -0.000          -0.000
  11984122.814 8   9694770.36645  24913009.583    24913009.5024   24913021.4174
        -0.000          -0.000
 -11877798.644 9  -9006147.27647  22900596.734    22900596.3484   22900606.0994
        -0.000          -0.000
 -16449037.052 9 -12409477.07848  21994263.102    21994262.4094   21994270.8214
        -0.000          -0.000
  -3362304.365 9  -2606945.33147  22568610.421    22568610.5664   22568619.4084
        -0.000          -0.000
 -20875626.814 9 -16121055.76549  20589767.877    20589767.6214   20589775.1384
        -0.000          -0.000
 99  3 29  1  9 30.0010000  0  8 22 10 26  5 23 17 30  6             0.001025168
  -4158861.604 8  -3227734.54745  24346858.959    24346857.2624   24346866.8984
        -0.000          -0.000
  -2440675.256 8  -1523880.64354  23812263.764    23812263.1434          0.0005
        -0.000          -0.000
  -5607475.660 9  -3677175.42246  23008196.164    23008196.1584   23008205.7104
        -0.000          -0.000
  12101122.754 8   9785939.07645  24935274.116    24935274.1184   24935285.6344
        -0.000          -0.000
 -11952579.462 9  -9064417.91047  22886366.296    22886365.8094   22886375.7064
        -0.000          -0.000
 -16477944.269 9 -12432002.12348  21988762.131    21988761.4874   21988769.8114
        -0.000          -0.000
  -3261070.924 9  -2528062.15847  22587874.277    22587874.4904   22587883.5254
        -0.000          -0.000
 -20878083.528 9 -16122970.07749  20589300.283    20589300.0644   20589307.6674
        -0.000          -0.000
 99  3 29  1 10  0.0010000  0  8 22 10 26  5 23 17 30  6             0.001032200
  -4206789.582 8  -3265080.93345  24337738.375    24337736.5064   24337745.9064
        -0.000          -0.000
  -2330691.895 8  -1438179.40754  23833193.013    23833192.0534   23833204.9695
        -0.000          -0.000
  -5662882.581 9  -3720349.53846  22997652.259    22997652.2974   22997661.9864
        -0.000          -0.000
  12218049.187 8   9877050.53945  24957525.006    24957524.6954   24957536.3194
        -0.000          -0.000
 -12027070.611 9  -9122462.84947  22872190.594    22872190.3424   22872200.4644
        -0.000          -0.000
 -16506682.309 9 -12454395.34848  21983293.416    21983292.7344   21983301.1134
        -0.000          -0.000
  -3159574.033 9  -2448973.71447  22607188.228    22607188.5594   22607197.7614
        -0.000          -0.000
 -20880184.060 9 -16124606.83949  20588900.540    20588900.3214   20588907.9364
        -0.000          -0.000
 99  3 29  1 10 30.0010000  0  8 22 10 26  5 23 17 30  6             0.001039239
  -4254283.787 8  -3302089.30845  24328700.373    24328698.6334   24328708.0694
        -0.000          -0.000
  -2220532.391 8  -1352340.91044  23854155.713    23854154.5444   23854167.6584
        -0.000          -0.000
  -5717942.099 9  -3763252.96946  22987174.744    22987174.7804   22987184.5174
        -0.000          -0.000
  12334913.296 8   9968113.37545  24979763.706    24979763.1394   24979775.1934
        -0.000          -0.000
 -12101275.236 9  -9180284.52047  22858069.728    22858069.6474   22858079.7774
        -0.000          -0.000
 -16535235.578 9 -12476644.59848  21977859.797    21977859.1154   21977867.6874
        -0.000          -0.000
  -3057805.784 9  -2369673.82547  22626554.150    22626554.4824   22626563.4354
        -0.000          -0.000
 -20881907.759 9 -16125949.95949  20588572.490    20588572.2784   20588579.8584
        -0.000          -0.000
 99  3 29  1 11  0.0010000  0  8 22 10 26  5 23 17 30  6             0.001046206
  -4301369.206 8  -3338779.12145  24319740.452    24319738.5854   24319747.9954
        -0.000          -0.000
  -2110213.112 8  -1266377.89744  23875148.654    23875147.6784   23875160.9574
        -0.000          -0.000
  -5772670.405 9  -3805898.31146  22976760.239    22976760.2904   22976769.6284
        -0.000          -0.000
  12451678.723 8  10059099.35145  25001983.631    25001982.7674   25001995.2444
        -0.000          -0.000
 -12175218.650 9  -9237902.63247  22843999.250    22843998.8184   22844008.8544
        -0.000          -0.000
 -16563618.115 9 -12498760.80348  21972458.653    21972458.0044   21972466.6244
        -0.000          -0.000
  -2955778.917 9  -2290172.39647  22645969.342    22645969.5824   22645978.3114
        -0.000          -0.000
 -20883271.496 9 -16127012.58949  20588312.912    20588312.7284   20588320.2594
        -0.000          -0.000
 99  3 29  1 11 30.0010000  0  8 22 10 26  5 23 17 30  6             0.001053257
  -4347995.863 8  -3375111.45345  24310867.848    24310866.0164   24310875.3114
        -0.000          -0.000
  -1999711.136 8  -1180272.49145  23896176.251    23896175.9124   23896188.9894
        -0.000          -0.000
  -5827038.982 9  -3848263.32446  22966414.309    22966414.2934   22966423.3794
        -0.000          -0.000
  12568355.280 8  10150016.05745  25024186.683    25024185.4974   25024198.6324
        -0.000          -0.000
 -12248875.239 9  -9295297.27947  22829982.936    22829982.4724   22829992.3654
        -0.000          -0.000
 -16591818.910 9 -12520735.39448  21967092.173    21967091.5094   21967100.0274
        -0.000          -0.000
  -2853467.016 9  -2210448.87647  22665438.670    22665438.9934   22665447.6164
        -0.000          -0.000
 -20884228.843 9 -16127758.55449  20588130.774    20588130.5644   20588137.9684
        -0.000          -0.000
 99  3 29  1 12  0.0010000  0  8 22 10 26  5 23 17 30  6             0.001060306
  -4394170.563 8  -3411091.63045  24302081.251    24302079.6794   24302088.4194
        -0.000          -0.000
  -1889050.265 8  -1094043.29445  23917233.851    23917233.6834   23917247.3264
        -0.000          -0.000
  -5881053.531 9  -3890352.48246  22956135.404    22956135.4894   22956144.8044
        -0.000          -0.000
  12684929.422 8  10240852.97545  25046369.706    25046368.7204   25046382.2354
        -0.000          -0.000
 -12322266.456 9  -9352485.13547  22816017.054    22816016.5814   22816026.3094
        -0.000          -0.000
 -16619843.827 9 -12542572.94348  21961759.125    21961758.4314   21961766.9004
        -0.000          -0.000
  -2750897.924 9  -2130524.93847  22684956.995    22684957.3014   22684965.9444
        -0.000          -0.000
 -20884769.205 9 -16128179.59849  20588028.020    20588027.8354   20588035.0984
        -0.000          -0.000
 99  3 29  1 12 30.0010000  0  8 22 10 26  5 23 17 30  6             0.001067347
  -4439903.479 8  -3446727.55845  24293378.246    24293376.8864   24293385.5804
        -0.000          -0.000
  -1778235.529 8  -1007694.18745  23938321.077    23938320.8154   23938334.3884
        -0.000          -0.000
  -5934714.144 9  -3932165.84546  22945924.175    22945924.1974   22945933.5334
        -0.000          -0.000
  12801404.366 8  10331612.58645  25068533.744    25068532.9174   25068547.1224
        -0.000          -0.000
 -12395365.021 9  -9409444.93647  22802106.873    22802106.3504   22802116.0034
        -0.000          -0.000
 -16647688.258 9 -12564269.85648  21956460.390    21956459.7994   21956468.1904
        -0.000          -0.000
  -2648089.321 9  -2050414.37747  22704520.896    22704521.1174   22704529.9134
        -0.000          -0.000
 -20884885.826 9 -16128270.44649  20588005.891    20588005.6804   20588012.9344
        -0.000          -0.000
 99  3 29  1 13  0.0010000  0  8 22 10 26  5 23 17 30  6             0.001074384
  -4485177.990 8  -3482006.22345  24284761.872    24284760.7214   24284770.1384
        -0.000          -0.000
  -1667272.437 8   -921229.45745  23959436.744    23959436.5274   23959449.7074
        -0.000          -0.000
  -5988025.839 9  -3973707.34546  22935779.242    22935779.2914   22935788.6174
        -0.000          -0.000
  12917786.550 8  10422299.91845  25090680.283    25090679.9234   25090693.6874
        -0.000          -0.000
 -12468162.643 9  -9466170.23947  22788254.018    22788253.4104   22788263.0284
        -0.000          -0.000
 -16675362.034 9 -12585833.78248  21951194.310    21951193.7454   21951201.9044
        -0.000          -0.000
  -2545049.098 9  -1970123.33247  22724128.730    22724129.0134   22724137.9384
        -0.000          -0.000
 -20884581.508 9 -16128033.28249  20588063.866    20588063.6404   20588070.9244
        -0.000          -0.000
 99  3 29  1 13 30.0010000  0  8 22 10 26  5 23 17 30  6             0.001081432
  -4529968.836 8  -3516908.01845  24276237.522    24276236.6734   24276246.7304
        -0.000          -0.000
  -1556150.020 8   -834640.58045  23980582.915    23980582.6874   23980595.3474
        -0.000          -0.000
  -6040979.758 9  -4014970.07946  22925702.219    22925702.2774   22925711.8714
        -0.000          -0.000
  13034109.694 8  10512941.23545  25112816.066    25112815.7494   25112828.8344
        -0.000          -0.000
 -12540634.993 9  -9522642.08347  22774463.006    22774462.3384   22774471.8754
        -0.000          -0.000
 -16702859.845 9 -12607260.59848  21945961.742    21945961.1074   21945969.1314
        -0.000          -0.000
  -2441776.397 9  -1889651.15147  22743780.825    22743781.1884   22743790.1704
        -0.000          -0.000
 -20883847.330 9 -16127461.17549  20588203.659    20588203.4334   20588210.6184
        -0.000          -0.000
 99  3 29  1 14  0.0010000  0  8 22 10 26  5 23 17 30  6             0.001088476
  -4574300.059 9  -3551451.71745  24267801.515    24267800.6014   24267810.7494
        -0.000          -0.000
  -1444880.637 8   -747937.17645  24001757.306    24001757.0284   24001769.0764
        -0.000          -0.000
  -6093604.245 9  -4055976.06246  22915688.262    22915688.2194   22915697.7274
        -0.000          -0.000
  13150385.897 8  10603545.99345  25134943.244    25134942.8204   25134955.2504
        -0.000          -0.000
 -12612772.708 9  -9578853.18447  22760735.491    22760734.8224   22760744.3504
        -0.000          -0.000
 -16730180.530 9 -12628549.38748  21940762.804    21940762.1574   21940770.1974
        -0.000          -0.000
  -2338280.908 9  -1809005.34947  22763475.531    22763475.8534   22763484.8334
        -0.000          -0.000
 -20882690.554 9 -16126559.76949  20588423.858    20588423.6114   20588430.6454
        -0.000          -0.000
 99  3 29  1 14 30.0010000  0  8 22 10 26  5 23 17 30  6             0.001095510
  -4618189.230 8  -3585650.96645  24259449.933    24259448.8534   24259459.0554
        -0.000          -0.000
  -1333478.272 8   -661130.18945  24022957.119    24022956.6134   24022968.1294
        -0.000          -0.000
  -6145930.626 9  -4096749.75446  22905730.848    22905730.7734   22905740.2384
        -0.000          -0.000
  13266595.372 8  10694098.72845  25157057.178    25157056.5934   25157069.1664
        -0.000          -0.000
 -12684579.433 9  -9634806.37247  22747070.881    22747070.2224   22747079.7514
        -0.000          -0.000
 -16757346.930 9 -12649717.97148  21935593.134    21935592.5654   21935600.6604
        -0.000          -0.000
  -2234575.034 9  -1728195.61747  22783210.354    22783210.5224   22783219.6094
        -0.000          -0.000
 -20881138.415 9 -16125350.28649  20588719.199    20588718.9374   20588725.9304
        -0.000          -0.000
 99  3 29  1 15  0.0010000  0  8 22 10 26  5 23 17 30  6             0.001102529
  -4661634.520 8  -3619504.31945  24251182.357    24251181.2964   24251191.9364
        -0.000          -0.000
  -1221948.475 8   -574223.88545  24044180.980    24044180.1804   24044191.5054
        -0.000          -0.000
  -6197958.138 9  -4137290.58346  22895830.305    22895830.2364   22895839.4774
        -0.000          -0.000
  13382722.216 8  10784587.07545  25179155.116    25179154.8244   25179167.0294
        -0.000          -0.000
 -12756078.932 9  -9690520.15547  22733464.736    22733463.9914   22733473.5484
        -0.000          -0.000
 -16784367.027 9 -12670772.53048  21930451.401    21930450.8454   21930458.8924
        -0.000          -0.000
  -2130650.275 9  -1647215.32647  22802986.623    22802986.7914   22802995.9424
        -0.000          -0.000
 -20879191.049 9 -16123832.84249  20589089.703    20589089.4104   20589096.4694
        -0.000          -0.000
 99  3 29  1 15 30.0010000  0  8 22 10 26  5 23 17 30  6             0.001109533
  -4704644.508 8  -3653018.49345  24242997.359    24242996.4734   24243007.3854
        -0.000          -0.000
  -1110292.513 8   -487219.24845  24065428.841    24065428.2604   24065438.9074
        -0.000          -0.000
  -6249666.793 9  -4177582.92246  22885990.446    22885990.4194   22885999.3064
        -0.000          -0.000
  13498765.983 8  10875010.67445  25201237.300    25201237.0574   25201249.3804
        -0.000          -0.000
 -12827264.440 9  -9745989.27047  22719918.379    22719917.7394   22719927.1204
        -0.000          -0.000
 -16811226.613 9 -12691702.01148  21925340.279    21925339.6044   21925347.7174
        -0.000          -0.000
  -2026487.547 9  -1566049.61347  22822808.228    22822808.3484   22822817.3764
        -0.000          -0.000
 -20876834.435 9 -16121996.49049  20589537.999    20589537.7504   20589544.9244
        -0.000          -0.000
 99  3 29  1 16  0.0010000  0  8 22 10 26  5 23 17 30  6             0.001116520
  -4747218.851 8  -3686193.19545  24234894.862    24234894.1834   24234905.2944
        -0.000          -0.000
   -998508.432 8   -400114.75945  24086701.300    24086700.2954   24086710.7244
        -0.000          -0.000
  -6301042.088 9  -4217615.49746  22876213.883    22876213.9474   22876222.6704
        -0.000          -0.000
  13614700.903 8  10965349.46545  25223298.612    25223298.5334   25223311.5904
        -0.000          -0.000
 -12898145.938 9  -9801221.49747  22706430.329    22706429.4564   22706438.6134
        -0.000          -0.000
 -16837924.032 9 -12712505.14148  21920259.835    21920259.2204   21920267.4734
        -0.000          -0.000
  -1922086.234 9  -1484698.00047  22842675.161    22842675.3354   22842684.0664
        -0.000          -0.000
 -20874056.409 9 -16119831.74949  20590066.669    20590066.4144   20590073.6194
        -0.000          -0.000
 99  3 29  1 16 30.0010000  0  8 22 10 26  5 23 17 30  6             0.001123514
  -4789341.519 8  -3719015.95045  24226879.125    24226878.5804   24226889.2294
        -0.000          -0.000
   -886577.480 8   -312895.82544  24108001.398    24108000.7094   24108010.8494
        -0.000          -0.000
  -6352043.037 9  -4257356.40746  22866508.600    22866508.7154   22866517.3544
        -0.000          -0.000
  13730510.213 8  11055590.39545  25245336.383    25245336.2984   25245349.6044
        -0.000          -0.000
 -12968723.672 9  -9856217.02647  22692999.762    22692998.9844   22693008.0854
        -0.000          -0.000
 -16864456.368 9 -12733179.62748  21915210.891    21915210.2364   21915218.5524
        -0.000          -0.000
  -1817444.671 9  -1403159.16447  22862587.697    22862587.9304   22862596.5774
        -0.000          -0.000
 -20870859.150 9 -16117340.34349  20590674.998    20590674.7234   20590682.0114
        -0.000          -0.000
 99  3 29  1 17  0.0010000  0  8 22 10 26  5 23 17 30  6             0.001130507
  -4831018.598 8  -3751491.52645  24218948.393    24218948.0214   24218958.1004
        -0.000          -0.000
   -774501.454 7   -225563.89444  24129328.956    24129328.2934   24129338.2694
        -0.000          -0.000
  -6402653.785 9  -4296793.26146  22856877.713    22856877.7534   22856886.4264
        -0.000          -0.000
  13846189.958 8  11145730.38645  25267349.572    25267349.3484   25267362.8184
        -0.000          -0.000
 -13039006.513 9  -9910982.77047  22679625.232    22679624.5134   22679633.7674
        -0.000          -0.000
 -16890820.541 9 -12753723.07848  21910193.741    21910193.1894   21910201.5874
        -0.000          -0.000
  -1712572.732 9  -1321440.81547  22882543.980    22882544.3344   22882553.1894
        -0.000          -0.000
 -20867233.782 9 -16114515.36349  20591364.668    20591364.4554   20591371.8454
        -0.000          -0.000
 99  3 29  1 17 30.0010000  0  8 22 10 26  5 23 17 30  6             0.001137492
  -4872263.130 9  -3783630.07045  24211100.619    24211099.6334   24211109.0974
        -0.000          -0.000
   -662294.488 8   -138129.87844  24150681.702    24150680.5034   24150690.2814
        -0.000          -0.000
  -6452884.226 9  -4335933.77346  22847319.058    22847319.1504   22847327.8264
        -0.000          -0.000
  13961733.988 8  11235764.63745  25289336.953    25289336.9764   25289350.6254
        -0.000          -0.000
 -13108989.605 9  -9965514.93947  22666307.618    22666306.9234   22666316.4454
        -0.000          -0.000
 -16917019.176 9 -12774137.54548  21905208.186    21905207.6504   21905215.9274
        -0.000          -0.000
  -1607502.903 9  -1239568.26147  22902538.168    22902538.4534   22902547.6254
        -0.000          -0.000
 -20863196.490 9 -16111369.39949  20592132.812    20592132.6134   20592140.0624
        -0.000          -0.000
 99  3 29  1 18  0.0010000  0  8 22 10 26  5 23 17 30  6             0.001144484
  -4913041.062 8  -3815405.01245  24203341.575    24203340.2964   24203348.8414
        -0.000          -0.000
   -549932.06917    -50574.80554  24172063.735    24172061.7625          0.0005
        -0.000          -0.000
  -6502709.676 9  -4374758.69846  22837837.460    22837837.5644   22837846.2744
        -0.000          -0.000
  14077166.005 8  11325711.58345  25311303.199    25311303.2104   25311316.9714
        -0.000          -0.000
 -13178653.164 9 -10019798.13447  22653050.629    22653050.1204   22653059.8504
        -0.000          -0.000
 -16943029.823 9 -12794405.51548  21900258.699    21900258.0774   21900266.0824
        -0.000          -0.000
  -1502231.852 9  -1157538.92147  22922570.710    22922570.9844   22922580.2734
        -0.000          -0.000
 -20858729.413 9 -16107888.52349  20592982.767    20592982.5654   20592990.0864
        -0.000          -0.000
 99  3 29  1 18 30.0010000  0  8 22 10 26  5 23 17 30  6             0.001151455
  -4953397.664 8  -3846851.62945  24195661.406    24195660.4354   24195669.3194
        -0.000          -0.000
   -437458.872 8     37066.64154  24193466.439    24193464.8584          0.0005
        -0.000          -0.000
  -6552170.762 9  -4413299.69346  22828425.103    22828425.2604   22828433.9254
        -0.000          -0.000
  14192460.227 8  11415551.14745  25333243.123    25333242.7914   25333257.0884
        -0.000          -0.000
 -13248027.710 9 -10073856.11947  22639848.875    22639848.3594   22639858.2064
        -0.000          -0.000
 -16968891.428 9 -12814557.35648  21895337.525    21895336.7244   21895344.7244
        -0.000          -0.000
  -1396798.287 9  -1075382.95547  22942634.260    22942634.5344   22942643.7294
        -0.000          -0.000
 -20853876.363 9 -16104106.88549  20593906.124    20593905.9954   20593913.5254
        -0.000          -0.000
 99  3 29  1 19  0.0010000  0  8 22 10 26  5 23 17 30  6             0.001158423
  -4993287.479 8  -3877934.50445  24188070.024    24188069.1694   24188078.9704
        -0.000          -0.000
   -324851.36818    124812.69454         0.000           0.0005          0.0005
        -0.000          -0.000
  -6601248.334 9  -4451541.84847  22819085.993    22819086.1654   22819094.8554
        -0.000          -0.000
  14307673.786 8  11505327.84645  25355167.882    25355167.7024   25355181.5804
        -0.000          -0.000
 -13317072.060 9 -10127656.81647  22626710.172    22626709.6554   22626719.3534
        -0.000          -0.000
 -16994566.255 9 -12834563.64748  21890451.520    21890450.7674   21890458.8874
        -0.000          -0.000
  -1291171.232 9   -993076.20647  22962734.693    22962734.9594   22962743.9264
        -0.000          -0.000
 -20848586.724 9 -16099985.04949  20594912.859    20594912.6694   20594920.0714
        -0.000          -0.000
 99  3 29  1 19 30.0010000  0  8 22 10 26  5 23 17 30  6             0.001165400
  -5032696.140 8  -3908642.46745  24180570.367    24180569.5914   24180580.1544
        -0.000          -0.000
   -212112.31818    212661.31254  24236349.373    24236348.3665   24236356.5755
        -0.000          -0.000
  -6649938.105 9  -4489481.83547  22809820.832    22809820.8904   22809829.5344
        -0.000          -0.000
  14422805.299 8  11595040.63945  25377077.403    25377076.8844   25377090.6154
        -0.000          -0.000
 -13385777.987 9 -10181193.79147  22613636.003    22613635.3564   22613644.8894
        -0.000          -0.000
 -17020066.324 9 -12854433.77348  21885598.846    21885598.1264   21885606.4404
        -0.000          -0.000
  -1185342.802 9   -910612.54147  22982873.469    22982873.7074   22982882.4494
        -0.000          -0.000
 -20842868.077 9 -16095528.93949  20596001.140    20596000.9454   20596008.2104
        -0.000          -0.000
 99  3 29  1 20  0.0010000  0  8 22 10 26  5 23 17 30  6             0.001172372
  -5071636.138 8  -3938985.23245  24173159.588    24173158.9624   24173170.2144
        -0.000          -0.000
    -99265.883 7    300593.59654  24257823.334    24257822.0114          0.0005
        -0.000          -0.000
  -6698257.457 9  -4527133.20847  22800625.899    22800625.8764   22800634.3924
        -0.000          -0.000
  14537825.341 8  11684666.54645  25398965.412    25398964.8234   25398978.3424
        -0.000          -0.000
 -13454177.438 9 -10234491.95547  22600619.904    22600619.1684   22600628.8024
        -0.000          -0.000
 -17045430.019 9 -12874197.63448  21880772.148    21880771.4474   21880779.8924
        -0.000          -0.000
  -1079312.911 9   -827991.90647  23003050.456    23003050.6594   23003059.3964
        -0.000          -0.000
 -20836725.925 9 -16090742.82149  20597169.981    20597169.7764   20597176.9744
        -0.000          -0.000
 99  3 29  1 20 30.0010000  0  8 22 10 26  5 23 17 30  6             0.001179347
  -5110089.043 8  -3968948.46345  24165841.762    24165841.3074   24165852.9304
        -0.000          -0.000
     13700.714 7    388619.44954  24279319.971    24279318.7674          0.0005
        -0.000          -0.000
  -6746203.937 9  -4564494.03047  22791502.003    22791501.9814   22791510.1994
        -0.000          -0.000
  14652742.875 8  11774212.60545  25420833.346    25420832.5244   25420846.3554
        -0.000          -0.000
 -13522234.068 9 -10287523.00047  22587668.714    22587668.1834   22587677.9064
        -0.000          -0.000
 -17070636.133 9 -12893838.70448  21875975.523    21875974.8584   21875983.3954
        -0.000          -0.000
   -973054.475 9   -745193.17547  23023270.684    23023271.0414   23023279.8014
        -0.000          -0.000
 -20830129.501 9 -16085602.73249  20598425.293    20598425.0774   20598432.2254
        -0.000          -0.000
 99  3 29  1 21  0.0010000  0  8 22 10 26  5 23 17 30  6             0.001186324
  -5148054.373 8  -3998531.76145  24158616.801    24158616.5484   24158628.2444
        -0.000          -0.000
    126766.70417    476722.75854         0.000           0.0005          0.0005
        -0.000          -0.000
  -6793789.149 9  -4601573.30847  22782446.865    22782446.8504   22782455.0994
        -0.000          -0.000
  14767539.773 8  11863664.63745  25442678.405    25442677.7504   25442691.6504
        -0.000          -0.000
 -13589958.260 9 -10340294.99047  22574781.196    22574780.6154   22574790.2004
        -0.000          -0.000
 -17095684.879 9 -12913357.14548  21871208.910    21871208.2974   21871216.7604
        -0.000          -0.000
   -866586.970 9   -662231.52547  23043530.976    23043531.2554   23043539.8524
        -0.000          -0.000
 -20823100.163 9 -16080125.30749  20599762.915    20599762.7114   20599769.8194
        -0.000          -0.000
 99  3 29  1 21 30.0010000  0  8 22 10 26  5 23 17 30  6             0.001193317
  -5185517.444 8  -4027723.69245  24151487.816    24151487.3534   24151499.2274
        -0.000          -0.000
    239950.86017    564918.20854  24322373.545    24322372.2705          0.0005
        -0.000          -0.000
  -6840978.087 9  -4638343.83747  22773467.062    22773466.9974   22773475.3074
        -0.000          -0.000
  14882226.080 8  11953030.52145  25464502.697    25464502.0214   25464516.0194
        -0.000          -0.000
 -13657321.795 9 -10392785.94847  22561962.499    22561961.8384   22561971.1964
        -0.000          -0.000
 -17120543.122 9 -12932727.13248  21866478.593    21866477.9224   21866486.1444
        -0.000          -0.000
   -759887.701 9   -579089.29647  23063835.246    23063835.5094   23063843.7744
        -0.000          -0.000
 -20815624.488 9 -16074300.09849  20601185.523    20601185.3464   20601192.3684
        -0.000          -0.000
 99  3 29  1 22  0.0010000  0  8 22 10 26  5 23 17 30  6             0.001200283
  -5222534.344 8  -4056567.95245  24144444.014    24144443.5084   24144455.2724
        -0.000          -0.000
    353198.27917     68480.91252         0.000           0.0005          0.0005
        -0.000          -0.000
  -6887821.673 9  -4674845.27947  22764552.763    22764552.8084   22764561.1464
        -0.000          -0.000
  14996757.107 8  12042275.42045  25486297.538    25486296.7544   25486310.6374
        -0.000          -0.000
 -13724370.600 9 -10445031.66747  22549203.595    22549202.8624   22549212.0994
        -0.000          -0.000
 -17145233.235 9 -12951966.11048  21861780.307    21861779.6354   21861787.7134
        -0.000          -0.000
   -653029.289 9   -495823.04347  23084169.689    23084170.0024   23084177.9594
        -0.000          -0.000
 -20807754.396 9 -16068167.52749  20602683.321    20602683.0694   20602689.9234
        -0.000          -0.000
 99  3 29  1 22 30.0010000  0  8 22 10 26  5 23 17 30  6             0.001207221
  -5259117.151 8  -4085073.97645  24137483.640    24137482.7364   24137493.7654
        -0.000          -0.000
    466500.99917    156770.13952         0.000           0.0005          0.0005
        -0.000          -0.000
  -6934310.316 9  -4711070.07147  22755706.309    22755706.3024   22755714.7824
        -0.000          -0.000
  15111145.204 8  12131408.94345  25508065.159    25508064.1944   25508078.2074
        -0.000          -0.000
 -13791095.218 9 -10497024.77347  22536506.124    22536505.4524   22536514.7734
        -0.000          -0.000
 -17169732.847 9 -12971056.64448  21857118.345    21857117.5924   21857125.5504
        -0.000          -0.000
   -546041.349 9   -412455.86047  23104528.755    23104529.1084   23104537.0474
        -0.000          -0.000
 -20799515.278 9 -16061747.40549  20604251.194    20604250.9644   20604257.8014
        -0.000          -0.000
 99  3 29  1 23  0.0010000  0  8 22 10 26  5 23 17 30  6             0.001214147
  -5295247.531 8  -4113227.44545  24130608.881    24130607.7584   24130618.2144
        -0.000          -0.000
    579878.518 7    245117.86452         0.000           0.0004          0.0005
        -0.000          -0.000
  -6980400.329 9  -4746984.27747  22746935.586    22746935.6154   22746944.1274
        -0.000          -0.000
  15225419.041 8  12220453.40145  25529810.395    25529809.4814   25529823.9874
        -0.000          -0.000
 -13857493.106 9 -10548763.28547  22523870.943    22523870.3194   22523879.7604
        -0.000          -0.000
 -17194030.274 9 -12989989.64048  21852494.656    21852493.9534   21852501.8094
        -0.000          -0.000
   -438906.872 9   -328974.48147  23124915.606    23124915.9454   23124924.1424
        -0.000          -0.000
 -20790895.233 9 -16055030.46149  20605891.541    20605891.2594   20605898.0954
        -0.000          -0.000
 99  3 29  1 23 30.0010000  0  8 22 10 26  5 23 17 30  6             0.001221053
  -5330943.979 8  -4141042.77845  24123815.958    24123814.8414   24123825.0514
        -0.000          -0.000
    693339.90618     61248.83452         0.000           0.0005          0.0005
        -0.000          -0.000
  -7026092.196 9  -4782588.24647  22738240.633    22738240.6844   22738249.1314
        -0.000          -0.000
  15339564.129 8  12309397.54845  25551531.153    25551530.5134   25551545.2284
        -0.000          -0.000
 -13923568.818 9 -10600250.75748  22511297.057    22511296.5034   22511306.0904
        -0.000          -0.000
 -17218159.104 9 -13008791.26748  21847903.046    21847902.2924   21847910.2234
        -0.000          -0.000
   -331637.974 9   -245388.36247  23145327.904    23145328.3534   23145336.8074
        -0.000          -0.000
 -20781882.589 9 -16048007.58249  20607606.536    20607606.2514   20607613.1794
        -0.000          -0.000
 99  3 29  1 24  0.0010000  0  8 22 10 26  5 23 17 30  6             0.001227980
  -5366152.763 8  -4168478.14145  24117115.794    24117114.6394   24117124.5604
        -0.000          -0.000
    806945.386 8    149866.87352         0.000           0.0004          0.0005
        -0.000          -0.000
  -7071326.355 9  -4817835.51947  22729633.025    22729632.9634   22729641.3644
        -0.000          -0.000
  15453625.150 8  12398276.17345  25573236.130    25573235.6674   25573250.1654
        -0.000          -0.000
 -13989266.583 9 -10651443.72448  22498794.921    22498794.6094   22498804.1154
        -0.000          -0.000
 -17242083.196 9 -13027433.36748  21843350.158    21843349.4944   21843357.4434
        -0.000          -0.000
   -224169.927 9   -161647.07147  23165778.431    23165778.8744   23165787.3304
        -0.000          -0.000
 -20772408.352 9 -16040625.03049  20609409.361    20609409.1134   20609416.0574
        -0.000          -0.000
 99  3 29  1 24 30.0010000  0  8 22 10 26  5 23 17 30  6             0.001234912
  -5400897.094 8  -4195551.54045  24110504.048    24110502.4884   24110512.3044
        -0.000          -0.000
    920669.708 8    238593.87852         0.000           0.0004          0.0005
        -0.000          -0.000
  -7116130.020 9  -4852747.37047  22721107.137    22721107.0154   22721115.3974
        -0.000          -0.000
  15567551.249 8  12487049.70345  25594915.654    25594915.0604   25594929.2664
        -0.000          -0.000
 -14054619.134 9 -10702367.69448  22486358.803    22486358.4984   22486367.6184
        -0.000          -0.000
 -17265862.999 9 -13045963.01348  21838825.039    21838824.3374   21838832.0864
        -0.000          -0.000
   -116506.003 9    -77753.14447  23186266.593    23186266.9114   23186275.1384
        -0.000          -0.000
 -20762477.661 9 -16032886.79749  20611299.053    20611298.8054   20611305.8684
        -0.000          -0.000
 99  3 29  1 25  0.0010000  0  8 22 10 26  5 23 17 30  6             0.001241858
  -5435155.736 8  -4222246.47345  24103984.662    24103982.7904   24103993.1544
        -0.000          -0.000
   1034521.22018     55546.64752         0.000           0.0005          0.0005
        -0.000          -0.000
  -7160497.826 9  -4887319.58747  22712664.053    22712664.0504   22712672.3354
        -0.000          -0.000
  15681338.049 8  12575714.65845  25616568.689    25616568.0774   25616582.3144
        -0.000          -0.000
 -14119620.215 9 -10753017.78948  22473989.756    22473989.3304   22473998.0534
        -0.000          -0.000
 -17289517.126 9 -13064394.75348  21834323.575    21834323.0134   21834330.7554
        -0.000          -0.000
     -8629.415 9      6306.47647  23206795.156    23206795.3304   23206803.3504
        -0.000          -0.000
 -20752056.119 9 -16024766.10249  20613282.152    20613281.9324   20613289.0534
        -0.000          -0.000
 99  3 29  1 25 30.0010000  0  8 22 10 26  5 23 17 30  6             0.001248816
  -5468923.758 8  -4248559.10545  24097558.522    24097556.7894   24097567.2974
        -0.000          -0.000
   1148494.631 8    144352.23952         0.000           0.0004          0.0005
        -0.000          -0.000
  -7204435.487 9  -4921556.62647  22704302.887    22704302.8294   22704311.0484
        -0.000          -0.000
  15794981.383 8  12664267.78345  25638194.554    25638193.8684   25638207.7864
        -0.000          -0.000
 -14184257.218 9 -10803384.18248  22461690.014    22461689.4564   22461697.9194
        -0.000          -0.000
 -17313041.080 9 -13082725.04148  21829847.168    21829846.6024   21829854.2524
        -0.000          -0.000
     99461.354 9     90533.00147  23227364.155    23227364.3214   23227372.3224
        -0.000          -0.000
 -20741138.650 9 -16016258.96149  20615359.702    20615359.4644   20615366.6004
        -0.000          -0.000
 99  3 29  1 26  0.0010000  0  8 22 10 26  5 23 17 30  6             0.001255767
  -5502208.622 8  -4274495.30445  24091224.131    24091223.1524   24091233.4294
        -0.000          -0.000
   1262538.326 8    233211.26452         0.000           0.0004          0.0005
        -0.000          -0.000
  -7247974.871 9  -4955483.31747  22696017.275    22696017.3444   22696025.6024
        -0.000          -0.000
  15908456.473 8  12752689.88645  25659788.262    25659787.3214   25659801.1684
        -0.000          -0.000
 -14248565.984 9 -10853494.81148  22449452.487    22449451.8984   22449460.3934
        -0.000          -0.000
 -17336440.580 9 -13100958.36848  21825394.228    21825393.6554   21825401.4244
        -0.000          -0.000
    207744.152 9    174909.15847  23247969.654    23247969.8954   23247977.8984
        -0.000          -0.000
 -20729755.873 9 -16007389.24449  20617525.847    20617525.6144   20617532.6414
        -0.000          -0.000
 99  3 29  1 26 30.0010000  0  8 22 10 26  5 23 17 30  6             0.001262719
  -5534992.348 8  -4300040.94945  24084985.154    24084984.3834   24084994.6614
        -0.000          -0.000
   1376649.23918     48259.09252         0.000           0.0005          0.0005
        -0.000          -0.000
  -7291103.335 9  -4989089.83047  22687810.115    22687810.1364   22687818.5034
        -0.000          -0.000
  16021783.488 8  12840996.55845  25681353.525    25681352.1104   25681366.5084
        -0.000          -0.000
 -14312535.684 9 -10903341.24148  22437279.188    22437278.7654   22437287.2344
        -0.000          -0.000
 -17359699.946 9 -13119082.50648  21820968.011    21820967.5584   21820975.4214
        -0.000          -0.000
    316206.231 9    259424.99747  23268609.240    23268609.5474   23268617.7544
        -0.000          -0.000
 -20717914.747 9 -15998162.38449  20619779.168    20619778.8844   20619785.9314
        -0.000          -0.000
 99  3 29  1 27  0.0010000  0  8 22 10 26  5 23 17 30  6             0.001269671
  -5567275.980 8  -4325196.91145  24078841.895    24078840.6864   24078851.1034
        -0.000          -0.000
   1490824.890 8    137252.66652         0.000           0.0004          0.0005
        -0.000          -0.000
  -7333818.412 9  -5022374.22047  22679681.541    22679681.5934   22679690.1724
        -0.000          -0.000
  16134979.534 7  12929201.20744  25702893.655    25702892.5384   25702906.3294
        -0.000          -0.000
 -14376159.632 9 -10952918.24148  22425172.044    22425171.5374   22425179.8214
        -0.000          -0.000
 -17382798.499 9 -13137081.32448  21816572.575    21816572.0024   21816579.9474
        -0.000          -0.000
    424820.897 9    344059.75947  23289277.744    23289278.1094   23289286.7064
        -0.000          -0.000
 -20705640.815 9 -15988598.26249  20622114.703    20622114.4674   20622121.5834
        -0.000          -0.000
 99  3 29  1 27 30.0010000  0  8 22 10 26  5 23 17 30  6             0.001276612
  -5599087.436 8  -4349985.00945  24072789.060    24072787.4554   24072797.7874
        -0.000          -0.000
   1605050.713 7    226296.10152         0.000           0.0004          0.0005
        -0.000          -0.000
  -7376135.844 9  -5055348.76147  22671628.836    22671628.8784   22671637.4484
        -0.000          -0.000
  16248011.458 8  13017277.91545  25724402.505    25724401.4764   25724415.6564
        -0.000          -0.000
 -14439451.419 9 -11002236.40548  22413128.016    22413127.2864   22413135.7524
        -0.000          -0.000
 -17405732.726 9 -13154952.10248  21812208.235    21812207.6634   21812215.7034
        -0.000          -0.000
    533564.261 9    428794.80247  23309970.817    23309971.1634   23309980.1254
        -0.000          -0.000
 -20692967.690 9 -15978723.08249  20624526.303    20624526.0484   20624533.1624
        -0.000          -0.000
 99  3 29  1 28  0.0010000  0  8 22 10 26  5 23 17 30  6             0.001283530
  -5630440.185 8  -4374415.67445  24066823.011    24066821.4974   24066831.6104
        -0.000          -0.000
   1719313.20117     40904.64252         0.000           0.0005          0.0005
        -0.000          -0.000
  -7418057.530 9  -5088014.90047  22663651.366    22663651.4014   22663659.8744
        -0.000          -0.000
  16360851.848 8  13105205.41145  25745875.292    25745874.3534   25745888.4784
        -0.000          -0.000
 -14502426.685 9 -11051307.95248  22401143.629    22401143.1324   22401151.9664
        -0.000          -0.000
 -17428514.527 9 -13172704.10948  21807872.861    21807872.3644   21807880.4084
        -0.000          -0.000
    642402.707 9    513603.93247  23330682.008    23330682.2254   23330691.4724
        -0.000          -0.000
 -20679910.179 9 -15968548.37549  20627011.059    20627010.8184   20627017.8774
        -0.000          -0.000
 99  3 29  1 28 30.0010000  0  8 22 10 26  5 23 17 30  6             0.001290428
  -5661345.286 8  -4398497.47745  24060941.434    24060940.3484   24060950.2114
        -0.000          -0.000
   1833636.16017    129914.62952         0.000           0.0005          0.0005
        -0.000          -0.000
  -7459564.535 9  -5120357.90947  22655752.797    22655752.8494   22655761.3084
        -0.000          -0.000
  16473505.864 7  13192987.70344  25767312.731    25767311.7114   25767325.9684
        -0.000          -0.000
 -14565068.075 9 -11100119.33048  22389223.393    22389222.8834   22389231.7174
        -0.000          -0.000
 -17451145.684 9 -13190338.72848  21803566.326    21803565.7764   21803573.7294
        -0.000          -0.000
    751337.896 9    598488.42847  23351411.883    23351411.9644   23351421.0714
        -0.000          -0.000
 -20666458.639 9 -15958066.63849  20629570.824    20629570.5954   20629577.4874
        -0.000          -0.000
 99  3 29  1 29  0.0010000  0  7 22 26  5 23 17 30  6                0.001297271
  -5691800.757 8  -4422228.94845  24055145.487    24055144.7114   24055154.5974
        -0.000          -0.000
  -7500655.077 9  -5152376.39647  22647933.471    22647933.5624   22647942.0194
        -0.000          -0.000
  16585962.26616  13280616.02154  25788712.337    25788711.7665          0.0005
        -0.000          -0.000
 -14627384.343 9 -11148677.35848  22377365.242    22377364.6534   22377373.3424
        -0.000          -0.000
 -17473612.312 9 -13207845.14548  21799291.128    21799290.5554   21799298.4224
        -0.000          -0.000
    860380.645 9    683456.73747  23372162.509    23372162.3684   23372171.1474
        -0.000          -0.000
 -20652586.736 9 -15947257.34449  20632210.575    20632210.3184   20632217.1544
        -0.000          -0.000
 99  3 29  1 29 30.0010000  0  7 22 26  5 23 17 30  6                0.001304140
  -5721778.325 8  -4445588.04245  24049441.004    24049439.9904   24049450.1284
        -0.000          -0.000
  -7541303.456 9  -5184050.33947  22640198.370    22640198.3874   22640206.7944
        -0.000          -0.000
  16698236.86616  13368102.63953         0.000           0.0005          0.0005
        -0.000          -0.000
 -14689358.852 9 -11196969.07448  22365571.923    22365571.2474   22365579.9364
        -0.000          -0.000
 -17495910.500 9 -13225220.30948  21795048.066    21795047.3434   21795055.1484
        -0.000          -0.000
    969560.593 9    768531.97047  23392938.952    23392938.9354   23392947.4044
        -0.000          -0.000
 -20638252.130 9 -15936087.50449  20634938.295    20634938.0404   20634945.0394
        -0.000          -0.000
 99  3 29  1 30  0.0010000  0  6 22 26 23 17 30  6                   0.001311007
  -5751258.787 8  -4468559.75345  24043830.347    24043829.6944   24043840.3344
        -0.000          -0.000
  -7581486.781 9  -5215361.91447  22632551.664    22632551.7014   22632559.8764
        -0.000          -0.000
 -14750981.998 9 -11244987.02748  22353845.177    22353844.5864   22353853.3844
        -0.000          -0.000
 -17518032.538 9 -13242458.21448  21790838.296    21790837.5284   21790845.4234
        -0.000          -0.000
   1078896.737 9    853728.91747  23413744.909    23413744.9914   23413753.4834
        -0.000          -0.000
 -20623419.611 9 -15924529.67949  20637760.758    20637760.5464   20637767.6594
        -0.000          -0.000
 99  3 29  1 30 30.0010000  0  6 22 26 23 17 30  6                   0.001317849
  -5780284.680 8  -4491177.23445  24038306.641    24038305.9284   24038316.8004
        -0.000          -0.000
  -7621251.303 9  -5246347.14647  22624984.667    22624984.6894   22624992.7234
        -0.000          -0.000
 -14812293.853 9 -11292762.39948  22342177.581    22342177.1334   22342185.9084
        -0.000          -0.000
 -17540022.068 9 -13259592.86748  21786653.629    21786652.9344   21786660.9104
        -0.000          -0.000
   1188363.269 9    939027.48447  23434575.686    23434575.8604   23434584.5244
        -0.000          -0.000
 -20608124.790 9 -15912611.62249  20640671.315    20640671.0914   20640678.0794
        -0.000          -0.000
 99  3 29  1 31  0.0010000  0  7 22 26 23 21 17 30  6                0.001324687
  -5808814.962 8  -4513408.55245  24032877.363    24032876.5964   24032887.8024
        -0.000          -0.000
  -7660570.134 9  -5276985.07347  22617502.480    22617502.4594   22617510.4614
        -0.000          -0.000
 -14873259.619 9 -11340268.09348  22330576.250    22330575.6444   22330584.2584
        -0.000          -0.000
   -194374.93518   -138290.81352         0.000           0.0005          0.0005
        -0.000          -0.000
 -17561854.918 9 -13276605.42948  21782498.942    21782498.2804   21782506.1494
        -0.000          -0.000
   1297975.523 9   1024439.57147  23455434.294    23455434.3914   23455443.3224
        -0.000          -0.000
 -20592345.793 9 -15900316.28149  20643674.020    20643673.7824   20643680.5844
        -0.000          -0.000
 99  3 29  1 31 30.0010000  0  7 22 26 23 21 17 30  6                0.001331522
  -5836853.709 9  -4535256.85345  24027541.974    24027541.2094   24027552.1834
        -0.000          -0.000
  -7699441.022 9  -5307273.97947  22610105.313    22610105.2904   22610113.3354
        -0.000          -0.000
 -14933858.002 9 -11387487.50248  22319044.856    22319044.1574   22319052.5994
        -0.000          -0.000
   -279723.23618      -631.62252         0.000           0.0005          0.0005
        -0.000          -0.000
 -17583540.503 9 -13293503.23948  21778372.435    21778371.6974   21778379.5474
        -0.000          -0.000
   1407729.461 9   1109962.05247  23476319.881    23476319.9224   23476328.9764
        -0.000          -0.000
 -20576098.000 9 -15887655.64649  20646765.814    20646765.5924   20646772.3204
        -0.000          -0.000
 99  3 29  1 32  0.0010000  0  7 22 26 23 21 17 30  6                0.001338336
  -5864424.890 8  -4556740.80445  24022295.267    24022294.5234   24022305.3984
        -0.000          -0.000
  -7737888.846 9  -5337233.20747  22602788.744    22602788.7054   22602796.7114
        -0.000          -0.000
 -14994095.456 9 -11434425.67548  22307582.035    22307581.1934   22307589.6204
        -0.000          -0.000
   -364992.496 8    -67075.33742         0.000           0.0004          0.0004
        -0.000          -0.000
 -17605091.758 9 -13310296.37248  21774271.425    21774270.6764   21774278.4294
        -0.000          -0.000
   1517593.722 9   1195570.49947  23497226.449    23497226.4094   23497235.4724
        -0.000          -0.000
 -20559417.200 9 -15874657.59549  20649940.076    20649939.8244   20649946.5014
        -0.000          -0.000
 99  3 29  1 32 30.0010000  0  7 22 26 23 21 17 30  6                0.001345133
  -5891519.180 8  -4577853.14145  24017138.651    24017138.3324   24017149.3644
        -0.000          -0.000
  -7775913.120 9  -5366862.41247  22595552.640    22595552.7344   22595560.9134
        -0.000          -0.000
 -15053964.707 9 -11481076.95748  22296188.890    22296188.3204   22296196.8174
        -0.000          -0.000
   -450188.779 8   -133461.64752         0.000           0.0004          0.0005
        -0.000          -0.000
 -17626518.171 9 -13326992.22948  21770194.180    21770193.3594   21770201.1394
        -0.000          -0.000
   1627551.691 9   1281251.97947  23518150.602    23518150.6344   23518159.8754
        -0.000          -0.000
 -20542318.453 9 -15861333.89549  20653193.810    20653193.5824   20653200.3504
        -0.000          -0.000
 99  3 29  1 33  0.0010000  0  7 22 26 23 21 17 30  6                0.001351909
  -5918143.127 8  -4598599.02445  24012072.108    24012071.9294   24012082.9324
        -0.000          -0.000
  -7813512.492 9  -5396160.51747  22588397.850    22588397.8584   22588406.1024
        -0.000          -0.000
 -15113470.096 9 -11527444.69448  22284865.422    22284864.8294   22284873.3334
        -0.000          -0.000
   -535338.65018   -199812.03854         0.000           0.0005   25693279.6705
        -0.000          -0.000
 -17647824.196 9 -13343594.27348  21766139.559    21766138.8164   21766146.6414
        -0.000          -0.000
   1737574.002 9   1366983.59247  23539087.060    23539087.1894   23539096.4344
        -0.000          -0.000
 -20524806.584 9 -15847688.27849  20656526.154    20656525.9054   20656532.7434
        -0.000          -0.000
 99  3 29  1 33 30.0010000  0  7 22 26 23 21 17 30  6                0.001358704
  -5944231.874 8  -4618927.81245  24007107.269    24007107.2464   24007118.0744
        -0.000          -0.000
  -7850616.044 9  -5425072.27147  22581337.208    22581337.2654   22581345.5514
        -0.000          -0.000
 -15172567.030 9 -11573494.15848  22273619.591    22273618.9654   22273627.5414
        -0.000          -0.000
   -620362.70318   -266064.15245  25677087.321    25677086.4835   25677100.2354
        -0.000          -0.000
 -17668937.957 9 -13360046.50048  21762121.473    21762120.7884   21762128.6224
        -0.000          -0.000
   1847729.489 9   1452818.98947  23560049.071    23560049.2574   23560058.3964
        -0.000          -0.000
 -20506803.844 9 -15833660.15649  20659951.900    20659951.6834   20659958.5854
        -0.000          -0.000
 99  3 29  1 34  0.0010000  0  7 22 26 23 21 17 30  6                0.001365507
  -5969805.677 9  -4638855.38245  24002241.222    24002240.9444   24002251.3584
        -0.000          -0.000
  -7887239.122 9  -5453609.62847  22574367.909    22574367.8614   22574376.3554
        -0.000          -0.000
 -15231299.636 9 -11619259.71648  22262443.005    22262442.4124   22262451.0384
        -0.000          -0.000
   -705283.101 8   -332235.53345  25660927.335    25660926.9504   25660940.4614
        -0.000          -0.000
 -17689883.063 9 -13376367.31748  21758135.596    21758135.0274   21758142.8784
        -0.000          -0.000
   1957991.628 9   1538737.48547  23581031.409    23581031.4024   23581040.6844
        -0.000          -0.000
 -20488320.183 9 -15819257.28549  20663469.228    20663468.9484   20663475.8694
        -0.000          -0.000
 99  3 29  1 34 30.0010000  0  7 22 26 23 21 17 30  6                0.001372314
  -5994878.482 8  -4658392.57845  23997470.364    23997469.9574   23997479.8674
        -0.000          -0.000
  -7923384.041 9  -5481774.40147  22567489.420    22567489.5424   22567497.9674
        -0.000          -0.000
 -15289702.739 9 -11664768.53148  22251329.147    22251328.5464   22251337.1644
        -0.000          -0.000
   -790126.073 8   -398346.54845  25644782.381    25644781.3584   25644795.1024
        -0.000          -0.000
 -17710671.913 9 -13392566.37348  21754179.715    21754179.1154   21754186.9584
        -0.000          -0.000
   2068345.620 9   1624727.55646  23602030.673    23602030.9454   23602040.3854
        -0.000          -0.000
 -20469364.975 9 -15804486.97149  20667076.178    20667075.9514   20667082.8524
        -0.000          -0.000
 99  3 29  1 35  0.0010000  0  7 22 26 23 21 17 30  6                0.001379136
  -6019432.273 8  -4677525.30245  23992797.960    23992797.5914   23992807.2814
        -0.000          -0.000
  -7959039.828 9  -5509558.04447  22560704.207    22560704.3704   22560712.9044
        -0.000          -0.000
 -15347761.282 9 -11710008.86448  22240280.789    22240280.2844   22240288.8654
        -0.000          -0.000
   -874862.627 8   -464374.67445  25628657.640    25628656.7104   25628670.4204
        -0.000          -0.000
 -17731279.407 9 -13408624.09648  21750258.482    21750257.7804   21750265.4064
        -0.000          -0.000
   2178818.255 9   1710810.07646  23623052.626    23623052.9414   23623062.5604
        -0.000          -0.000
 -20449921.665 9 -15789336.31449  20670776.085    20670775.8804   20670782.7614
        -0.000          -0.000
 99  3 29  1 35 30.0010000  0  7 22 26 23 21 17 30  6                0.001385966
  -6043490.630 9  -4696271.99945  23988220.069    23988219.5614   23988229.0214
        -0.000          -0.000
  -7994241.917 9  -5536988.15747  22554005.288    22554005.4974   22554014.0304
        -0.000          -0.000
 -15405504.861 9 -11755003.77348  22229292.518    22229292.0714   22229300.4534
        -0.000          -0.000
   -959505.411 8   -530329.72145  25612550.812    25612550.0114   25612563.4134
        -0.000          -0.000
 -17751735.881 9 -13424564.16048  21746365.700    21746364.9854   21746372.6134
        -0.000          -0.000
   2289398.967 9   1796976.81546  23644095.647    23644095.8824   23644105.3164
        -0.000          -0.000
 -20430035.650 9 -15773840.70349  20674560.249    20674560.0304   20674566.8994
        -0.000          -0.000
 99  3 29  1 36  0.0010000  0  7 22 26 23 21 17 30  6                0.001392811
  -6067040.572 8  -4714622.53045  23983739.055    23983738.5434   23983747.6254
        -0.000          -0.000
  -8028981.491 9  -5564057.86947  22547394.590    22547394.7734   22547403.1784
        -0.000          -0.000
 -15462889.683 9 -11799719.13948  22218372.697    22218372.1614   22218380.3114
        -0.000          -0.000
  -1044043.679 8   -596203.31845  25596464.169    25596462.9294   25596476.5404
        -0.000          -0.000
 -17772023.010 9 -13440372.26448  21742505.124    21742504.4184   21742512.0964
        -0.000          -0.000
   2400107.823 9   1883243.42246  23665163.240    23665163.3384   23665172.3034
        -0.000          -0.000
 -20409707.984 9 -15758000.96249  20678428.519    20678428.2724   20678435.1234
        -0.000          -0.000
 99  3 29  1 36 30.0010000  0  7 22 26 23 21 17 30  6                0.001399658
  -6090099.042 9  -4732590.09245  23979351.354    23979350.6214   23979359.9384
        -0.000          -0.000
  -8063285.860 9  -5590788.44847  22540866.868    22540866.9624   22540875.1804
        -0.000          -0.000
 -15519924.570 9 -11844161.82748  22207519.239    22207518.7154   22207526.8114
        -0.000          -0.000
  -1128499.248 8   -662012.48445  25580392.692    25580391.1054   25580405.2294
        -0.000          -0.000
 -17792163.285 9 -13456065.94548  21738672.362    21738671.6314   21738679.3024
        -0.000          -0.000
   2510921.407 9   1969591.62346  23686250.546    23686250.5204   23686259.3634
        -0.000          -0.000
 -20388976.128 9 -15741846.26649  20682373.598    20682373.3514   20682380.2434
        -0.000          -0.000
 99  3 29  1 37  0.0010000  0  7 22 26 23 21 17 30  6                0.001406505
  -6112656.910 8  -4750167.56045  23975058.759    23975058.0734   23975067.6064
        -0.000          -0.000
  -8097143.820 9  -5617171.19547  22534424.037    22534424.0534   22534432.0034
        -0.000          -0.000
 -15576577.091 9 -11888306.55348  22196738.685    22196738.0884   22196746.0814
        -0.000          -0.000
  -1212854.762 8   -727743.68745  25564339.577    25564338.2884   25564352.8214
        -0.000          -0.000
 -17812142.185 9 -13471633.86348  21734870.402    21734869.7434   21734877.3144
        -0.000          -0.000
   2621856.399 9   2056034.42546  23707360.781    23707360.7854   23707369.4654
        -0.000          -0.000
 -20367819.125 9 -15725360.27549  20686399.561    20686399.3344   20686406.2304
        -0.000          -0.000
 99  3 29  1 37 30.0010000  0  7 22 26 23 21 17 30  6                0.001413355
  -6134704.790 9  -4767347.65645  23970863.083    23970862.3774   23970872.1094
        -0.000          -0.000
  -8130529.666 9  -5643186.04347  22528070.870    22528070.8714   22528078.6984
        -0.000          -0.000
 -15632827.210 9 -11932137.71348  22186034.579    22186033.8994   22186041.9274
        -0.000          -0.000
  -1297102.779 8   -793391.13445  25548307.840    25548306.3264   25548320.9404
        -0.000          -0.000
 -17831945.382 9 -13487064.87448  21731101.987    21731101.3524   21731108.8394
        -0.000          -0.000
   2732910.325 9   2142569.90346  23728493.576    23728493.6764   23728502.2604
        -0.000          -0.000
 -20346213.861 9 -15708524.98449  20690510.899    20690510.6784   20690517.5024
        -0.000          -0.000
 99  3 29  1 38  0.0010000  0  7 22 26 23 21 17 30  6                0.001420201
  -6156242.793 9  -4784130.43845  23966764.780    23966763.9044   23966773.2014
        -0.000          -0.000
  -8163424.570 9  -5668818.35547  22521811.031    22521811.0754   22521818.8184
        -0.000          -0.000
 -15688665.625 9 -11975648.08948  22175408.577    22175408.0454   22175416.2784
        -0.000          -0.000
  -1381229.028 9   -858943.66345  25532299.283    25532297.4794   25532312.4854
        -0.000          -0.000
 -17851565.669 9 -13502353.35948  21727368.415    21727367.6874   21727375.2504
        -0.000          -0.000
   2844068.745 9   2229186.78246  23749646.202    23749646.3124   23749655.0684
        -0.000          -0.000
 -20324131.547 9 -15691317.97149  20694713.091    20694712.8484   20694719.6654
        -0.000          -0.000
 99  3 29  1 38 30.0010000  0  7 22 26 23 21 17 30  6                0.001427017
  -6177309.660 8  -4800546.10245  23962755.513    23962754.7414   23962763.9094
        -0.000          -0.000
  -8195853.363 9  -5694087.45447  22515639.992    22515640.0574   22515647.8054
        -0.000          -0.000
 -15744136.918 9 -12018872.38248  22164852.735    22164852.1824   22164860.5864
        -0.000          -0.000
  -1465255.377 8   -924418.37645  25516309.286    25516307.6384   25516322.4474
        -0.000          -0.000
 -17871048.541 9 -13517534.77148  21723660.753    21723660.1334   21723667.9074
        -0.000          -0.000
   2955284.236 9   2315848.15446  23770809.708    23770809.8124   23770818.8534
        -0.000          -0.000
 -20301587.811 9 -15673751.40649  20699003.057    20699002.7694   20699009.5464
        -0.000          -0.000
 99  3 29  1 39  0.0010000  0  7 22 26 23 21 17 30  6                0.001433799
  -6197894.804 8  -4816586.37745  23958837.539    23958837.2124   23958846.8724
        -0.000          -0.000
  -8227793.709 9  -5718975.92747  22509561.761    22509561.8854   22509569.7964
        -0.000          -0.000
 -15799211.029 9 -12061787.18648  22154372.360    22154371.7884   22154380.4064
        -0.000          -0.000
  -1549154.005 8   -989793.61345  25500342.923    25500342.0514   25500356.3084
        -0.000          -0.000
 -17890377.876 9 -13532596.53248  21719982.426    21719981.7904   21719989.6074
        -0.000          -0.000
   3066559.891 9   2402556.42046  23791984.726    23791984.8114   23791994.0494
        -0.000          -0.000
 -20278550.282 9 -15655800.06749  20703386.877    20703386.6144   20703393.4634
        -0.000          -0.000
 99  3 29  1 39 30.0010000  0  7 22 26 23 21 17 30  6                0.001440548
  -6218007.923 8  -4832258.85545  23955009.997    23955009.6024   23955019.4384
        -0.000          -0.000
  -8259259.469 9  -5743494.61147  22503573.888    22503574.0404   22503581.9794
        -0.000          -0.000
 -15853911.359 9 -12104410.74148  22143962.942    22143962.5044   22143971.2544
        -0.000          -0.000
  -1632938.132 9  -1055079.63045  25484398.780    25484398.2784   25484412.3204
        -0.000          -0.000
 -17909564.733 9 -13547547.28448  21716331.193    21716330.6174   21716338.4604
        -0.000          -0.000
   3177881.705 9   2489300.62046  23813168.955    23813168.9554   23813178.0694
        -0.000          -0.000
 -20255041.097 9 -15637481.21149  20707860.447    20707860.2274   20707867.1474
        -0.000          -0.000
 99  3 29  1 40  0.0010000  0  7 22 26 23 21 17 30  6                0.001447281
  -6237627.635 8  -4847546.87245  23951276.276    23951275.8674   23951285.7774
        -0.000          -0.000
  -8290233.843 9  -5767630.41047  22497679.574    22497679.7314   22497687.7214
        -0.000          -0.000
 -15908221.739 9 -12146730.44048  22133627.931    22133627.4884   22133636.1004
        -0.000          -0.000
  -1716590.238 8  -1120262.76645  25468480.321    25468479.4804   25468493.4454
        -0.000          -0.000
 -17928593.773 9 -13562375.06648  21712710.223    21712709.5844   21712717.3304
        -0.000          -0.000
   3289279.554 9   2576104.05546  23834367.779    23834367.6304   23834376.5714
        -0.000          -0.000
 -20231045.767 9 -15618783.53649  20712426.697    20712426.4364   20712433.3054
        -0.000          -0.000
 99  3 29  1 40 30.0010000  0  7 22 26 23 21 17 30  6                0.001454001
  -6256747.952 8  -4862445.75345  23947637.603    23947637.1874   23947647.1524
        -0.000          -0.000
  -8320728.986 9  -5791392.77747  22491876.614    22491876.7284   22491884.5974
        -0.000          -0.000
 -15962150.077 9 -12188752.43648  22123365.740    22123365.2534   22123373.5804
        -0.000          -0.000
  -1800130.914 8  -1185359.08645  25452582.595    25452581.7854   25452595.2244
        -0.000          -0.000
 -17947477.530 9 -13577089.63248  21709116.958    21709116.2314   21709123.7564
        -0.000          -0.000
   3400749.314 9   2662963.55046  23855580.126    23855579.8464   23855588.8744
        -0.000          -0.000
 -20206585.006 9 -15599723.19049  20717081.446    20717081.2234   20717088.0024
        -0.000          -0.000
 99  3 29  1 41  0.0010000  0  7 22 26 23 21 17 30  6                0.001460724
  -6275362.510 8  -4876950.53645  23944095.534    23944094.5294   23944104.8074
        -0.000          -0.000
  -8350738.968 9  -5814777.09447  22486165.942    22486166.0014   22486173.6954
        -0.000          -0.000
 -16015712.924 9 -12230489.62948  22113173.034    22113172.4604   22113180.6764
        -0.000          -0.000
  -1883564.370 8  -1250371.83545  25436705.221    25436704.5664   25436717.6094
        -0.000          -0.000
 -17966211.418 9 -13591687.42148  21705552.006    21705551.2994   21705558.7864
        -0.000          -0.000
   3512285.544 9   2749874.83146  23876804.449    23876804.2934   23876813.8384
        -0.000          -0.000
 -20181673.681 9 -15580311.76049  20721821.992    20721821.7214   20721828.3834
        -0.000          -0.000
 99  3 29  1 41 30.0010000  0  7 22 26 23 21 17 30  6                0.001467447
  -6293489.643 8  -4891075.50345  23940645.755    23940644.8284   23940655.2204
        -0.000          -0.000
  -8380274.022 9  -5837791.33547  22480545.714    22480545.7224   22480553.1084
        -0.000          -0.000
 -16068947.381 9 -12271970.94448  22103042.622    22103042.1424   22103050.3464
        -0.000          -0.000
  -1966905.552 8  -1315312.69445  25420845.650    25420845.0464   25420857.9174
        -0.000          -0.000
 -17984817.051 9 -13606185.27248  21702011.478    21702010.7514   21702018.2854
        -0.000          -0.000
   3623879.245 9   2836830.89446  23898039.542    23898039.6024   23898049.6044
        -0.000          -0.000
 -20156331.830 9 -15560564.85149  20726644.366    20726644.1634   20726650.7534
        -0.000          -0.000
 99  3 29  1 42  0.0010000  0  7 22 26 23 21 17 30  6                0.001474181
  -6311110.615 8  -4904806.04345  23937291.539    23937291.1384   23937301.9064
        -0.000          -0.000
  -8409299.221 9  -5860408.27947  22475022.466    22475022.4364   22475029.6134
        -0.000          -0.000
 -16121828.424 9 -12313176.87948  22092979.810    22092979.2494   22092987.4794
        -0.000          -0.000
  -2050120.558 8  -1380155.20545  25405010.030    25405009.2304   25405022.0584
        -0.000          -0.000
 -18003284.361 9 -13620575.33648  21698497.190    21698496.4944   21698504.0294
        -0.000          -0.000
   3735536.925 9   2923836.80846  23919286.988    23919287.2324   23919297.3354
        -0.000          -0.000
 -20130521.277 9 -15540452.71849  20731556.001    20731555.7634   20731562.3874
        -0.000          -0.000
 99  3 29  1 42 30.0010000  0  7 22 26 23 21 17 30  6                0.001480889
  -6328232.472 8  -4918147.67545  23934032.887    23934032.7054   23934043.9834
        -0.000          -0.000
  -8437813.629 9  -5882627.21247  22469596.457    22469596.3324   22469603.5074
        -0.000          -0.000
 -16174354.824 9 -12354106.46148  22082984.355    22082983.8584   22082992.0754
        -0.000          -0.000
  -2133192.680 8  -1444886.42445  25389201.414    25389200.4634   25389213.8464
        -0.000          -0.000
 -18021617.591 9 -13634860.91948  21695008.392    21695007.6494   21695015.1674
        -0.000          -0.000
   3847243.987 9   3010881.21446  23940544.565    23940544.7544   23940554.2454
        -0.000          -0.000
 -20104233.301 9 -15519968.56249  20736558.406    20736558.2004   20736564.8874
        -0.000          -0.000
 99  3 29  1 43  0.0010000  0  7 22 26 23 21 17 30  6                0.001487619
  -6344900.923 8  -4931136.01945  23930860.859    23930860.7404   23930872.4834
        -0.000          -0.000
  -8465845.346 9  -5904470.02747  22464262.156    22464262.0454   22464269.3084
        -0.000          -0.000
 -16226554.708 9 -12394781.60148  22073051.204    22073050.5754   22073058.8504
        -0.000          -0.000
  -2216149.686 8  -1509527.96045  25373414.390    25373413.9524   25373427.3324
        -0.000          -0.000
 -18039837.564 9 -13649058.25048  21691541.265    21691540.5394   21691547.9224
        -0.000          -0.000
   3958975.576 9   3097944.73846  23961807.118    23961807.1254   23961815.9324
        -0.000          -0.000
 -20077486.141 9 -15499126.61549  20741648.263    20741648.0064   20741654.6294
        -0.000          -0.000
 99  3 29  1 43 30.0010000  0  7 22 26 23 21 17 30  6                0.001494350
  -6361064.478 8  -4943730.97445  23927785.880    23927785.2484   23927796.6934
        -0.000          -0.000
  -8493351.974 9  -5925903.68247  22459027.818    22459027.7184   22459034.9754
        -0.000          -0.000
 -16278354.626 9 -12435145.09848  22063193.861    22063193.3394   22063201.6174
        -0.000          -0.000
  -2298956.819 9  -1574052.72145  25357656.758    25357656.2004   25357669.5204
        -0.000          -0.000
 -18057889.167 9 -13663124.38348  21688106.191    21688105.3684   21688112.7104
        -0.000          -0.000
   4070786.560 9   3185070.12546  23983084.457    23983084.3054   23983092.8034
        -0.000          -0.000
 -20050217.274 9 -15477878.14049  20746837.378    20746837.1334   20746843.6624
        -0.000          -0.000
 99  3 29  1 44  0.0010000  0  7 22 26 23 21 17 30  6                0.001501060
  -6376729.236 8  -4955937.21445  23924805.608    23924804.5624   23924815.5674
        -0.000          -0.000
  -8520350.761 9  -5946941.61347  22453889.993    22453889.8664   22453897.2444
        -0.000          -0.000
 -16329754.179 9 -12475196.61048  22053412.842    22053412.2904   22053420.4714
        -0.000          -0.000
  -2381647.010 9  -1638486.35445  25341921.718    25341920.7834   25341934.0504
        -0.000          -0.000
 -18075781.865 9 -13677066.70848  21684701.010    21684700.2754   21684707.7954
        -0.000          -0.000
   4182651.755 9   3272237.74546  24004371.723    24004371.5404   24004380.0884
        -0.000          -0.000
 -20022446.387 9 -15456238.47049  20752122.108    20752121.8354   20752128.2184
        -0.000          -0.000
 99  3 29  1 44 30.0010000  0  7 22 26 23 21 17 30  6                0.001507735
  -6391903.642 8  -4967761.35546  23921918.239    23921917.1714   23921927.8564
        -0.000          -0.000
  -8546861.389 9  -5967599.17147  22448844.856    22448844.8284   22448852.2844
        -0.000          -0.000
 -16380769.559 9 -12514948.77348  22043704.876    22043704.3014   22043712.4784
        -0.000          -0.000
  -2464251.161 9  -1702852.95145  25326202.656    25326201.4564   25326214.9004
        -0.000          -0.000
 -18093520.070 9 -13690888.64048  21681325.311    21681324.6424   21681332.3824
        -0.000          -0.000
   4294564.352 9   3359442.30046  24025667.956    24025667.6474   24025676.6204
        -0.000          -0.000
 -19994199.427 9 -15434227.83349  20757497.243    20757497.0244   20757503.3104
        -0.000          -0.000
 99  3 29  1 45  0.0010000  0  7 22 26 23 21 17 30  6                0.001514386
  -6406576.700 9  -4979194.84046  23919126.309    23919125.0644   23919135.5634
        -0.000          -0.000
  -8572865.281 9  -5987861.84447  22443896.306    22443896.2444   22443903.7484
        -0.000          -0.000
 -16431393.446 9 -12554395.86748  22034071.428    22034070.8314   22034078.9214
        -0.000          -0.000
  -2546783.109 8  -1767163.29345  25310496.787    25310495.7504   25310509.1844
        -0.000          -0.000
 -18111107.078 9 -13704592.76648  21677978.438    21677977.8384   21677985.7844
        -0.000          -0.000
   4406521.689 9   3446681.74246  24046972.662    24046972.3684   24046981.4774
        -0.000          -0.000
 -19965486.172 9 -15411853.85649  20762961.212    20762960.9714   20762967.2404
        -0.000          -0.000
 99  3 29  1 45 30.0010000  0  7 22 26 23 21 17 30  6                0.001521034
  -6420720.139 9  -4990215.63546  23916435.224    23916433.8664   23916444.0284
        -0.000          -0.000
  -8598350.700 9  -6007720.54847  22439046.545    22439046.5014   22439053.9234
        -0.000          -0.000
 -16481620.053 9 -12593533.41448  22024513.425    22024512.9474   22024520.9734
        -0.000          -0.000
  -2629230.456 8  -1831407.71945  25294806.647    25294806.1114   25294819.3184
        -0.000          -0.000
 -18128556.563 9 -13718189.72048  21674658.095    21674657.3974   21674665.2304
        -0.000          -0.000
   4518511.373 9   3533946.36746  24068283.231    24068283.1644   24068292.4834
        -0.000          -0.000
 -19936318.550 9 -15389125.82849  20768511.564    20768511.3294   20768517.6524
        -0.000          -0.000
 99  3 29  1 46  0.0010000  0  7 22 26 23 21 17 30  6                0.001527697
  -6434324.897 9  -5000816.70646  23913846.983    23913845.4494   23913854.7924
        -0.000          -0.000
  -8623313.130 9  -6027171.68847  22434296.328    22434296.2404   22434303.7424
        -0.000          -0.000
 -16531455.989 9 -12632366.52648  22015029.940    22015029.4524   22015037.4024
        -0.000          -0.000
  -2711565.419 8  -1895564.55545  25279138.576    25279138.0884   25279150.8914
        -0.000          -0.000
 -18145866.334 9 -13731677.80848  21671364.286    21671363.5574   21671371.1774
        -0.000          -0.000
   4630530.346 9   3621233.83346  24089599.693    24089599.8564   24089609.1034
        -0.000          -0.000
 -19906706.873 9 -15366051.78449  20774146.481    20774146.2284   20774152.6134
        -0.000          -0.000
 99  3 29  1 46 30.0010000  0  7 22 26 23 21 17 30  6                0.001534363
  -6447404.518 9  -5011008.54446  23911357.808    23911356.4424   23911365.7334
        -0.000          -0.000
  -8647769.219 9  -6046228.29447  22429642.439    22429642.3624   22429649.8094
        -0.000          -0.000
 -16580915.656 9 -12670906.44848  22005618.007    22005617.4984   22005625.5434
        -0.000          -0.000
  -2793787.899 8  -1959633.71145  25263491.879    25263491.3494   25263503.9294
        -0.000          -0.000
 -18163046.672 9 -13745065.04148  21668094.968    21668094.2404   21668101.7334
        -0.000          -0.000
   4742562.192 9   3708531.30546  24110918.915    24110919.0084   24110928.1194
        -0.000          -0.000
 -19876666.243 9 -15342643.48449  20779862.945    20779862.7114   20779869.2364
        -0.000          -0.000
 99  3 29  1 47  0.0010000  0  7 22 26 23 21 17 30  6                0.001541049
  -6459942.405 9  -5020778.25246  23908971.736    23908970.4354   23908979.9534
        -0.000          -0.000
  -8671701.295 9  -6064876.59247  22425088.070    22425088.0254   22425095.6154
        -0.000          -0.000
 -16629964.819 9 -12709126.49948  21996284.264    21996283.6504   21996291.7954
        -0.000          -0.000
  -2875857.331 8  -2023583.63445  25247874.405    25247873.9324   25247886.4054
        -0.000          -0.000
 -18180070.038 9 -13758329.96248  21664855.460    21664854.8234   21664862.2904
        -0.000          -0.000
   4854625.550 9   3795853.35646  24132244.161    24132244.1454   24132253.1144
        -0.000          -0.000
 -19846176.135 9 -15318884.95349  20785664.946    20785664.7044   20785671.3854
        -0.000          -0.000
 99  3 29  1 47 30.0010000  0  7 22 26 23 21 17 30  6                0.001547735
  -6471950.489 9  -5030135.12546  23906686.395    23906685.1664   23906694.8524
        -0.000          -0.000
  -8695126.901 9  -6083130.21447  22420630.165    22420630.1514   22420637.8664
        -0.000          -0.000
 -16678614.988 9 -12747035.65048  21987026.300    21987025.7294   21987033.8874
        -0.000          -0.000
  -2957757.555 8  -2087401.68545  25232289.140    25232288.5714   25232301.3974
        -0.000          -0.000
 -18196911.701 9 -13771453.30648  21661650.572    21661649.8724   21661657.4794
        -0.000          -0.000
   4966726.182 9   3883204.43946  24153576.240    24153576.1384   24153585.3724
        -0.000          -0.000
 -19815230.516 9 -15294771.47749  20791553.606    20791553.3974   20791560.2104
        -0.000          -0.000
 99  3 29  1 48  0.0010000  0  7 22 26 23 21 17 30  6                0.001554395
  -6483487.053 9  -5039124.59246  23904491.121    23904489.9454   23904499.3084
        -0.000          -0.000
  -8718071.868 9  -6101009.32347  22416263.781    22416263.8244   22416271.5034
        -0.000          -0.000
 -16726899.103 9 -12784659.55748  21977837.955    21977837.4504   21977845.7224
        -0.000          -0.000
  -3039515.120 8  -2151108.58945  25216730.869    25216730.0724   25216743.3884
        -0.000          -0.000
 -18213587.955 9 -13784447.75548  21658477.193    21658476.5384   21658484.0504
        -0.000          -0.000
   5078832.900 9   3970560.24946  24174909.464    24174909.1694   24174918.7754
        -0.000          -0.000
 -19783842.007 9 -15270312.88349  20797526.587    20797526.4124   20797533.3084
        -0.000          -0.000
 99  3 29  1 48 30.0010000  0  7 22 26 23 21 17 30  6                0.001561043
  -6494535.792 9  -5047733.94746  23902389.193    23902387.9404   23902396.5574
        -0.000          -0.000
  -8740496.145 9  -6118482.70147  22411996.507    22411996.5184   22412004.2594
        -0.000          -0.000
 -16774785.049 9 -12821973.20848  21968725.584    21968725.0884   21968733.3634
        -0.000          -0.000
  -3121105.255 8  -2214685.05545  25201204.054    25201203.4604   25201217.2574
        -0.000          -0.000
 -18230087.563 9 -13797304.54948  21655337.648    21655336.8924   21655344.1324
        -0.000          -0.000
   5190979.810 9   4057947.38346  24196250.360    24196250.0044   24196259.7354
        -0.000          -0.000
 -19751971.620 9 -15245478.81049  20803591.404    20803591.1934   20803597.9654
        -0.000          -0.000
 99  3 29  1 49  0.0010000  0  7 22 26 23 21 17 30  6                0.001567686
  -6505110.425 9  -5055973.85546  23900377.014    23900375.7844   23900384.1064
        -0.000          -0.000
  -8762394.201 9  -6135546.02647  22407829.497    22407829.5024   22407837.1374
        -0.000          -0.000
 -16822292.783 9 -12858992.14648  21959685.282    21959684.6674   21959692.8324
        -0.000          -0.000
  -3202525.019 9  -2278128.75845  25185710.620    25185709.7964   25185723.3064
        -0.000          -0.000
 -18246421.178 9 -13810032.00848  21652229.507    21652228.6744   21652235.8364
        -0.000          -0.000
   5303169.735 9   4145368.04746  24217599.325    24217599.0754   24217608.7964
        -0.000          -0.000
 -19719618.071 9 -15220268.23249  20809748.077    20809747.9114   20809754.5094
        -0.000          -0.000
 99  3 29  1 49 30.0010000  0  7 22 26 23 21 17 30  6                0.001574343
  -6515179.924 9  -5063820.13546  23898460.952    23898459.6814   23898467.8654
        -0.000          -0.000
  -8783744.679 9  -6152182.67347  22403766.654    22403766.6064   22403774.1564
        -0.000          -0.000
 -16869417.144 9 -12895712.35648  21950717.737    21950717.1654   21950725.1844
        -0.000          -0.000
  -3283764.453 9  -2341431.91645  25170252.077    25170250.7184   25170263.7424
        -0.000          -0.000
 -18262586.267 9 -13822628.13948  21649153.369    21649152.5144   21649159.6144
        -0.000          -0.000
   5415420.481 9   4232836.11146  24238959.658    24238959.4794   24238969.3974
        -0.000          -0.000
 -19686750.905 9 -15194657.44349  20816002.572    20816002.3524   20816008.8914
        -0.000          -0.000
 99  3 29  1 50  0.0010000  0  7 22 26 23 21 17 30  6                0.001580984
  -6524768.459 9  -5071291.65346  23896636.395    23896635.0344   23896643.2544
        -0.000          -0.000
  -8804579.684 9  -6168417.64547  22399801.783    22399801.8004   22399809.2384
        -0.000          -0.000
 -16916177.027 9 -12932148.56448  21941819.574    21941818.9054   21941826.8584
        -0.000          -0.000
  -3364871.592 8  -2404631.98945  25154817.826    25154816.5534   25154829.3114
        -0.000          -0.000
 -18278644.742 9 -13835141.20348  21646097.297    21646096.5494   21646103.7614
        -0.000          -0.000
   5527693.160 9   4320321.24246  24260323.829    24260323.7984   24260333.9864
        -0.000          -0.000
 -19653399.620 9 -15168669.42349  20822348.970    20822348.7684   20822355.4354
        -0.000          -0.000
 99  3 29  1 50 30.0010000  0  7 22 26 23 21 17 30  6                0.001587616
  -6533856.859 9  -5078373.44746  23894906.811    23894905.4124   23894913.6634
        -0.000          -0.000
  -8824898.697 9  -6184250.56847  22395935.284    22395935.2664   22395942.5664
        -0.000          -0.000
 -16962563.791 9 -12968294.02448  21932992.230    21932991.5864   21932999.4614
        -0.000          -0.000
  -3445847.371 8  -2467729.73245  25139407.905    25139407.2814   25139419.8004
        -0.000          -0.000
 -18294593.559 9 -13847568.83248  21643062.170    21643061.4714   21643068.9934
        -0.000          -0.000
   5639987.539 8   4407823.30446  24281692.352    24281692.3254   24281702.7284
        -0.000          -0.000
 -19619569.357 9 -15142308.17049  20828786.592    20828786.4114   20828793.1714
        -0.000          -0.000
 99  3 29  1 51  0.0010000  0  7 22 26 23 21 17 30  6                0.001594254
  -6542411.377 9  -5085039.24146  23893278.658    23893277.2784   23893285.8664
        -0.000          -0.000
  -8844671.258 9  -6199657.68847  22392172.672    22392172.6114   22392179.8394
        -0.000          -0.000
 -17008549.938 9 -13004127.32048  21924241.175    21924240.6044   21924248.2574
        -0.000          -0.000
  -3526671.237 8  -2530709.09545  25124027.277    25124026.7494   25124039.1224
        -0.000          -0.000
 -18310387.352 9 -13859875.64848  21640056.566    21640055.9114   21640063.5474
        -0.000          -0.000
   5752314.072 9   4495350.37546  24303066.881    24303067.2664   24303077.5664
        -0.000          -0.000
 -19585228.975 9 -15115549.43249  20835321.389    20835321.1574   20835327.9454
        -0.000          -0.000
 99  3 29  1 51 30.0010000  0  7 22 26 23 21 17 30  6                0.001600886
  -6550433.716 9  -5091290.34846  23891751.773    23891750.5854   23891759.4334
        -0.000          -0.000
  -8863899.920 9  -6214641.01547  22388513.605    22388513.5944   22388520.7594
        -0.000          -0.000
 -17054132.198 9 -13039645.88548  21915567.246    21915566.6194   21915574.0554
        -0.000          -0.000
  -3607368.277 9  -2593589.61345  25108670.876    25108670.6094   25108682.4604
        -0.000          -0.000
 -18326040.196 9 -13872072.62548  21637077.881    21637077.2434   21637084.8744
        -0.000          -0.000
   5864634.196 9   4582872.50546  24324441.172    24324441.4294   24324451.2534
        -0.000          -0.000
 -19550386.784 9 -15088399.66549  20841951.661    20841951.4074   20841958.2454
        -0.000          -0.000
 99  3 29  1 52  0.0010000  0  7 22 26 23 21 17 30  6                0.001607511
  -6557940.610 9  -5097139.82546  23890322.874    23890321.8654   23890330.9154
        -0.000          -0.000
  -8882574.339 9  -6229192.44647  22384960.012    22384959.9054   22384967.1394
        -0.000          -0.000
 -17099316.405 9 -13074854.28648  21906968.930    21906968.2724   21906975.7944
        -0.000          -0.000
  -3687935.312 9  -2656368.80845  25093339.780    25093339.3224   25093350.4934
        -0.000          -0.000
 -18341541.867 9 -13884151.81548  21634128.154    21634127.4154   21634135.0554
        -0.000          -0.000
   5976927.100 9   4670373.38246  24345809.978    24345810.3064   24345819.9404
        -0.000          -0.000
 -19515054.603 9 -15060868.07249  20848675.003    20848674.7334   20848681.7414
        -0.000          -0.000
 99  3 29  1 52 30.0010000  0  7 22 26 23 21 17 30  6                0.001614149
  -6564929.863 9  -5102585.94846  23888992.517    23888991.5654   23889000.9334
        -0.000          -0.000
  -8900675.359 9  -6243297.06947  22381515.269    22381515.2094   22381522.5864
        -0.000          -0.000
 -17144116.226 9 -13109763.15348  21898443.674    21898443.0734   21898450.6204
        -0.000          -0.000
  -3768360.564 9  -2719037.54145  25078035.394    25078034.8284   25078045.8194
        -0.000          -0.000
 -18356866.827 9 -13896093.30548  21631211.909    21631211.1744   21631218.6944
        -0.000          -0.000
   6089203.569 9   4757861.49046  24367175.779    24367176.1344   24367185.5924
        -0.000          -0.000
 -19479235.977 9 -15032957.44449  20855490.886    20855490.7244   20855497.8364
        -0.000          -0.000
 99  3 29  1 53  0.0010000  0  7 22 26 23 21 17 30  6                0.001620791
  -6571403.710 9  -5107630.45846  23887760.446    23887759.4484   23887769.1124
        -0.000          -0.000
  -8918212.492 9  -6256962.29647  22378177.847    22378177.8504   22378185.4034
        -0.000          -0.000
 -17188534.547 9 -13144374.75948  21889991.020    21889990.4254   21889998.0654
        -0.000          -0.000
  -3848654.948 9  -2781604.31445  25062755.693    25062755.1674   25062766.3014
        -0.000          -0.000
 -18372031.749 9 -13907910.08648  21628326.059    21628325.3424   21628332.8564
        -0.000          -0.000
   6201453.223 9   4845328.70246  24388536.802    24388536.8964   24388546.2644
        -0.000          -0.000
 -19442933.747 9 -15004669.98549  20862399.066    20862398.8424   20862405.9294
        -0.000          -0.000
 99  3 29  1 53 30.0010000  0  7 22 26 23 21 17 30  6                0.001627428
  -6577373.220 9  -5112281.96146  23886624.583    23886623.4744   23886633.2974
        -0.000          -0.000
  -8935215.763 9  -6270211.51547  22374942.108    22374942.1304   22374949.7034
        -0.000          -0.000
 -17232581.672 9 -13178697.12648  21881608.960    21881608.4184   21881616.0484
        -0.000          -0.000
  -3928817.183 9  -2844068.13745  25047501.125    25047500.4974   25047511.7884
        -0.000          -0.000
 -18387051.633 9 -13919613.84349  21625467.918    21625467.2204   21625474.6684
        -0.000          -0.000
   6313667.588 9   4932768.42546  24409891.138    24409891.0034   24409900.0574
        -0.000          -0.000
 -19406171.613 9 -14976024.15549  20869394.598    20869394.4294   20869401.4804
        -0.000          -0.000
 99  3 29  1 54  0.0010000  0  7 22 26 23 21 17 30  6                0.001634078
  -6582816.727 9  -5116523.61146  23885588.674    23885587.5724   23885597.6634
        -0.000          -0.000
  -8951669.095 9  -6283032.22047  22371810.985    22371811.0384   22371818.5884
        -0.000          -0.000
 -17276241.587 9 -13212717.76848  21873300.775    21873300.2194   21873307.6704
        -0.000          -0.000
  -4008822.325 9  -2906409.54645  25032276.274    25032275.5874   25032287.2744
        -0.000          -0.000
 -18401915.260 9 -13931195.83849  21622639.575    21622638.8494   21622646.1554
        -0.000          -0.000
   6425886.290 9   5020211.52046  24431246.024    24431245.9004   24431254.5424
        -0.000          -0.000
 -19368943.489 9 -14947015.20749  20876478.925    20876478.7054   20876485.7784
        -0.000          -0.000
 99  3 29  1 54 30.0010000  0  7 22 26 23 21 17 30  6                0.001640713
  -6587760.106 9  -5120375.54646  23884648.019    23884646.9334   23884656.9174
        -0.000          -0.000
  -8967610.300 9  -6295453.87947  22368777.382    22368777.4874   22368785.0034
        -0.000          -0.000
 -17319524.488 9 -13246444.63048  21865064.453    21865063.7814   21865071.0574
        -0.000          -0.000
  -4088710.149 9  -2968659.54746  25017073.632    25017073.0914   25017084.9154
        -0.000          -0.000
 -18416667.501 9 -13942691.05148  21619832.230    21619831.5024   21619838.8304
        -0.000          -0.000
   6538084.603 9   5107638.71646  24452596.990    24452596.7104   24452604.9434
        -0.000          -0.000
 -19331280.064 9 -14917667.07549  20883645.949    20883645.8034   20883652.8704
        -0.000          -0.000
 99  3 29  1 55  0.0010000  0  7 22 26 23 21 17 30  6                0.001647320
  -6592208.395 9  -5123841.70246  23883801.437    23883800.4194   23883810.4264
        -0.000          -0.000
  -8983042.739 9  -6307479.08747  22365840.773    22365840.8704   22365848.1224
        -0.000          -0.000
 -17362416.666 9 -13279867.04648  21856902.328    21856901.6524   21856908.9584
        -0.000          -0.000
  -4168471.768 9  -3030811.18445  25001895.550    25001894.8494   25001906.4454
        -0.000          -0.000
 -18431311.848 9 -13954102.19048  21617045.421    21617044.7214   21617052.0544
        -0.000          -0.000
   6650247.638 9   5195038.44046  24473940.879    24473940.5144   24473948.6584
        -0.000          -0.000
 -19293174.087 9 -14887974.09549  20890897.253    20890897.0634   20890904.1414
        -0.000          -0.000
 99  3 29  1 55 30.0010000  0  7 22 26 23 21 17 30  6                0.001653923
  -6596148.446 8  -5126911.84046  23883051.172    23883050.4794   23883060.7534
        -0.000          -0.000
  -8997936.263 9  -6319084.35947  22363006.637    22363006.6934   22363013.8264
        -0.000          -0.000
 -17404907.453 9 -13312976.68248  21848816.469    21848815.8704   21848823.2024
        -0.000          -0.000
  -4248071.484 9  -3092836.66645  24986747.702    24986747.1264   24986758.7014
        -0.000          -0.000
 -18445814.615 9 -13965402.99248  21614285.669    21614284.9424   21614292.1134
        -0.000          -0.000
   6762411.211 9   5282438.56946  24495284.691    24495284.2684   24495292.6754
        -0.000          -0.000
 -19254602.853 9 -14857918.58349  20898237.003    20898236.8724   20898243.9444
        -0.000          -0.000
 99  3 29  1 56  0.0010000  0  7 22 26 23 21 17 30  6                0.001660517
  -6599595.543 9  -5129597.82946  23882395.065    23882394.3834   23882404.6984
        -0.000          -0.000
  -9012281.407 9  -6330262.31147  22360276.768    22360276.8234   22360283.9474
        -0.000          -0.000
 -17446997.565 9 -13345774.10148  21840807.000    21840806.3944   21840813.7014
        -0.000          -0.000
  -4327513.914 9  -3154739.60045  24971629.760    24971629.2524   24971641.0494
        -0.000          -0.000
 -18460178.841 9 -13976595.84848  21611552.265    21611551.4944   21611558.4914
        -0.000          -0.000
   6874567.616 9   5369833.11346  24516627.192    24516626.8624   24516635.5754
        -0.000          -0.000
 -19215561.766 9 -14827496.94149  20905666.259    20905666.0994   20905673.1464
        -0.000          -0.000
 99  3 29  1 56 30.0010000  0  7 22 26 23 21 17 30  6                0.001667089
  -6602559.375 8  -5131907.26345  23881831.345    23881830.3144   23881840.4684
        -0.000          -0.000
  -9026081.960 9  -6341015.91347  22357650.356    22357650.4514   22357657.7634
        -0.000          -0.000
 -17488674.061 9 -13378249.22148  21832876.310    21832875.6454   21832882.9184
        -0.000          -0.000
  -4406782.030 9  -3216506.73245  24956545.310    24956544.8544   24956556.5554
        -0.000          -0.000
 -18474376.852 9 -13987659.17748  21608850.377    21608849.6054   21608856.5844
        -0.000          -0.000
   6986717.752 9   5457222.78646  24537968.556    24537968.2984   24537977.3194
        -0.000          -0.000
 -19176030.666 9 -14796693.47149  20913188.846    20913188.7014   20913195.7164
        -0.000          -0.000
 99  3 29  1 57  0.0010000  0  7 22 26 23 21 17 30  6                0.001673662
  -6605011.444 8  -5133817.90845  23881364.378    23881363.6964   23881373.6624
        -0.000          -0.000
  -9039317.377 9  -6351329.16947  22355131.539    22355131.6744   22355139.0404
        -0.000          -0.000
 -17529923.990 9 -13410391.95348  21825026.564    21825025.9394   21825033.3804
        -0.000          -0.000
  -4485839.948 8  -3278110.07845  24941500.757    24941500.3394   24941512.1764
        -0.000          -0.000
 -18488388.051 9 -13998576.94848  21606184.025    21606183.2314   21606190.3484
        -0.000          -0.000
   7098885.996 9   5544626.56546  24559313.244    24559313.1314   24559322.5244
        -0.000          -0.000
 -19135985.773 9 -14765489.64249  20920809.198    20920809.0054   20920816.0534
        -0.000          -0.000
 99  3 29  1 57 30.0010000  0  7 22 26 23 21 17 30  6                0.001680229
  -6606956.891 8  -5135333.79845  23880993.787    23880993.4534   23881002.9524
        -0.000          -0.000
  -9051992.807 9  -6361206.03547  22352719.633    22352719.6944   22352727.0154
        -0.000          -0.000
 -17570753.253 9 -13442206.90148  21817257.028    21817256.3774   21817263.9264
        -0.000          -0.000
  -4564707.897 9  -3339565.42245  24926492.250    24926492.1394   24926503.7524
        -0.000          -0.000
 -18502233.457 9 -14009365.54048  21603549.271    21603548.4954   21603555.6244
        -0.000          -0.000
   7211057.090 9   5632032.54546  24580658.716    24580658.6244   24580667.8674
        -0.000          -0.000
 -19095437.784 9 -14733893.79549  20928525.194    20928525.0434   20928532.0944
        -0.000          -0.000
 99  3 29  1 58  0.0010000  0  7 22 26 23 21 17 30  6                0.001686736
  -6608466.852 8  -5136510.32745  23880706.013    23880705.8524   23880715.2044
        -0.000          -0.000
  -9064170.329 9  -6370694.92747  22350402.302    22350402.3594   22350409.8594
        -0.000          -0.000
 -17611220.813 9 -13473739.99948  21809556.395    21809555.7194   21809563.1834
        -0.000          -0.000
  -4643467.681 8  -3400936.45845  24911504.699    24911504.5454   24911516.0344
        -0.000          -0.000
 -18515984.275 9 -14020080.41748  21600932.646    21600931.7964   21600938.8884
        -0.000          -0.000
   7323148.296 9   5719376.29646  24601989.097    24601988.8684   24601997.9084
        -0.000          -0.000
 -19054443.876 9 -14701950.48049  20936326.171    20936326.0134   20936333.0494
        -0.000          -0.000
 99  3 29  1 58 30.0010000  0  7 22 26 23 21 17 30  6                0.001693225
  -6609472.866 8  -5137294.18245  23880514.093    23880514.1544   23880523.7114
        -0.000          -0.000
  -9075786.126 9  -6379746.15147  22348191.834    22348191.8694   22348199.3034
        -0.000          -0.000
 -17651278.216 9 -13504953.49548  21801933.717    21801932.9664   21801940.3674
        -0.000          -0.000
  -4722075.462 8  -3462189.04946  24896545.762    24896545.6814   24896557.2944
        -0.000          -0.000
 -18529588.603 9 -14030681.13248  21598343.790    21598342.9294   21598350.0074
        -0.000          -0.000
   7435208.078 9   5806695.58246  24623313.175    24623312.9764   24623322.0054
        -0.000          -0.000
 -19012941.679 9 -14669611.08949  20944223.819    20944223.6664   20944230.5764
        -0.000          -0.000
 99  3 29  1 59  0.0010000  0  7 22 26 23 21 17 30  6                0.001699716
  -6609955.749 8  -5137670.41545  23880422.120    23880422.0384   23880431.7454
        -0.000          -0.000
  -9086816.768 9  -6388341.38947  22346092.795    22346092.8124   22346100.0914
        -0.000          -0.000
 -17690927.157 9 -13535848.70248  21794388.671    21794387.9794   21794395.2004
        -0.000          -0.000
  -4800529.355 9  -3523321.73746  24881616.183    24881616.1064   24881627.7624
        -0.000          -0.000
 -18543041.981 9 -14041164.24548  21595783.424    21595782.6414   21595789.8364
        -0.000          -0.000
   7547234.270 9   5893988.66846  24644630.691    24644630.5784   24644640.0554
        -0.000          -0.000
 -18970922.703 9 -14636869.01649  20952219.786    20952219.6304   20952226.3664
        -0.000          -0.000
 99  3 29  1 59 30.0010000  0  7 22 26 23 21 17 30  6                0.001706195
  -6609941.905 9  -5137659.58745  23880424.912    23880424.6364   23880434.2974
        -0.000          -0.000
  -9097273.668 9  -6396489.53847  22344102.874    22344102.8804   22344109.9804
        -0.000          -0.000
 -17730192.413 9 -13566444.93648  21786916.678    21786915.9924   21786923.0514
        -0.000          -0.000
  -4878843.955 9  -3584345.89846  24866713.263    24866713.1544   24866724.7094
        -0.000          -0.000
 -18556343.521 9 -14051529.04348  21593252.001    21593251.3434   21593258.5434
        -0.000          -0.000
   7659200.688 9   5981235.18346  24665937.004    24665937.0174   24665946.8044
        -0.000          -0.000
 -18928400.762 9 -14603735.02149  20960311.437    20960311.2494   20960317.9284
        -0.000          -0.000
 99  3 29  2  0  0.0010000  0  7 22 26 23 21 17 30  6                0.001712674
  -6609421.236 9  -5137253.82745  23880524.358    23880523.7774   23880533.2904
        -0.000          -0.000
  -9107161.498 9  -6404194.29647  22342221.130    22342221.1924   22342228.3544
        -0.000          -0.000
 -17769081.674 9 -13596748.18248  21779516.243    21779515.5554   21779522.4974
        -0.000          -0.000
  -4957003.642 9  -3645249.32946  24851839.772    24851839.5304   24851851.0754
        -0.000          -0.000
 -18569490.541 9 -14061773.43148  21590750.188    21590749.4854   21590756.6884
        -0.000          -0.000
   7771116.722 9   6068442.47246  24687234.053    24687234.0724   24687243.9724
        -0.000          -0.000
 -18885373.994 9 -14570207.66449  20968499.188    20968498.9904   20968505.6964
        -0.000          -0.000
 99  3 29  2  0 30.0010000  0  7 22 26 23 21 17 30  6                0.001719157
  -6608384.786 8  -5136446.16445  23880721.822    23880720.9614   23880730.7024
        -0.000          -0.000
  -9116493.045 9  -6411465.57447  22340445.223    22340445.3614   22340452.6354
        -0.000          -0.000
 -17807599.218 9 -13626761.78448  21772186.474    21772185.8004   21772192.7374
        -0.000          -0.000
  -5034996.686 8  -3706022.91946  24836997.879    24836997.7954   24837009.2294
        -0.000          -0.000
 -18582492.043 9 -14071904.43048  21588276.051    21588275.3884   21588282.5814
        -0.000          -0.000
   7882978.231 8   6155607.24845  24708520.529    24708520.5884   24708530.6794
        -0.000          -0.000
 -18841870.589 9 -14536308.89149  20976777.613    20976777.3994   20976784.2114
        -0.000          -0.000
 99  3 29  2  1  0.0010000  0  7 22 26 23 21 17 30  6                0.001725660
  -6606809.605 8  -5135218.69145  23881021.014    23881020.3944   23881030.2994
        -0.000          -0.000
  -9125253.309 9  -6418291.68047  22338778.343    22338778.4654   22338785.4534
        -0.000          -0.000
 -17845719.271 9 -13656465.64548  21764932.318    21764931.6624   21764938.6934
        -0.000          -0.000
  -5112790.144 9  -3766641.00146  24822193.961    24822194.1824   24822205.5114
        -0.000          -0.000
 -18595332.272 9 -14081909.77549  21585832.625    21585831.9504   21585839.2384
        -0.000          -0.000
   7994813.370 8   6242751.48745  24729801.823    24729801.9854   24729812.3134
        -0.000          -0.000
 -18797881.987 9 -14502032.05349  20985148.443    20985148.2244   20985154.9774
        -0.000          -0.000
 99  3 29  2  1 30.0010000  0  7 22 26 23 21 17 30  6                0.001732159
  -6604723.690 9  -5133593.28445  23881417.476    23881417.1784   23881426.9054
        -0.000          -0.000
  -9133476.300 9  -6424699.11447  22337213.782    22337213.7894   22337220.6174
        -0.000          -0.000
 -17883453.237 9 -13685868.67548  21757751.506    21757750.9834   21757758.1504
        -0.000          -0.000
  -5190409.771 9  -3827123.63846  24807424.143    24807423.8274   24807435.0384
        -0.000          -0.000
 -18608051.442 9 -14091820.78148  21583412.243    21583411.6054   21583418.8424
        -0.000          -0.000
   8106595.804 8   6329854.62845  24751072.778    24751073.1894   24751083.7674
        -0.000          -0.000
 -18753439.317 9 -14467401.39549  20993605.665    20993605.4594   20993612.1074
        -0.000          -0.000
 99  3 29  2  2  0.0010000  0  7 22 26 23 21 17 30  6                0.001738650
  -6602131.428 9  -5131573.30045  23881911.119    23881910.6374   23881919.8894
        -0.000          -0.000
  -9141160.131 9  -6430686.45247  22335751.689    22335751.6314   22335758.3124
        -0.000          -0.000
 -17920796.674 9 -13714967.38948  21750645.203    21750644.6724   21750651.9744
        -0.000          -0.000
  -5267872.130 9  -3887483.72546  24792683.945    24792683.2934   24792694.6054
        -0.000          -0.000
 -18620666.938 9 -14101651.00748  21581011.577    21581010.9074   21581018.1044
        -0.000          -0.000
   8218321.007 8   6416913.17945  24772333.016    24772333.6814   24772344.5144
        -0.000          -0.000
 -18708554.677 9 -14432426.34549  21002146.939    21002146.7264   21002153.2254
        -0.000          -0.000
 99  3 29  2  2 30.0010000  0  7 22 26 23 21 17 30  6                0.001745148
  -6599009.781 8  -5129140.78145  23882504.954    23882504.4874   23882514.0414
        -0.000          -0.000
  -9148261.545 9  -6436219.96247  22334400.069    22334400.0774   22334406.8934
        -0.000          -0.000
 -17957707.343 9 -13743728.88749  21743621.254    21743620.8044   21743628.1714
        -0.000          -0.000
  -5345149.577 9  -3947699.72546  24777978.194    24777977.5244   24777989.4224
        -0.000          -0.000
 -18633126.680 9 -14111359.86548  21578640.438    21578639.8684   21578646.9324
        -0.000          -0.000
   8330013.168 8   6503945.98845  24793587.150    24793587.8574   24793598.7814
        -0.000          -0.000
 -18663206.157 9 -14397089.82249  21010776.467    21010776.2524   21010782.6014
        -0.000          -0.000
 99  3 29  2  3  0.0010000  0  7 22 26 23 21 17 30  6                0.001751637
  -6595387.928 8  -5126318.51945  23883193.711    23883193.4994   23883203.4494
        -0.000          -0.000
  -9154794.484 9  -6441310.46947  22333156.764    22333156.8174   22333163.6804
        -0.000          -0.000
 -17994201.299 9 -13772165.66649  21736676.740    21736676.1534   21736683.6134
        -0.000          -0.000
  -5422249.736 9  -4007777.58946  24763305.717    24763305.5014   24763317.5974
        -0.000          -0.000
 -18645437.403 9 -14120952.59549  21576297.920    21576297.2904   21576304.1604
        -0.000          -0.000
   8441653.205 8   6590938.15045  24814831.574    24814832.3884   24814843.4064
        -0.000          -0.000
 -18617394.371 9 -14361392.32349  21019494.140    21019493.9274   21019500.2264
        -0.000          -0.000
 99  3 29  2  3 30.0010000  0  7 22 26 23 21 17 30  6                0.001758122
  -6591262.875 8  -5123104.14145  23883978.191    23883978.1774   23883988.2294
        -0.000          -0.000
  -9160748.736 9  -6445950.06947  22332023.891    22332023.8614   22332030.5094
        -0.000          -0.000
 -18030272.438 9 -13800272.98649  21729812.445    21729811.9344   21729819.5284
        -0.000          -0.000
  -5499167.921 9  -4067713.64546  24748668.244    24748668.1044   24748680.1224
        -0.000          -0.000
 -18657570.357 9 -14130406.81049  21573989.143    21573988.5184   21573995.4234
        -0.000          -0.000
   8553245.569 8   6677893.20345  24836067.343    24836068.0874   24836078.8164
        -0.000          -0.000
 -18571098.697 9 -14325317.75549  21028303.971    21028303.7184   21028310.0054
        -0.000          -0.000
 99  3 29  2  4  0.0010000  0  7 22 26 23 21 17 30  6                0.001764590
  -6586653.104 8  -5119512.08346  23884855.279    23884855.2794   23884865.1334
        -0.000          -0.000
  -9166148.898 9  -6450157.91847  22330996.352    22330996.3034   22331002.9454
        -0.000          -0.000
 -18065959.861 9 -13828081.31149  21723021.300    21723020.7664   21723028.3404
        -0.000          -0.000
  -5575933.807 9  -4127531.01146  24734059.916    24734059.9474   24734071.6024
        -0.000          -0.000
 -18669542.832 9 -14139735.98049  21571710.969    21571710.2964   21571717.2454
        -0.000          -0.000
   8664752.968 8   6764782.03445  24857286.534    24857287.1684   24857297.7574
        -0.000          -0.000
 -18524352.525 9 -14288892.15149  21037199.560    21037199.2304   21037205.5824
        -0.000          -0.000
 99  3 29  2  4 30.0010000  0  7 22 26 23 21 17 30  6                0.001771049
  -6581538.740 9  -5115526.80246  23885828.726    23885828.4654   23885838.2904
        -0.000          -0.000
  -9170986.698 9  -6453927.57147  22330075.738    22330075.6904   22330082.3394
        -0.000          -0.000
 -18101246.330 9 -13855577.20549  21716306.489    21716306.0044   21716313.4084
        -0.000          -0.000
  -5652525.088 9  -4187212.33846  24719485.058    24719485.1864   24719496.4024
        -0.000          -0.000
 -18681332.679 9 -14148922.84149  21569467.428    21569466.7094   21569473.7184
        -0.000          -0.000
   8776184.893 8   6851612.07545  24878491.378    24878491.8694   24878502.3814
        -0.000          -0.000
 -18477132.900 9 -14252097.61649  21046185.131    21046184.8004   21046191.2754
        -0.000          -0.000
 99  3 29  2  5  0.0010000  0  7 22 26 23 21 17 30  6                0.001777506
  -6575895.988 9  -5111129.82146  23886902.591    23886902.4114   23886912.1864
        -0.000          -0.000
  -9175247.589 9  -6457247.66747  22329264.640    22329264.5924   22329271.4214
        -0.000          -0.000
 -18136125.918 9 -13882756.04649  21709669.253    21709668.6594   21709675.9694
        -0.000          -0.000
  -5728934.071 9  -4246751.61746  24704944.941    24704944.9734   24704956.0004
        -0.000          -0.000
 -18692942.424 9 -14157969.36548  21567258.039    21567257.3394   21567264.3714
        -0.000          -0.000
   8887550.944 8   6938390.80045  24899683.699    24899684.2174   24899694.8134
        -0.000          -0.000
 -18429402.833 9 -14214905.34149  21055267.770    21055267.5124   21055274.0154
        -0.000          -0.000
 99  3 29  2  5 30.0010000  0  7 22 26 23 21 17 30  6                0.001783951
  -6569738.047 9  -5106331.40746  23888074.428    23888074.3904   23888083.8524
        -0.000          -0.000
  -9178944.162 9  -6460128.05647  22328560.872    22328560.9294   22328567.7904
        -0.000          -0.000
 -18170619.481 9 -13909634.09549  21703105.283    21703104.7234   21703111.9564
        -0.000          -0.000
  -5805205.885 9  -4306184.03346  24690430.677    24690430.6224   24690441.7234
        -0.000          -0.000
 -18704418.117 9 -14166911.43148  21565074.142    21565073.4804   21565080.4844
        -0.000          -0.000
   8998815.847 9   7025090.67745  24920856.795    24920857.4194   24920868.0854
        -0.000          -0.000
 -18381200.451 9 -14177345.03849  21064440.307    21064440.0824   21064446.6134
        -0.000          -0.000
 99  3 29  2  6  0.0010000  0  7 22 26 23 21 17 30  6                0.001790413
  -6563033.446 9  -5101107.01046  23889350.507    23889350.3764   23889359.2794
        -0.000          -0.000
  -9182033.125 9  -6462534.96347  22327973.008    22327973.0764   22327980.0034
        -0.000          -0.000
 -18204691.915 9 -13936183.98249  21696621.589    21696621.0024   21696628.0544
        -0.000          -0.000
  -5881303.271 9  -4365480.51546  24675949.518    24675949.5264   24675960.6004
        -0.000          -0.000
 -18715749.537 9 -14175741.08349  21562917.794    21562917.1534   21562924.2874
        -0.000          -0.000
   9110004.503 9   7111731.15446  24942015.789    24942016.2514   24942026.8694
        -0.000          -0.000
 -18332507.671 9 -14139402.60049  21073706.279    21073705.9974   21073712.5344
        -0.000          -0.000
 99  3 29  2  6 30.0010000  0  7 22 26 23 21 17 30  6                0.001796880
  -6555802.662 9  -5095472.61546  23890727.039    23890726.6834   23890735.1164
        -0.000          -0.000
  -9184521.903 9  -6464474.20948  22327499.589    22327499.6334   22327506.4674
        -0.000          -0.000
 -18238350.631 9 -13962411.49749  21690216.517    21690215.8964   21690222.9634
        -0.000          -0.000
  -5957228.493 9  -4424642.85546  24661501.590    24661501.3784   24661512.1524
        -0.000          -0.000
 -18726952.146 9 -14184470.34449  21560786.086    21560785.3794   21560792.5904
        -0.000          -0.000
   9221115.299 9   7198310.96346  24963160.258    24963160.3334   24963170.6104
        -0.000          -0.000
 -18283317.052 9 -14101072.23749  21083066.797    21083066.5574   21083073.2024
        -0.000          -0.000
 99  3 29  2  7  0.0010000  0  7 22 26 23 21 17 30  6                0.001803356
  -6548043.815 9  -5089426.73446  23892203.824    23892203.3914   23892211.8464
        -0.000          -0.000
  -9186400.581 9  -6465938.05648  22327142.168    22327142.1514   22327148.9134
        -0.000          -0.000
 -18271581.676 9 -13988305.77049  21683892.557    21683892.0744   21683899.3514
        -0.000          -0.000
  -6032966.592 9  -4483659.33546  24647088.832    24647088.7464   24647099.2904
        -0.000          -0.000
 -18738016.455 9 -14193091.84649  21558680.611    21558679.8864   21558687.1364
        -0.000          -0.000
   9332165.054 9   7284843.20246  24984292.686    24984292.6844   24984302.4274
        -0.000          -0.000
 -18233625.761 9 -14062351.74749  21092522.804    21092522.5204   21092529.2304
        -0.000          -0.000
 99  3 29  2  7 30.0010000  0  7 22 26 23 21 17 30  6                0.001809829
  -6539788.632 9  -5082994.08246  23893774.819    23893774.2644   23893782.9004
        -0.000          -0.000
  -9187678.970 9  -6466934.14147  22326898.816    22326898.8104   22326905.5024
        -0.000          -0.000
 -18304385.533 9 -14013867.15249  21677650.311    21677649.7264   21677657.0594
        -0.000          -0.000
  -6108516.787 9  -4542529.40846  24632711.980    24632711.7594   24632722.2084
        -0.000          -0.000
 -18748946.512 9 -14201608.74549  21556600.615    21556599.8974   21556607.1774
        -0.000          -0.000
   9443150.579 9   7371325.39745  25005412.828    25005412.7824   25005422.1564
        -0.000          -0.000
 -18183459.127 9 -14023260.84949  21102069.201    21102068.9124   21102075.5684
        -0.000          -0.000
 99  3 29  2  8  0.0010000  0  7 22 26 23 21 17 30  6                0.001816287
  -6531063.658 9  -5076195.37046  23895435.364    23895434.6854   23895443.1184
        -0.000          -0.000
  -9188370.859 9  -6467473.19647  22326767.065    22326767.0614   22326773.5094
        -0.000          -0.000
 -18336773.531 9 -14039104.50149  21671486.936    21671486.3624   21671493.8284
        -0.000          -0.000
  -6183869.255 9  -4601245.38846  24618372.582    24618372.2874   24618382.7754
        -0.000          -0.000
 -18759727.225 9 -14210009.27249  21554549.020    21554548.3674   21554555.6494
        -0.000          -0.000
   9554065.932 9   7457752.91245  25026519.483    25026519.3914   25026528.6864
        -0.000          -0.000
 -18132807.903 9 -13983792.36249  21111707.819    21111707.5394   21111714.2174
        -0.000          -0.000
 99  3 29  2  8 30.0010000  0  7 22 26 23 21 17 30  6                0.001822705
  -6521900.268 9  -5069055.02246  23897179.123    23897178.4484   23897186.9004
        -0.000          -0.000
  -9188510.874 9  -6467582.23247  22326740.355    22326740.3504   22326746.6274
        -0.000          -0.000
 -18368766.091 9 -14064033.72249  21665398.809    21665398.2474   21665405.8224
        -0.000          -0.000
  -6259042.312 9  -4659821.62846  24604067.708    24604067.2594   24604077.4754
        -0.000          -0.000
 -18770374.356 9 -14218305.69149  21552522.969    21552522.2504   21552529.4504
        -0.000          -0.000
   9664893.473 9   7544112.01345  25047609.239    25047609.3714   25047618.5474
        -0.000          -0.000
 -18081685.650 9 -13943956.83849  21121436.047    21121435.7544   21121442.4214
        -0.000          -0.000
 99  3 29  2  9  0.0010000  0  7 22 26 23 21 17 30  6                0.001829087
  -6512310.594 9  -5061582.50446  23899004.295    23899003.4744   23899011.9374
        -0.000          -0.000
  -9188099.471 9  -6467261.60947  22326818.546    22326818.5154   22326824.8364
        -0.000          -0.000
 -18400381.949 9 -14088669.40149  21659382.414    21659381.9024   21659389.4904
        -0.000          -0.000
  -6334038.547 9  -4718260.07146  24589796.525    24589795.9294   24589806.0084
        -0.000          -0.000
 -18780885.262 9 -14226495.96449  21550522.712    21550522.0544   21550529.2544
        -0.000          -0.000
   9775617.002 9   7630390.04345  25068679.432    25068679.4944   25068688.6364
        -0.000          -0.000
 -18030112.465 9 -13903769.92849  21131250.196    21131249.9104   21131256.4564
        -0.000          -0.000
 99  3 29  2  9 30.0010000  0  7 22 26 23 21 17 30  6                0.001835443
  -6502286.054 9  -5053771.14546  23900912.150    23900911.1034   23900919.5454
        -0.000          -0.000
  -9187121.257 9  -6466499.33247  22327004.570    22327004.5074   22327010.9864
        -0.000          -0.000
 -18431628.285 9 -14113017.14549  21653436.352    21653435.7894   21653443.5604
        -0.000          -0.000
  -6408856.883 9  -4776559.89146  24575559.155    24575558.3954   24575568.4614
        -0.000          -0.000
 -18791267.203 9 -14234585.75549  21548547.091    21548546.3824   21548553.6564
        -0.000          -0.000
   9886229.064 9   7716581.23445  25089728.742    25089728.5324   25089737.5174
        -0.000          -0.000
 -17978076.245 9 -13863222.21049  21141152.371    21141152.0554   21141158.5174
        -0.000          -0.000
 99  3 29  2 10  0.0010000  0  7 22 26 23 21 17 30  6                0.001841809
  -6491751.674 9  -5045562.50246  23902916.622    23902915.5864   23902923.9814
        -0.000          -0.000
  -9185532.922 9  -6465261.61647  22327306.732    22327306.6874   22327313.3174
        -0.000          -0.000
 -18462463.661 9 -14137044.65749  21647568.517    21647568.0104   21647575.9124
        -0.000          -0.000
  -6483451.950 9  -4834685.71346  24561364.165    24561363.4124   24561373.5654
        -0.000          -0.000
 -18801466.677 9 -14242533.36649  21546606.242    21546605.5354   21546612.6754
        -0.000          -0.000
   9996773.841 9   7802719.97445  25110764.849    25110764.5194   25110773.3064
        -0.000          -0.000
 -17925521.037 9 -13822270.08349  21151153.257    21151152.9424   21151159.4234
        -0.000          -0.000
 99  3 29  2 10 30.0010000  0  7 22 26 23 21 17 30  6                0.001848193
  -6480701.012 9  -5036951.55546  23905019.566    23905018.4994   23905026.7844
        -0.000          -0.000
  -9183330.593 9  -6463545.45347  22327725.865    22327725.8374   22327732.3644
        -0.000          -0.000
 -18492894.479 9 -14160756.92849  21641777.860    21641777.2694   21641785.0544
        -0.000          -0.000
  -6557838.716 9  -4892649.22946  24547208.842    24547208.0224   24547218.1214
        -0.000          -0.000
 -18811486.508 9 -14250340.99149  21544699.450    21544698.6964   21544705.7964
        -0.000          -0.000
  10107248.513 9   7888804.08845  25131787.811    25131787.3964   25131795.5454
        -0.000          -0.000
 -17872453.302 9 -13780918.60149  21161251.586    21161251.2714   21161257.8994
        -0.000          -0.000
 99  3 29  2 11  0.0010000  0  7 22 26 23 21 17 30  6                0.001854598
  -6469136.747 9  -5027940.41146  23907220.461    23907219.3864   23907227.5004
        -0.000          -0.000
  -9180508.885 9  -6461346.67347  22328262.793    22328262.7254   22328269.2374
        -0.000          -0.000
 -18522932.152 9 -14184162.85249  21636061.919    21636061.2864   21636068.9034
        -0.000          -0.000
  -6632031.957 9  -4950461.96246  24533090.037    24533089.4154   24533099.3174
        -0.000          -0.000
 -18821328.059 9 -14258009.70249  21542826.692    21542826.0024   21542833.0314
        -0.000          -0.000
  10217635.037 8   7974819.53145  25152793.840    25152793.0354   25152801.3014
        -0.000          -0.000
 -17818883.240 9 -13739175.69449  21171445.620    21171445.3334   21171452.0724
        -0.000          -0.000
 99  3 29  2 11 30.0010000  0  7 22 26 23 21 17 30  6                0.001861009
  -6457057.540 9  -5018527.99946  23909519.001    23909517.8754   23909526.0444
        -0.000          -0.000
  -9177091.038 9  -6458683.36247  22328913.106    22328913.0454   22328919.5154
        -0.000          -0.000
 -18552576.883 9 -14207262.59949  21630420.626    21630420.0524   21630427.6024
        -0.000          -0.000
  -6706045.128 9  -5008134.38146  24519005.449    24519004.9574   24519014.6804
        -0.000          -0.000
 -18831012.944 9 -14265556.31949  21540983.871    21540983.1284   21540990.0444
        -0.000          -0.000
  10327929.004 8   8060762.86245  25173781.642    25173780.9754   25173789.5244
        -0.000          -0.000
 -17764818.323 9 -13697047.18049  21181733.810    21181733.5314   21181740.3164
        -0.000          -0.000
 99  3 29  2 12  0.0010000  0  7 22 26 23 21 17 30  6                0.001867428
  -6444454.881 9  -5008707.71346  23911917.130    23911916.0354   23911924.1864
        -0.000          -0.000
  -9173083.368 9  -6455560.44247  22329675.659    22329675.5974   22329682.0764
        -0.000          -0.000
 -18581819.001 9 -14230048.61349  21624856.169    21624855.5644   21624862.9734
        -0.000          -0.000
  -6779862.014 9  -5065653.86746  24504958.440    24504957.9414   24504967.7064
        -0.000          -0.000
 -18840522.326 9 -14272966.19149  21539174.250    21539173.5014   21539180.4504
        -0.000          -0.000
  10438129.287 8   8146633.18945  25194751.458    25194751.1274   25194759.9504
        -0.000          -0.000
 -17710260.399 9 -13654534.51249  21192115.830    21192115.6044   21192122.3264
        -0.000          -0.000
 99  3 29  2 12 30.0010000  0  7 22 26 23 21 17 30  6                0.001873832
  -6431374.679 9  -4998515.31746  23914406.064    23914405.1224   23914413.3204
        -0.000          -0.000
  -9168513.374 9  -6451999.34047  22330545.318    22330545.3054   22330551.6704
        -0.000          -0.000
 -18610684.400 9 -14252541.08049  21619363.298    21619362.6174   21619369.9804
        -0.000          -0.000
  -6853514.061 9  -5123044.93046  24490943.026    24490942.5434   24490952.2624
        -0.000          -0.000
 -18849891.205 9 -14280266.58449  21537391.273    21537390.5954   21537397.7294
        -0.000          -0.000
  10548201.537 9   8232403.73945  25215697.327    25215697.3154   25215706.0824
        -0.000          -0.000
 -17655248.280 9 -13611667.92049  21202584.275    21202584.0664   21202590.7144
        -0.000          -0.000
 99  3 29  2 13  0.0010000  0  7 22 26 23 21 17 30  6                0.001880219
  -6417806.777 9  -4987942.89546  23916987.984    23916987.0144   23916995.4254
        -0.000          -0.000
  -9163392.385 9  -6448008.90248  22331519.871    22331519.8404   22331526.1794
        -0.000          -0.000
 -18639164.114 9 -14274733.01549  21613943.725    21613943.0194   21613950.3504
        -0.000          -0.000
  -6926986.697 9  -5180296.14746  24476961.807    24476961.1034   24476971.0134
        -0.000          -0.000
 -18859135.356 9 -14287469.79349  21535632.088    21535631.4134   21535638.6794
        -0.000          -0.000
  10658148.479 9   8318076.64545  25236620.213    25236619.8324   25236628.6034
        -0.000          -0.000
 -17599788.065 9 -13568452.16148  21213137.979    21213137.7504   21213144.4154
        -0.000          -0.000
 99  3 29  2 13 30.0010000  0  7 22 26 23 21 17 30  6                0.001886595
  -6403726.246 9  -4976971.01646  23919667.271    23919666.2704   23919675.0844
        -0.000          -0.000
  -9157709.432 9  -6443580.57148  22332601.303    22332601.2724   22332607.6294
        -0.000          -0.000
 -18667237.032 9 -14296607.96549  21608601.561    21608600.8774   21608608.1174
        -0.000          -0.000
  -7000260.743 9  -5237392.65046  24463018.567    24463017.4354   24463027.5724
        -0.000          -0.000
 -18868242.528 9 -14294566.25549  21533898.994    21533898.3324   21533905.5024
        -0.000          -0.000
  10767982.519 8   8403661.57645  25257520.947    25257520.8124   25257529.5604
        -0.000          -0.000
 -17543860.983 9 -13524872.62248  21223780.552    21223780.3234   21223786.9534
        -0.000          -0.000
 99  3 29  2 14  0.0010000  0  7 22 26 23 21 17 30  6                0.001892970
  -6389128.167 9  -4965595.88846  23922445.081    23922444.1364   23922452.9964
        -0.000          -0.000
  -9151429.215 9  -6438686.85148  22333796.282    22333796.2954   22333802.7314
        -0.000          -0.000
 -18694883.073 9 -14318150.28849  21603340.681    21603339.9394   21603347.1424
        -0.000          -0.000
  -7073334.447 9  -5294333.04246  24449112.848    24449111.9124   24449122.1804
        -0.000          -0.000
 -18877191.820 9 -14301539.69449  21532195.915    21532195.2324   21532202.3554
        -0.000          -0.000
  10877703.704 8   8489158.59045  25278400.037    25278399.9784   25278408.6774
        -0.000          -0.000
 -17487461.519 9 -13480924.99748  21234512.979    21234512.7034   21234519.4294
        -0.000          -0.000
 99  3 29  2 14 30.0010000  0  7 22 26 23 21 17 30  6                0.001899360
  -6373997.083 9  -4953805.40846  23925324.377    23925323.4934   23925332.2114
        -0.000          -0.000
  -9144512.521 9  -6433297.18347  22335112.355    22335112.3944   22335118.9294
        -0.000          -0.000
 -18722065.273 9 -14339331.17549  21598167.845    21598167.2004   21598174.4254
        -0.000          -0.000
  -7146187.056 9  -5351101.13546  24435249.337    24435248.4994   24435258.7204
        -0.000          -0.000
 -18885962.319 9 -14308373.81749  21530526.895    21530526.2864   21530533.3644
        -0.000          -0.000
  10987346.082 8   8574594.17845  25299263.856    25299263.7244   25299273.0524
        -0.000          -0.000
 -17430557.778 9 -13436584.42148  21245341.108    21245340.9174   21245347.8914
        -0.000          -0.000
 99  3 29  2 15  0.0010000  0  7 22 26 23 21 17 30  6                0.001905738
  -6358380.636 9  -4941636.73646  23928295.966    23928295.1364   23928303.6844
        -0.000          -0.000
  -9137000.304 9  -6427443.46747  22336541.663    22336541.8044   22336548.5054
        -0.000          -0.000
 -18748835.646 9 -14360191.15649  21593073.447    21593072.8474   21593080.0734
        -0.000          -0.000
  -7218856.890 9  -5407726.79346  24421420.566    24421419.7834   24421429.8504
        -0.000          -0.000
 -18894607.052 9 -14315109.92449  21528882.070    21528881.3664   21528888.2874
        -0.000          -0.000
  11096848.534 8   8659920.75145  25320101.449    25320101.4894   25320110.6624
        -0.000          -0.000
 -17373200.405 9 -13391890.35948  21256255.675    21256255.5214   21256262.5914
        -0.000          -0.000
 99  3 29  2 15 30.0010000  0  7 22 26 23 21 17 30  6                0.001912113
  -6342281.001 9  -4929091.54546  23931359.890    23931358.8754   23931367.0974
        -0.000          -0.000
  -9128859.363 9  -6421099.82048  22338090.778    22338090.9024   22338097.6914
        -0.000          -0.000
 -18775176.889 9 -14380716.74549  21588060.857    21588060.2874   21588067.4384
        -0.000          -0.000
  -7291326.186 9  -5464196.18746  24407630.011    24407629.1514   24407638.9474
        -0.000          -0.000
 -18903093.115 9 -14321722.42549  21527267.126    21527266.3744   21527273.5054
        -0.000          -0.000
  11206218.008 8   8745143.68145  25340914.058    25340914.0194   25340923.0904
        -0.000          -0.000
 -17315374.352 9 -13346831.09448  21267259.439    21267259.3734   21267266.5064
        -0.000          -0.000
 99  3 29  2 16  0.0010000  0  7 22 26 23 21 17 30  6                0.001918490
  -6325701.512 9  -4916172.43046  23934514.846    23934513.8214   23934521.8804
        -0.000          -0.000
  -9120084.856 9  -6414262.47748  22339760.560    22339760.6754   22339767.3474
        -0.000          -0.000
 -18801081.133 9 -14400901.82849  21583131.518    21583130.8694   21583137.9454
        -0.000          -0.000
  -7363577.403 9  -5520495.66246  24393880.826    24393879.7594   24393889.6884
        -0.000          -0.000
 -18911415.844 9 -14328207.64049  21525683.264    21525682.5704   21525689.7104
        -0.000          -0.000
  11315471.828 8   8830276.49945  25361704.713    25361704.5674   25361713.4504
        -0.000          -0.000
 -17257078.226 9 -13301405.54448  21278353.062    21278352.8834   21278359.7804
        -0.000          -0.000
 99  3 29  2 16 30.0010000  0  7 22 26 23 21 17 30  6                0.001924854
  -6308657.997 9  -4902891.74646  23937758.137    23937757.0964   23937765.1054
        -0.000          -0.000
  -9110714.515 9  -6406960.85448  22341543.853    22341543.8914   22341550.4194
        -0.000          -0.000
 -18826584.823 9 -14420774.77649  21578278.297    21578277.6494   21578284.7304
        -0.000          -0.000
  -7435612.764 9  -5576626.97046  24380172.369    24380171.5594   24380181.5524
        -0.000          -0.000
 -18919601.702 9 -14334586.18649  21524125.635    21524124.8884   21524131.8564
        -0.000          -0.000
  11424585.714 8   8915300.30445  25382468.442    25382468.1434   25382477.5494
        -0.000          -0.000
 -17198328.908 9 -13255626.84148  21289532.882    21289532.6434   21289539.3314
        -0.000          -0.000
 99  3 29  2 17  0.0010000  0  7 22 26 23 21 17 30  6                0.001931171
  -6291124.161 9  -4889229.00546  23941094.666    23941093.7364   23941101.5354
        -0.000          -0.000
  -9100738.431 9  -6399187.25248  22343442.290    22343442.2964   22343448.7534
        -0.000          -0.000
 -18851695.377 9 -14440341.40149  21573499.857    21573499.2774   21573506.3574
        -0.000          -0.000
  -7507423.478 9  -5632583.19846  24366506.864    24366506.2094   24366516.1344
        -0.000          -0.000
 -18927636.048 9 -14340846.68749  21522596.768    21522595.9674   21522603.0154
        -0.000          -0.000
  11533560.700 8   9000215.85645  25403205.389    25403205.2584   25403215.1944
        -0.000          -0.000
 -17139122.604 9 -13209492.07048  21300799.642    21300799.3444   21300805.9504
        -0.000          -0.000
 99  3 29  2 17 30.0010000  0  7 22 26 23 21 17 30  6                0.001937549
  -6273125.028 9  -4875203.70546  23944519.923    23944518.9644   23944526.5234
        -0.000          -0.000
  -9090203.613 9  -6390978.24948  22345447.021    22345446.9994   22345453.3694
        -0.000          -0.000
 -18876442.139 9 -14459624.54449  21568790.706    21568790.1574   21568797.1244
        -0.000          -0.000
  -7579056.335 9  -5688400.83246  24352875.595    24352874.8754   24352884.6254
        -0.000          -0.000
 -18935541.010 9 -14347006.36749  21521092.319    21521091.5794   21521098.7224
        -0.000          -0.000
  11642379.742 8   9085009.89345  25423912.874    25423912.7124   25423922.8454
        -0.000          -0.000
 -17079483.154 9 -13163019.78448  21312148.628    21312148.3574   21312155.0054
        -0.000          -0.000
 99  3 29  2 18  0.0010000  0  7 22 26 23 21 17 30  6                0.001943909
  -6254639.605 9  -4860799.45246  23948037.595    23948036.5004   23948044.2344
        -0.000          -0.000
  -9079103.925 9  -6382329.08348  22347559.213    22347559.2064   22347565.3564
        -0.000          -0.000
 -18900808.876 9 -14478611.56149  21564154.011    21564153.4074   21564160.2784
        -0.000          -0.000
  -7650507.121 9  -5744076.60746  24339278.909    24339278.0094   24339287.7274
        -0.000          -0.000
 -18943305.170 9 -14353056.33549  21519614.691    21519614.0214   21519621.1374
        -0.000          -0.000
  11751053.509 8   9169690.71745  25444592.790    25444592.6054   25444602.5444
        -0.000          -0.000
 -17019384.816 9 -13116189.92848  21323584.844    21323584.6204   21323591.4194
        -0.000          -0.000
 99  3 29  2 18 30.0010000  0  7 22 26 23 21 17 30  6                0.001950248
  -6235670.599 9  -4846018.38446  23951646.851    23951645.9904   23951653.9634
        -0.000          -0.000
  -9067423.184 9  -6373227.13148  22349781.920    22349781.8884   22349788.0084
        -0.000          -0.000
 -18924789.751 9 -14497297.91049  21559590.575    21559589.9674   21559596.8424
        -0.000          -0.000
  -7721777.082 9  -5799611.47846  24325716.294    24325715.4594   24325725.2854
        -0.000          -0.000
 -18950908.592 9 -14358981.03649  21518167.901    21518167.1834   21518174.1354
        -0.000          -0.000
  11859578.878 8   9254255.89645  25465244.433    25465244.2394   25465254.0574
        -0.000          -0.000
 -16958809.149 9 -13068988.12848  21335112.025    21335111.8394   21335118.6714
        -0.000          -0.000
 99  3 29  2 19  0.0010000  0  7 22 26 23 21 17 30  6                0.001956550
  -6216227.581 9  -4830867.96546  23955346.789    23955345.9894   23955353.8404
        -0.000          -0.000
  -9055167.217 9  -6363676.98847  22352114.021    22352113.9534   22352120.0854
        -0.000          -0.000
 -18948375.630 9 -14515676.47949  21555102.211    21555101.6844   21555108.5414
        -0.000          -0.000
  -7792875.899 9  -5855013.01646  24312186.304    24312185.5844   24312195.4254
        -0.000          -0.000
 -18958343.486 9 -14364774.43949  21516753.135    21516752.3424   21516759.3624
        -0.000          -0.000
  11967973.772 8   9338719.39745  25485871.163    25485871.0994   25485880.8084
        -0.000          -0.000
 -16897744.190 9 -13021405.05648  21346732.353    21346732.1254   21346738.8974
        -0.000          -0.000
 99  3 29  2 19 30.0010000  0  7 22 26 23 21 17 30  6                0.001962804
  -6196323.580 9  -4815358.35446  23959134.795    23959133.9064   23959141.4824
        -0.000          -0.000
  -9042335.092 9  -6353677.87747  22354555.815    22354555.7434   22354561.8624
        -0.000          -0.000
 -18971549.317 9 -14533733.85549  21550692.433    21550691.8574   21550698.6874
        -0.000          -0.000
  -7863790.907 9  -5910271.30546  24298691.559    24298690.9364   24298700.4104
        -0.000          -0.000
 -18965605.307 9 -14370432.98249  21515371.094    21515370.3194   21515377.5424
        -0.000          -0.000
  12076248.257 8   9423089.05545  25506474.889    25506475.1054   25506484.8984
        -0.000          -0.000
 -16836181.249 9 -12973433.93548  21358447.388    21358447.1854   21358453.8644
        -0.000          -0.000
 99  3 29  2 20  0.0010000  0  7 22 26 23 21 17 30  6                0.001969038
  -6175955.976 9  -4799487.44846  23963010.735    23963009.6844   23963017.4704
        -0.000          -0.000
  -9028897.398 9  -6343206.88347  22357112.686    22357112.6644   22357118.9414
        -0.000          -0.000
 -18994313.000 9 -14551471.74849  21546360.606    21546360.0154   21546366.9474
        -0.000          -0.000
  -7934496.782 9  -5965366.60846  24285236.770    24285236.0514   24285245.3384
        -0.000          -0.000
 -18972690.975 9 -14375954.25449  21514022.571    21514021.8924   21514029.1244
        -0.000          -0.000
  12184397.627 8   9507361.23545  25527054.891    25527055.0484   25527065.1114
        -0.000          -0.000
 -16774114.159 9 -12925069.97648  21370258.353    21370258.1584   21370264.8074
        -0.000          -0.000
 99  3 29  2 20 30.0010000  0  7 22 26 23 21 17 30  6                0.001975278
  -6155110.991 9  -4783244.57446  23966977.290    23966976.1484   23966984.2134
        -0.000          -0.000
  -9014848.920 9  -6332259.97347  22359785.773    22359785.7734   22359792.3124
        -0.000          -0.000
 -19016680.703 9 -14568901.08049  21542104.157    21542103.5524   21542110.5654
        -0.000          -0.000
  -8004976.935 9  -6020286.05946  24271825.022    24271824.2354   24271833.3654
        -0.000          -0.000
 -18979607.608 9 -14381343.79749  21512706.499    21512705.7244   21512712.8404
        -0.000          -0.000
  12292422.896 8   9591536.72645  25547611.604    25547611.5874   25547621.6844
        -0.000          -0.000
 -16711555.931 9 -12876323.31048  21382162.899    21382162.6774   21382169.2974
        -0.000          -0.000
 99  3 29  2 21  0.0010000  0  7 22 26 23 21 17 30  6                0.001981524
  -6133790.454 9  -4766631.16146  23971034.387    23971033.1104   23971041.2984
        -0.000          -0.000
  -9000210.830 9  -6320853.60147  22362570.975    22362571.0154   22362577.9504
        -0.000          -0.000
 -19038665.670 9 -14586032.17349  21537920.456    21537919.7994   21537926.9164
        -0.000          -0.000
  -8075241.180 9  -6075037.24046  24258454.364    24258453.5424   24258462.5984
        -0.000          -0.000
 -18986384.770 9 -14386624.67249  21511416.757    21511415.9874   21511423.1294
        -0.000          -0.000
  12400297.433 8   9675594.77445  25568139.182    25568139.2064   25568149.6374
        -0.000          -0.000
 -16648534.223 9 -12827215.48848  21394155.653    21394155.3754   21394162.0204
        -0.000          -0.000
 99  3 29  2 21 30.0010000  0  7 22 26 23 21 17 30  6                0.001987794
  -6111994.863 9  -4749647.56346  23975181.606    23975180.4384   23975188.8884
        -0.000          -0.000
  -8984955.146 9  -6308965.99747  22365473.880    22365473.9444   22365481.0144
        -0.000          -0.000
 -19060261.398 9 -14602859.97849  21533810.662    21533810.1044   21533817.3254
        -0.000          -0.000
  -8145286.538 9  -6129617.87746  24245125.040    24245124.1114   24245133.1624
        -0.000          -0.000
 -18993034.933 9 -14391806.59349  21510151.094    21510150.4334   21510157.6374
        -0.000          -0.000
  12507988.553 8   9759509.90745  25588632.035    25588631.9484   25588642.4794
        -0.000          -0.000
 -16585064.844 9 -12777758.84048  21406233.438    21406233.1534   21406239.7934
        -0.000          -0.000
 99  3 29  2 22  0.0010000  0  7 22 26 23 21 17 30  6                0.001994094
  -6089715.108 9  -4732286.72146  23979420.875    23979419.9934   23979428.6854
        -0.000          -0.000
  -8969075.552 9  -6296592.22647  22368495.734    22368495.8124   22368502.7754
        -0.000          -0.000
 -19081463.648 9 -14619381.15849  21529775.935    21529775.3474   21529782.5834
        -0.000          -0.000
  -8215107.298 9  -6184023.52246  24231837.865    24231837.2994   24231846.5144
        -0.000          -0.000
 -18999552.374 9 -14396885.08649  21508910.956    21508910.3114   21508917.3714
        -0.000          -0.000
  12615498.537 8   9843283.87945  25609091.030    25609090.5064   25609100.6484
        -0.000          -0.000
 -16521138.055 9 -12727945.76848  21418398.097    21418397.8524   21418404.5084
        -0.000          -0.000
 99  3 29  2 22 30.0010000  0  7 22 26 23 21 17 30  6                0.002000404
  -6066951.283 9  -4714548.64646  23983752.612    23983751.7244   23983760.5644
        -0.000          -0.000
  -8952580.454 9  -6283738.86147  22371634.716    22371634.7604   22371641.5904
        -0.000          -0.000
 -19102251.366 9 -14635579.33449  21525820.105    21525819.4954   21525826.7494
        -0.000          -0.000
  -8284711.192 9  -6238260.15546  24218592.109    24218591.6594   24218601.3094
        -0.000          -0.000
 -19005937.074 9 -14401860.14749  21507696.108    21507695.3824   21507702.3344
        -0.000          -0.000
  12722838.630 8   9926925.41445  25629517.215    25629516.5654   25629526.8044
        -0.000          -0.000
 -16456744.612 9 -12677769.07648  21430651.662    21430651.4394   21430658.0684
        -0.000          -0.000
 99  3 29  2 23  0.0020000  0  7 22 26 23 21 17 30  6                0.002006718
  -6043700.439 9  -4696431.09946  23988176.643    23988175.9824   23988184.8314
        -0.000          -0.000
  -8935454.147 9  -6270393.63947  22374893.638    22374893.7144   22374900.3704
        -0.000          -0.000
 -19122600.707 9 -14651435.92049  21521947.651    21521947.0764   21521954.2824
        -0.000          -0.000
  -8354094.809 9  -6292325.15046  24205388.664    24205388.2484   24205398.2084
        -0.000          -0.000
 -19012172.227 9 -14406718.67749  21506509.485    21506508.8044   21506515.7924
        -0.000          -0.000
  12830026.076 8  10010448.00045  25649914.257    25649913.8434   25649924.2144
        -0.000          -0.000
 -16391856.037 9 -12627206.56048  21442999.505    21442999.2814   21443006.0214
        -0.000          -0.000
 99  3 29  2 23 30.0020000  0  7 22 26 23 21 17 30  6                0.002013035
  -6019980.593 9  -4677948.08946  23992690.147    23992689.5474   23992698.3864
        -0.000          -0.000
  -8917708.116 9  -6256565.50847  22378270.447    22378270.5164   22378277.2674
        -0.000          -0.000
 -19142536.115 9 -14666969.96449  21518154.107    21518153.5424   21518160.6444
        -0.000          -0.000
  -8423262.220 9  -6346221.67146  24192226.643    24192226.1104   24192235.9264
        -0.000          -0.000
 -19018259.707 9 -14411462.14349  21505351.065    21505350.3764   21505357.4354
        -0.000          -0.000
  12937058.818 9  10093850.07445  25670282.468    25670282.1024   25670291.8854
        -0.000          -0.000
 -16326491.649 9 -12576273.29248  21455438.017    21455437.7694   21455444.5674
        -0.000          -0.000
 99  3 29  2 24  0.0020000  0  7 22 26 23 21 17 30  6                0.002019359
  -5995769.032 9  -4659081.94246  23997297.430    23997296.8674   23997305.6854
        -0.000          -0.000
  -8899338.380 9  -6242251.36847  22381765.930    22381765.9964   22381772.7184
        -0.000          -0.000
 -19162049.641 9 -14682175.27049  21514440.883    21514440.2534   21514447.3024
        -0.000          -0.000
  -8492193.602 9  -6399934.28846  24179109.321    24179108.8014   24179118.2914
        -0.000          -0.000
 -19024164.569 9 -14416063.30049  21504227.425    21504226.7044   21504233.7394
        -0.000          -0.000
  13043970.615 8  10177157.91045  25690627.244    25690626.9384   25690636.4974
        -0.000          -0.000
 -16260628.285 9 -12524951.21248  21467971.536    21467971.2824   21467978.0074
        -0.000          -0.000
 99  3 29  2 24 30.0020000  0  7 22 26 23 21 17 30  6                0.002025706
  -5971050.798 9  -4639820.96446  24002001.099    24002000.5514   24002009.4204
        -0.000          -0.000
  -8880328.916 9  -6227438.74047  22385383.309    22385383.3914   22385390.0204
        -0.000          -0.000
 -19181132.005 9 -14697044.60149  21510809.664    21510809.1064   21510815.9464
        -0.000          -0.000
  -8560875.312 9  -6453452.36846  24166039.345    24166038.9004   24166048.1264
        -0.000          -0.000
 -19029870.262 9 -14420509.27149  21503141.519    21503140.8554   21503147.8604
        -0.000          -0.000
  13150758.427 8  10260369.12945  25710948.438    25710948.1914   25710957.4434
        -0.000          -0.000
 -16194260.848 9 -12473236.35348  21480601.031    21480600.7204   21480607.3604
        -0.000          -0.000
 99  3 29  2 25  0.0020000  0  7 22 26 23 21 17 30  6                0.002032042
  -5945879.117 9  -4620206.64246  24006790.640    24006790.3354   24006799.4004
        -0.000          -0.000
  -8860729.895 9  -6212166.71747  22389113.116    22389113.1794   22389119.5494
        -0.000          -0.000
 -19199833.310 9 -14711616.98949  21507251.147    21507250.4904   21507257.0894
        -0.000          -0.000
  -8629354.745 9  -6506812.82346  24153007.794    24153007.4814   24153016.7304
        -0.000          -0.000
 -19035417.394 9 -14424831.67949  21502085.992    21502085.3364   21502092.2034
        -0.000          -0.000
  13257370.190 8  10343443.16745  25731235.898    25731235.6064   25731245.0494
        -0.000          -0.000
 -16127462.764 9 -12421185.91948  21493312.267    21493311.9604   21493318.6594
        -0.000          -0.000
 99  3 29  2 25 30.0020000  0  7 22 26 23 21 17 30  6                0.002038365
  -5920246.746 9  -4600233.36046  24011668.122    24011667.9284   24011677.1054
        -0.000          -0.000
  -8840535.711 9  -6196430.95447  22392956.143    22392956.1494   22392962.3004
        -0.000          -0.000
 -19218130.958 9 -14725874.86049  21503769.168    21503768.5314   21503775.1654
        -0.000          -0.000
  -8697620.772 9  -6560006.99746  24140016.840    24140016.7054   24140026.1534
        -0.000          -0.000
 -19040791.773 9 -14429019.47749  21501063.417    21501062.6144   21501069.4344
        -0.000          -0.000
  13363811.601 8  10426384.45145  25751490.915    25751490.6134   25751500.2034
        -0.000          -0.000
 -16060230.751 9 -12368797.33548  21506106.020    21506105.7634   21506112.5134
        -0.000          -0.000
 99  3 29  2 26  0.0020000  0  7 22 26 23 21 17 30  6                0.002044655
  -5894171.918 9  -4579915.30046  24016630.052    24016629.7144   24016639.0684
        -0.000          -0.000
  -8819760.379 9  -6180242.34347  22396909.575    22396909.5624   22396915.6044
        -0.000          -0.000
 -19236020.729 9 -14739814.91149  21500364.795    21500364.1984   21500370.8444
        -0.000          -0.000
  -8765683.159 9  -6613042.48846  24127065.039    24127064.8714   24127074.1934
        -0.000          -0.000
 -19046015.875 9 -14433090.17449  21500069.244    21500068.4624   21500075.2554
        -0.000          -0.000
  13470063.164 8  10509177.78645  25771709.855    25771709.7764   25771719.3694
        -0.000          -0.000
 -15992574.499 9 -12316078.18648  21518980.708    21518980.4204   21518987.0334
        -0.000          -0.000
 99  3 29  2 26 30.0020000  0  7 22 26 23 21 17 30  6                0.002050905
  -5867665.690 9  -4559261.06046  24021673.734    24021673.4424   24021683.1574
        -0.000          -0.000
  -8798419.303 9  -6163612.88947  22400970.558    22400970.5914   22400976.5944
        -0.000          -0.000
 -19253513.952 9 -14753445.94549  21497035.945    21497035.3324   21497041.8924
        -0.000          -0.000
  -8833555.563 9  -6665929.94146  24114149.408    24114149.1324   24114158.2104
        -0.000          -0.000
 -19051117.791 9 -14437065.66649  21499098.235    21499097.5154   21499104.4684
        -0.000          -0.000
  13576129.757 8  10591827.03045  25791893.882    25791893.8434   25791902.9824
        -0.000          -0.000
 -15924512.675 9 -12263043.01548  21531932.434    21531932.1934   21531938.7504
        -0.000          -0.000
 99  3 29  2 27  0.0020000  0  7 22 26 23 21 17 30  6                0.002057119
  -5840736.250 9  -4538277.08246  24026798.339    24026798.1134   24026807.5254
        -0.000          -0.000
  -8776511.763 9  -6146542.03847  22405139.386    22405139.4744   22405145.4384
        -0.000          -0.000
 -19270621.228 9 -14766776.24149  21493780.517    21493779.8864   21493786.3914
        -0.000          -0.000
  -8901245.196 9  -6718674.98646  24101268.517    24101268.1704   24101277.0894
        -0.000          -0.000
 -19056109.935 9 -14440955.62849  21498148.193    21498147.5324   21498154.5444
        -0.000          -0.000
  13682023.007 8  10674341.19245  25812044.734    25812044.8034   25812054.1334
        -0.000          -0.000
 -15856049.585 9 -12209695.15948  21544960.648    21544960.3644   21544966.7954
        -0.000          -0.000
 99  3 29  2 27 30.0020000  0  7 22 26 23 21 17 30  6                0.002063343
  -5813344.920 9  -4516933.16346  24032011.073    24032010.5454   24032019.7544
        -0.000          -0.000
  -8753994.598 9  -6128996.15647  22409424.329    22409424.3984   22409430.2564
        -0.000          -0.000
 -19287336.515 9 -14779801.10349  21490599.678    21490599.0284   21490605.6524
        -0.000          -0.000
  -8968711.216 9  -6771245.76746  24088430.138    24088429.7174   24088438.5404
        -0.000          -0.000
 -19060952.782 9 -14444729.25149  21497226.694    21497226.0104   21497232.9934
        -0.000          -0.000
  13787760.356 9  10756733.85745  25832165.735    25832165.8244   25832175.6474
        -0.000          -0.000
 -15787141.021 9 -12156000.17048  21558073.325    21558073.1074   21558079.6004
        -0.000          -0.000
 99  3 29  2 28  0.0020000  0  7 22 26 23 21 17 30  6                0.002069606
  -5785462.251 9  -4495206.40246  24037317.130    24037316.5524   24037325.5604
        -0.000          -0.000
  -8730845.492 9  -6110957.86547  22413829.498    22413829.5194   22413835.3064
        -0.000          -0.000
 -19303664.237 9 -14792523.96349  21487492.370    21487491.8194   21487498.5154
        -0.000          -0.000
  -9035927.303 9  -6823621.82146  24075639.574    24075638.9424   24075647.6374
        -0.000          -0.000
 -19065612.234 9 -14448359.97049  21496340.101    21496339.3744   21496346.2964
        -0.000          -0.000
  13893356.632 9  10839016.59345  25852260.292    25852260.2824   25852270.0044
        -0.000          -0.000
 -15717765.409 9 -12101941.25248  21571274.942    21571274.7384   21571281.3604
        -0.000          -0.000
 99  3 29  2 28 30.0020000  0  7 22 26 23 21 17 30  6                0.002075897
  -5757093.110 9  -4473100.57746  24042715.666    24042715.1144   24042723.9704
        -0.000          -0.000
  -8707084.441 9  -6092442.70247  22418350.922    22418350.9894   22418356.7244
        -0.000          -0.000
 -19319626.392 9 -14804961.96249  21484454.835    21484454.2724   21484460.9264
        -0.000          -0.000
  -9102920.794 9  -6875824.43046  24062890.900    24062890.3884   24062899.2324
        -0.000          -0.000
 -19070097.104 9 -14451854.65649  21495486.488    21495485.8554   21495492.8314
        -0.000          -0.000
  13998778.431 8  10921163.36345  25872321.541    25872321.5444   25872331.4164
        -0.000          -0.000
 -15647932.303 9 -12047525.84448  21584563.645    21584563.4384   21584570.2204
        -0.000          -0.000
 99  3 29  2 29  0.0020000  0  7 22 26 23 21 17 30  6                0.002082209
  -5728242.787 9  -4450619.78546  24048205.976    24048205.3234   24048214.0274
        -0.000          -0.000
  -8682716.058 9  -6073454.31547  22422988.108    22422988.1284   22422993.7554
        -0.000          -0.000
 -19335220.528 9 -14817113.19349  21481487.280    21481486.7364   21481493.4764
        -0.000          -0.000
  -9169689.492 9  -6927851.88746  24050184.897    24050184.5644   24050193.5214
        -0.000          -0.000
 -19074394.096 9 -14455202.93749  21494668.911    21494668.2414   21494675.2134
        -0.000          -0.000
  14103997.267 8  11003151.96945  25892344.351    25892344.1034   25892354.1864
        -0.000          -0.000
 -15577629.489 9 -11992744.43448  21597941.859    21597941.6164   21597948.4494
        -0.000          -0.000
 99  3 29  2 29 30.0020000  0  7 22 26 23 21 17 30  6                0.002088517
  -5698930.134 9  -4427778.71147  24053783.977    24053783.3734   24053792.1564
        -0.000          -0.000
  -8657772.939 9  -6054018.08247  22427734.613    22427734.5834   22427740.2674
        -0.000          -0.000
 -19350453.379 9 -14828982.90749  21478588.502    21478587.9434   21478594.8004
        -0.000          -0.000
  -9236243.951 9  -6979712.41046  24037520.101    24037519.7614   24037528.6354
        -0.000          -0.000
 -19078519.145 9 -14458417.23649  21493884.083    21493883.3544   21493890.2434
        -0.000          -0.000
  14208978.673 8  11084955.57545  25912321.856    25912321.5434   25912331.7474
        -0.000          -0.000
 -15506874.198 9 -11937610.44148  21611406.289    21611406.0354   21611412.7274
        -0.000          -0.000
 99  3 29  2 30  0.0020000  0  7 22 26 23 21 17 30  6                0.002094814
  -5669142.480 9  -4404567.51447  24059452.655    24059451.8974   24059460.7254
        -0.000          -0.000
  -8632242.709 9  -6034124.37347  22432592.657    22432592.6204   22432598.5434
        -0.000          -0.000
 -19365279.823 9 -14840535.94349  21475766.959    21475766.4464   21475773.3454
        -0.000          -0.000
  -9302570.435 9  -7031395.28346  24024899.005    24024898.3494   24024907.0944
        -0.000          -0.000
 -19082466.573 9 -14461493.13049  21493132.945    21493132.1444   21493138.9924
        -0.000          -0.000
  14313764.456 8  11166606.73445  25932262.006    25932261.5094   25932271.9274
        -0.000          -0.000
 -15435638.322 9 -11882101.96248  21624962.169    21624961.8514   21624968.4274
        -0.000          -0.000
 99  3 29  2 30 30.0020000  0  7 22 26 23 21 17 30  6                0.002101070
  -5638917.465 9  -4381015.52547  24065204.616    24065203.6264   24065212.3214
        -0.000          -0.000
  -8606139.970 9  -6013784.55947  22437559.617    22437559.6114   22437565.7514
        -0.000          -0.000
 -19379698.437 9 -14851771.18349  21473023.128    21473022.5964   21473029.5174
        -0.000          -0.000
  -9368688.424 9  -7082915.70046  24012317.048    24012316.4104   24012325.0894
        -0.000          -0.000
 -19086263.082 9 -14464451.41149  21492410.350    21492409.6244   21492416.4004
        -0.000          -0.000
  14418354.595 8  11248105.43245  25952164.763    25952163.9924   25952174.6454
        -0.000          -0.000
 -15363939.455 9 -11826232.72048  21638605.941    21638605.6954   21638612.2854
        -0.000          -0.000
 99  3 29  2 31  0.0020000  0  7 22 26 23 21 17 30  6                0.002107287
  -5608284.151 9  -4357145.37847  24071033.691    24071032.8914   24071041.5824
        -0.000          -0.000
  -8579463.156 9  -5992997.40347  22442635.927    22442635.9864   22442642.1724
        -0.000          -0.000
 -19393728.837 9 -14862703.92349  21470353.175    21470352.6344   21470359.6744
        -0.000          -0.000
  -9434603.201 9  -7134277.75246  23999773.635    23999773.1044   23999781.5154
        -0.000          -0.000
 -19089921.793 9 -14467302.32549  21491714.128    21491713.3764   21491720.1334
        -0.000          -0.000
  14522735.714 8  11329441.23645  25972027.210    25972026.4714   25972037.6654
        -0.000          -0.000
 -15291801.992 9 -11770021.70648  21652333.282    21652333.0124   21652339.5524
        -0.000          -0.000
 99  3 29  2 31 30.0020000  0  7 22 26 23 21 17 30  6                0.002113459
  -5577272.431 9  -4332980.37847  24076935.037    24076934.2254   24076942.9684
        -0.000          -0.000
  -8552213.505 9  -5971763.88747  22447821.455    22447821.5264   22447827.5714
        -0.000          -0.000
 -19407387.291 9 -14873346.84649  21467754.021    21467753.4744   21467760.6514
        -0.000          -0.000
  -9500340.455 9  -7185501.49146  23987264.337    23987263.6434   23987271.5044
        -0.000          -0.000
 -19093470.688 9 -14470067.67049  21491038.812    21491038.0144   21491044.8334
        -0.000          -0.000
  14626902.136 8  11410609.76245  25991848.789    25991848.2984   25991860.1304
        -0.000          -0.000
 -15219252.602 9 -11713489.71548  21666138.848    21666138.6344   21666145.2954
        -0.000          -0.000
 99  3 29  2 32  0.0020000  0  7 22 26 23 21 17 30  6                0.002119610
  -5545856.323 9  -4308500.27747  24082913.558    24082912.6664   24082921.4224
        -0.000          -0.000
  -8524360.427 9  -5950060.13947  22453121.800    22453121.7774   22453127.8744
        -0.000          -0.000
 -19420660.339 9 -14883689.45049  21465228.197    21465227.7024   21465234.9094
        -0.000          -0.000
  -9565886.584 9  -7236576.31246  23974791.309    23974790.6084   23974798.1364
        -0.000          -0.000
 -19096885.139 9 -14472728.26149  21490388.923    21490388.1944   21490395.0634
        -0.000          -0.000
  14730880.576 8  11491631.83045  26011634.569    26011634.3414   26011647.3524
        -0.000          -0.000
 -15146272.838 9 -11656622.35648  21680026.561    21680026.3104   21680032.8704
        -0.000          -0.000
 99  3 29  2 32 30.0020000  0  7 22 26 23 21 17 30  6                0.002125762
  -5513999.566 9  -4283676.81546  24088975.873    24088974.9304   24088983.6194
        -0.000          -0.000
  -8495881.400 9  -5927868.66047  22458541.156    22458541.0964   22458547.3414
        -0.000          -0.000
 -19433529.569 9 -14893717.38449  21462779.326    21462778.8174   21462785.9224
        -0.000          -0.000
  -9631208.379 9  -7287476.31546  23962360.893    23962360.2634   23962367.8874
        -0.000          -0.000
 -19100133.453 9 -14475259.39449  21489770.738    21489770.0424   21489776.8194
        -0.000          -0.000
  14834671.578 8  11572507.81345  26031384.874    26031384.9174   26031398.5304
        -0.000          -0.000
 -15072845.248 9 -11599406.05448  21693999.515    21693999.2274   21694005.6734
        -0.000          -0.000
 99  3 29  2 33  0.0020000  0  7 22 26 23 21 17 30  6                0.002131915
  -5481710.556 9  -4258516.52746  24095120.138    24095119.2164   24095127.8444
        -0.000          -0.000
  -8466801.633 9  -5905209.07547  22464074.688    22464074.6554   22464081.0114
        -0.000          -0.000
 -19446029.790 9 -14903457.77449  21460400.780    21460400.1244   21460407.1004
        -0.000          -0.000
  -9696326.273 9  -7338217.42946  23949969.312    23949968.7014   23949976.6414
        -0.000          -0.000
 -19103236.557 9 -14477677.36849  21489180.292    21489179.5914   21489186.1904
        -0.000          -0.000
  14938231.149 8  11653203.48745  26051091.371    26051091.6834   26051105.7534
        -0.000          -0.000
 -14998990.851 9 -11541857.16748  21708053.561    21708053.2684   21708059.6944
        -0.000          -0.000
 99  3 29  2 33 30.0020000  0  7 22 26 23 21 17 30  6                0.002138079
  -5448955.360 9  -4232993.00846  24101353.226    24101352.3304   24101360.8924
        -0.000          -0.000
  -8437108.431 9  -5882071.48647  22469725.066    22469725.0834   22469731.4114
        -0.000          -0.000
 -19458131.672 9 -14912887.78649  21458097.831    21458097.1594   21458104.0734
        -0.000          -0.000
  -9761200.137 9  -7388768.40847  23937624.273    23937623.6574   23937631.6864
        -0.000          -0.000
 -19106145.056 9 -14479943.70749  21488626.859    21488626.0844   21488632.7164
        -0.000          -0.000
  15041599.890 8  11733750.44145  26070762.110    26070762.5464   26070776.4034
        -0.000          -0.000
 -14924673.081 9 -11483947.20948  21722195.685    21722195.4374   21722201.8584
        -0.000          -0.000
 99  3 29  2 34  0.0020000  0  7 22 26 23 21 17 30  6                0.002144251
  -5415722.241 9  -4207097.06646  24107677.493    24107676.4034   24107685.0444
        -0.000          -0.000
  -8406823.811 9  -5858473.04347  22475487.994    22475488.0134   22475494.3924
        -0.000          -0.000
 -19469835.909 9 -14922007.93649  21455870.558    21455869.9204   21455876.7384
        -0.000          -0.000
  -9825815.242 9  -7439117.77647  23925328.329    23925327.7914   23925335.8894
        -0.000          -0.000
 -19108848.216 9 -14482050.03949  21488112.413    21488111.6904   21488118.4014
        -0.000          -0.000
  15144762.412 8  11814136.65845  26090393.550    26090394.0754   26090407.3564
        -0.000          -0.000
 -14849883.680 9 -11425669.74648  21736427.631    21736427.3644   21736433.8554
        -0.000          -0.000
 99  3 29  2 34 30.0020000  0  7 22 26 23 21 17 30  6                0.002150422
  -5382022.812 9  -4180837.74746  24114090.007    24114088.9954   24114097.8584
        -0.000          -0.000
  -8375949.160 9  -5834414.83747  22481363.163    22481363.2564   22481369.6884
        -0.000          -0.000
 -19481136.569 9 -14930813.60949  21453720.146    21453719.4694   21453726.2524
        -0.000          -0.000
  -9890160.161 9  -7489256.58846  23913083.770    23913083.3274   23913091.4974
        -0.000          -0.000
 -19111344.466 9 -14483995.14949  21487637.483    21487636.7784   21487643.3604
        -0.000          -0.000
  15247717.914 8  11894361.57645  26109985.999    26109986.2414   26109998.5974
        -0.000          -0.000
 -14774621.089 9 -11367023.57248  21750749.548    21750749.2604   21750755.8494
        -0.000          -0.000
 99  3 29  2 35  0.0020000  0  7 22 26 23 21 17 30  6                0.002156599
  -5347855.990 9  -4154214.21846  24120590.992    24120590.3534   24120599.4904
        -0.000          -0.000
  -8344458.809 9  -5809876.87147  22487355.719    22487355.7674   22487361.9954
        -0.000          -0.000
 -19492010.054 9 -14939286.41749  21451650.901    21451650.2524   21451657.1074
        -0.000          -0.000
  -9954220.590 9  -7539173.70146  23900893.467    23900892.8974   23900901.0054
        -0.000          -0.000
 -19113623.109 9 -14485770.68549  21487204.077    21487203.2694   21487209.7214
        -0.000          -0.000
  15350487.945 8  11974441.97945  26129543.001    26129543.2234   26129554.5834
        -0.000          -0.000
 -14698876.475 9 -11308001.80848  21765163.169    21765162.8824   21765169.5674
        -0.000          -0.000
 99  3 29  2 35 30.0020000  0  7 22 26 23 21 17 30  6                0.002162763
  -5313253.533 9  -4127251.27446  24127175.854    24127175.1344   24127184.0854
        -0.000          -0.000
  -8312382.730 9  -5784882.50647  22493459.713    22493459.6924   22493465.8514
        -0.000          -0.000
 -19502477.206 9 -14947442.60349  21449659.052    21449658.4114   21449665.2344
        -0.000          -0.000
 -10018027.959 9  -7588893.65046  23888751.180    23888750.8124   23888758.6324
        -0.000          -0.000
 -19115730.043 9 -14487412.42849  21486803.036    21486802.1874   21486808.7304
        -0.000          -0.000
  15453047.327 8  12054358.24245  26149059.785    26149059.7924   26149070.7464
        -0.000          -0.000
 -14622691.151 9 -11248636.63448  21779660.734    21779660.4254   21779667.1884
        -0.000          -0.000
 99  3 29  2 36  0.0020000  0  7 22 26 23 21 17 30  6                0.002168911
  -5278224.009 9  -4099955.52746  24133842.187    24133841.2494   24133850.1234
        -0.000          -0.000
  -8279723.327 9  -5759433.58047  22499674.687    22499674.6694   22499680.7934
        -0.000          -0.000
 -19512539.633 9 -14955283.42149  21447744.141    21447743.5164   21447750.3354
        -0.000          -0.000
 -10081610.922 9  -7638438.72946  23876652.060    23876651.4684   23876659.0084
        -0.000          -0.000
 -19117711.884 9 -14488956.69949  21486425.652    21486424.8984   21486431.5264
        -0.000          -0.000
  15555372.557 7  12134092.04554  26168532.522    26168532.4274          0.0005
        -0.000          -0.000
 -14546092.318 9 -11188949.25048  21794236.867    21794236.5944   21794243.4644
        -0.000          -0.000
 99  3 29  2 36 30.0020000  0  7 22 26 23 21 17 30  6                0.002175036
  -5242792.679 9  -4072346.66746  24140584.627    24140583.5914   24140592.5324
        -0.000          -0.000
  -8246475.507 9  -5733526.14647  22506001.455    22506001.4304   22506007.7064
        -0.000          -0.000
 -19522215.297 9 -14962822.86849  21445902.889    21445902.3014   21445909.0734
        -0.000          -0.000
 -10144990.240 9  -7687825.12146  23864591.355    23864590.6984   23864598.2024
        -0.000          -0.000
 -19119582.828 9 -14490414.55449  21486069.496    21486068.7844   21486075.4424
        -0.000          -0.000
  15657456.72817  12213638.03954  26187959.284    26187959.5835          0.0005
        -0.000          -0.000
 -14469105.363 9 -11128959.40448  21808887.102    21808886.7914   21808893.5294
        -0.000          -0.000
 99  3 29  2 37  0.0020000  0  7 22 26 23 21 17 30  6                0.002181149
  -5206961.764 9  -4044426.46146  24147403.012    24147402.0314   24147410.7534
        -0.000          -0.000
  -8212641.461 9  -5707161.92047  22512439.821    22512439.8724   22512446.1584
        -0.000          -0.000
 -19531516.830 9 -14970070.78649  21444132.952    21444132.3464   21444139.0364
        -0.000          -0.000
 -10208155.265 9  -7737044.55146  23852571.137    23852570.6104   23852578.2014
        -0.000          -0.000
 -19121340.865 9 -14491784.41649  21485734.968    21485734.2664   21485740.8524
        -0.000          -0.000
  15759300.79716  12292997.04153         0.000           0.0005          0.0005
        -0.000          -0.000
 -14391722.870 9 -11068661.36048  21823612.633    21823612.3074   21823618.7904
        -0.000          -0.000
 99  3 29  2 37 30.0020000  0  6 22 26 23 21 17  6                   0.002187271
  -5170700.616 9  -4016171.00746  24154303.420    24154302.3344   24154310.7324
        -0.000          -0.000
  -8178203.191 9  -5680326.88347  22518993.274    22518993.2154   22518999.3944
        -0.000          -0.000
 -19540432.230 9 -14977017.81749  21442436.502    21442435.8804   21442442.4254
        -0.000          -0.000
 -10271077.990 9  -7786075.19146  23840597.132    23840596.6594   23840604.1594
        -0.000          -0.000
 -19122950.218 9 -14493038.43849  21485428.642    21485427.8784   21485434.5434
        -0.000          -0.000
 -14313912.671 9 -11008030.05448  21838419.477    21838419.1374   21838425.5564
        -0.000          -0.000
 99  3 29  2 38  0.0020000  0  6 22 26 23 21 17  6                   0.002193374
  -5134055.180 9  -3987616.09246  24161276.687    24161275.6084   24161284.2164
        -0.000          -0.000
  -8143198.548 9  -5653050.52047  22525654.381    22525654.3544   22525660.3964
        -0.000          -0.000
 -19549004.991 9 -14983697.85749  21440805.246    21440804.5804   21440810.9564
        -0.000          -0.000
 -10333790.223 9  -7834941.77946  23828663.318    23828662.6704   23828670.1564
        -0.000          -0.000
 -19124422.185 9 -14494185.40449  21485148.430    21485147.7624   21485154.3844
        -0.000          -0.000
 -14235695.083 9 -10947081.30948  21853303.902    21853303.5034   21853310.0024
        -0.000          -0.000
 99  3 29  2 38 30.0020000  0  6 22 26 23 21 17  6                   0.002199464
  -5097024.065 9  -3958760.66446  24168323.070    24168322.2484   24168331.0284
        -0.000          -0.000
  -8107617.286 9  -5625324.83947  22532425.308    22532425.2374   22532431.1554
        -0.000          -0.000
 -19557234.826 9 -14990110.67749  21439239.077    21439238.4244   21439244.7294
        -0.000          -0.000
 -10396269.670 9  -7883626.98446  23816773.610    23816772.9624   23816780.5034
        -0.000          -0.000
 -19125720.784 9 -14495197.26049  21484901.392    21484900.6934   21484907.1274
        -0.000          -0.000
 -14157044.201 9 -10885794.92348  21868270.621    21868270.2824   21868276.9224
        -0.000          -0.000
 99  3 29  2 39  0.0020000  0  6 22 26 23 21 17  6                   0.002205553
  -5059582.608 9  -3929585.50646  24175448.335    24175447.4464   24175455.6574
        -0.000          -0.000
  -8071453.348 9  -5597145.08847  22539306.926    22539306.9034   22539312.8914
        -0.000          -0.000
 -19565111.474 9 -14996248.29549  21437740.059    21437739.4924   21437745.7614
        -0.000          -0.000
 -10458523.348 9  -7932136.24146  23804927.152    23804926.4024   23804933.9514
        -0.000          -0.000
 -19126846.344 9 -14496074.29449  21484687.226    21484686.5114   21484693.0244
        -0.000          -0.000
 -14077955.193 9 -10824167.13948  21883320.718    21883320.3834   21883327.1154
        -0.000          -0.000
 99  3 29  2 39 30.0020000  0  6 22 26 23 21 17  6                   0.002211630
  -5021710.457 9  -3900074.73146  24182655.407    24182654.2974   24182662.4674
        -0.000          -0.000
  -8034687.875 9  -5568496.62347  22546302.798    22546302.8204   22546309.1764
        -0.000          -0.000
 -19572596.462 9 -15002080.71549  21436315.687    21436315.1284   21436321.3914
        -0.000          -0.000
 -10520574.352 9  -7980487.57646  23793119.391    23793118.5464   23793126.0634
        -0.000          -0.000
 -19127778.964 9 -14496800.98649  21484509.775    21484509.0544   21484515.6964
        -0.000          -0.000
 -13998429.064 9 -10762198.74248  21898453.865    21898453.5664   21898460.3594
        -0.000          -0.000
 99  3 29  2 40  0.0020000  0  6 22 26 23 21 17  6                   0.002217684
  -4983421.661 9  -3870239.28946  24189941.328    24189940.3924   24189948.7094
        -0.000          -0.000
  -7997317.554 9  -5539376.87747  22553413.877    22553413.9564   22553420.4464
        -0.000          -0.000
 -19579686.142 9 -15007605.09649  21434966.587    21434965.9724   21434972.3144
        -0.000          -0.000
 -10582436.898 9  -8028692.07647  23781347.539    23781346.6364   23781354.1624
        -0.000          -0.000
 -19128524.742 9 -14497382.08249  21484367.894    21484367.1324   21484373.7614
        -0.000          -0.000
 -13918469.013 9 -10699892.21648  21913669.586    21913669.3724   21913676.2294
        -0.000          -0.000
 99  3 29  2 40 30.0020000  0  6 22 26 23 21 17  6                   0.002223738
  -4944699.377 9  -3840066.08146  24197310.092    24197309.2004   24197317.3744
        -0.000          -0.000
  -7959335.967 9  -5509780.82147  22560641.640    22560641.6434   22560648.0974
        -0.000          -0.000
 -19586382.000 9 -15012822.61849  21433692.122    21433691.5744   21433698.1164
        -0.000          -0.000
 -10644119.297 9  -8076756.20347  23769609.830    23769609.0424   23769616.4874
        -0.000          -0.000
 -19129096.592 9 -14497827.65249  21484259.057    21484258.3074   21484264.9304
        -0.000          -0.000
 -13838093.511 9 -10637261.95748  21928964.626    21928964.3844   21928971.2084
        -0.000          -0.000
 99  3 29  2 41  0.0020000  0  6 22 26 23 21 17  6                   0.002229779
  -4905540.628 9  -3809552.76346  24204761.829    24204760.8734   24204768.8694
        -0.000          -0.000
  -7920758.492 9  -5479720.43347  22567982.715    22567982.7014   22567989.0684
        -0.000          -0.000
 -19592685.029 9 -15017734.03249  21432492.749    21432492.2044   21432498.7084
        -0.000          -0.000
 -10705628.260 9  -8124685.18447  23757905.459    23757904.4854   23757911.6544
        -0.000          -0.000
 -19129506.174 9 -14498146.78649  21484181.054    21484180.3424   21484187.0544
        -0.000          -0.000
 -13757315.049 9 -10574317.72048  21944336.372    21944336.1024   21944342.9254
        -0.000          -0.000
 99  3 29  2 41 30.0020000  0  6 22 26 23 21 17  6                   0.002235808
  -4865957.507 9  -3778708.75146  24212294.200    24212293.2184   24212301.1914
        -0.000          -0.000
  -7881589.311 9  -5449198.96547  22575436.419    22575436.4014   22575442.7574
        -0.000          -0.000
 -19598592.201 9 -15022336.98649  21431368.740    21431368.0634   21431374.5914
        -0.000          -0.000
 -10766929.628 9  -8172452.41947  23746240.087    23746239.2314   23746246.2764
        -0.000          -0.000
 -19129742.001 9 -14498330.52349  21484136.197    21484135.4534   21484142.2274
        -0.000          -0.000
 -13676114.004 9 -10511044.18548  21959788.485    21959788.2254   21959795.0914
        -0.000          -0.000
 99  3 29  2 42  0.0020000  0  6 22 26 23 21 17  6                   0.002241849
  -4825949.724 9  -3747533.85646  24219907.645    24219906.4584   24219914.4534
        -0.000          -0.000
  -7841830.147 9  -5418217.76647  22583002.419    22583002.3834   22583008.6734
        -0.000          -0.000
 -19604120.845 9 -15026644.98649  21430316.561    21430315.9414   21430322.5314
        -0.000          -0.000
 -10827977.130 9  -8220021.81947  23734622.732    23734622.1244   23734629.3254
        -0.000          -0.000
 -19129807.479 9 -14498381.52149  21484123.707    21484122.9114   21484129.6934
        -0.000          -0.000
 -13594477.500 9 -10447431.32848  21975323.445    21975323.1804   21975330.0584
        -0.000          -0.000
 99  3 29  2 42 30.0020000  0  6 22 26 23 21 17  6                   0.002247916
  -4785495.249 9  -3716010.87546  24227605.381    24227604.4694   24227612.6034
        -0.000          -0.000
  -7801474.370 9  -5386771.67547  22590681.810    22590681.8064   22590688.0364
        -0.000          -0.000
 -19609263.062 9 -15030651.87749  21429338.041    21429337.3794   21429343.9874
        -0.000          -0.000
 -10888737.178 9  -8267367.21047  23723060.330    23723059.7274   23723067.0194
        -0.000          -0.000
 -19129686.780 9 -14498287.44449  21484146.574    21484145.7954   21484152.5584
        -0.000          -0.000
 -13512400.729 9 -10383475.40448  21990942.216    21990941.9284   21990948.7744
        -0.000          -0.000
 99  3 29  2 43  0.0020000  0  7 22 26 23 21 17  6  3                0.002253979
  -4744647.330 9  -3684181.34646  24235378.621    24235377.4674   24235385.5324
        -0.000          -0.000
  -7760553.704 9  -5354885.42347  22598468.856    22598468.7954   22598474.7524
        -0.000          -0.000
 -19614037.997 9 -15034372.57949  21428429.378    21428428.7474   21428435.3534
        -0.000          -0.000
 -10949219.788 9  -8314496.43547  23711550.715    23711550.1554   23711557.4324
        -0.000          -0.000
 -19129402.154 9 -14498065.63849  21484200.655    21484199.9284   21484206.7464
        -0.000          -0.000
 -13429903.272 9 -10319191.70248  22006641.019    22006640.7194   22006647.4914
        -0.000          -0.000
   -291847.86318   -209937.09554         0.000           0.0005   25202389.6045
        -0.000          -0.000
 99  3 29  2 43 30.0020000  0  7 22 26 23 21 17  6  3                0.002259990
  -4703412.110 9  -3652050.01046  24243225.660    24243224.3354   24243232.4224
        -0.000          -0.000
  -7719057.247 9  -5322550.48247  22606365.343    22606365.3294   22606371.1114
        -0.000          -0.000
 -19618447.100 9 -15037808.20549  21427590.384    21427589.7384   21427596.3494
        -0.000          -0.000
 -11009414.877 9  -8361401.61547  23700095.770    23700095.1964   23700102.6874
        -0.000          -0.000
 -19128943.099 9 -14497707.90449  21484288.007    21484287.2584   21484294.1004
        -0.000          -0.000
 -13346986.555 9 -10254581.28148  22022419.493    22022419.1874   22022425.9864
        -0.000          -0.000
   -385328.62118   -282779.15945  25184588.482    25184590.1015   25184601.9034
        -0.000          -0.000
 99  3 29  2 44  0.0020000  0  7 22 26 23 21 17  6  3                0.002266035
  -4661799.658 9  -3619624.73346  24251143.813    24251142.8034   24251151.2084
        -0.000          -0.000
  -7677001.439 9  -5289779.69647  22614368.451    22614368.3894   22614374.1344
        -0.000          -0.000
 -19622521.217 9 -15040982.81549  21426815.022    21426814.4154   21426821.0794
        -0.000          -0.000
 -11069353.947 9  -8408107.29547  23688689.544    23688688.9134   23688696.6814
        -0.000          -0.000
 -19128322.973 9 -14497224.66749  21484405.886    21484405.1764   21484411.9634
        -0.000          -0.000
 -13263695.110 9 -10189678.87448  22038269.097    22038268.8344   22038275.9134
        -0.000          -0.000
   -478713.234 8   -355546.31445  25166818.774    25166821.8224   25166831.5644
        -0.000          -0.000
 99  3 29  2 44 30.0020000  0  7 22 26 23 21 17  6  3                0.002272067
  -4619801.005 9  -3586898.53846  24259135.643    24259134.8014   24259143.3094
        -0.000          -0.000
  -7634375.492 9  -5256564.65447  22622479.803    22622479.7334   22622485.7064
        -0.000          -0.000
 -19626237.527 9 -15043878.60149  21426107.743    21426107.1854   21426113.8304
        -0.000          -0.000
 -11129042.782 9  -8454617.98747  23677330.868    23677330.2064   23677338.2244
        -0.000          -0.000
 -19127520.748 9 -14496599.53849  21484558.571    21484557.8704   21484564.5494
        -0.000          -0.000
 -13180026.966 9 -10124482.96248  22054190.578    22054190.3024   22054197.4784
        -0.000          -0.000
   -571981.819 8   -428223.03745  25149071.127    25149073.3694   25149083.5484
        -0.000          -0.000
 99  3 29  2 45  0.0020000  0  7 22 26 23 21 17  6  3                0.002278093
  -4577426.384 9  -3553879.36046  24267199.482    24267198.5184   24267206.7394
        -0.000          -0.000
  -7591176.878 9  -5222903.37647  22630700.052    22630700.0134   22630706.0754
        -0.000          -0.000
 -19629599.003 9 -15046497.90149  21425468.058    21425467.4784   21425474.0814
        -0.000          -0.000
 -11188497.773 9  -8500946.47547  23666016.568    23666016.1084   23666024.2264
        -0.000          -0.000
 -19126539.020 9 -14495834.53649  21484745.436    21484744.7114   21484751.3224
        -0.000          -0.000
 -13095976.209 9 -10058988.90448  22070184.948    22070184.6894   22070191.7924
        -0.000          -0.000
   -665121.510 8   -500799.32745  25131348.171    25131349.5494   25131359.6924
        -0.000          -0.000
